Date StartTime U_cm/s V_cm/s W_cm/s Ustd_cm/s Vstd_cm/s Wstd_cm/s Uvar_(cm/s)^2 Vvar_(cm/s)^2 Wvar_(cm/s)^2 KE_(m/s)^2 TurbulentKE_(m/s)^2 HorizWindSpeed_cm/s FrictionSpeec_cm/s DragCoef SpeedOfSound_m/s SonicTemperature_C Pressure_mb 
10/15/2014  00:00:00      -60.938       52.942       32.223       82.298       30.339       47.714     6773.023      920.432     2276.609        0.876        0.499       80.724       55.006        0.464      342.379       17.747      853.035
10/15/2014  00:01:00      -55.986      123.235       -5.811      108.685       94.467       55.839    11812.375     8924.067     3117.945        2.110        1.193      135.356       67.961        0.252      342.162       17.375      853.032
10/15/2014  00:02:00       97.656       36.423       19.231       75.746       72.393       44.981     5737.504     5240.766     2023.304        1.212        0.650      104.228       34.993        0.113      342.229       17.492      853.008
10/15/2014  00:03:00      -60.043     -109.095       30.694      149.158      158.241       57.909    22248.032    25040.265     3353.412        3.354        2.532      124.526       74.937        0.362      342.580       18.087      853.057
10/15/2014  00:04:00     -164.016     -248.713       -9.640      118.123      106.524       58.275    13953.103    11347.416     3396.020        5.877        1.435      297.925       43.828        0.022      342.766       18.402      853.074
10/15/2014  00:05:00       26.253      -47.804        8.895       41.090       73.182       44.092     1688.357     5355.625     1944.130        0.602        0.449       54.539       29.800        0.299      342.664       18.232      853.020
10/15/2014  00:06:00       62.429      -29.598        6.009       65.638      114.669       38.765     4308.310    13149.004     1502.706        1.188        0.948       69.090       26.507        0.147      342.566       18.064      853.036
10/15/2014  00:07:00       71.564     -173.404        2.974       99.435       77.750       59.235     9887.280     6045.019     3508.832        2.732        0.972      187.591       48.921        0.068      342.580       18.086      853.167
10/15/2014  00:08:00       -1.424       37.311       77.173       38.539       70.508       59.144     1485.282     4971.355     3498.061        0.865        0.498       37.338       55.037        2.173      342.442       17.854      853.112
10/15/2014  00:09:00       33.470      -28.392        1.078       45.681       56.134       33.646     2086.781     3150.996     1132.034        0.415        0.318       43.890       30.680        0.489      342.492       17.940      853.090
10/15/2014  00:10:00      101.558       -7.317       26.962       59.579       87.411       51.189     3549.615     7640.719     2620.346        1.245        0.691      101.821       51.377        0.255      342.444       17.858      853.057
10/15/2014  00:11:00      118.372       51.901       18.148       56.657       58.009       42.488     3209.993     3365.044     1805.254        1.271        0.419      129.250       30.292        0.055      342.378       17.747      852.985
10/15/2014  00:12:00      104.303      128.049       -2.521       77.993      104.074       52.405     6082.895    10831.424     2746.290        2.347        0.983      165.153       50.144        0.092      342.321       17.647      852.926
10/15/2014  00:13:00      129.561      152.316      -18.372       88.826       83.994       58.711     7890.054     7055.022     3446.998        2.935        0.920      199.965       28.923        0.021      342.405       17.790      852.929
10/15/2014  00:14:00       84.168       43.027        3.619       59.646       56.014       43.801     3557.678     3137.609     1918.527        0.878        0.431       94.528       46.376        0.241      342.466       17.896      852.936
10/15/2014  00:15:00        0.150       -5.116       41.467       41.453       81.991       57.634     1718.318     6722.525     3321.665        0.675        0.588        5.118       51.975      103.128      342.265       17.552      852.899
10/15/2014  00:16:00       38.052      -65.715       20.871       38.831       53.563       29.384     1507.826     2868.957      863.443        0.572        0.262       75.937       28.827        0.144      342.431       17.834      852.882
10/15/2014  00:17:00       56.609       49.408       81.414       66.254       94.118       47.851     4389.628     8858.125     2289.674        1.390        0.777       75.139       50.547        0.453      342.235       17.503      852.876
10/15/2014  00:18:00       27.543     -105.960       13.674       56.244       82.946       53.217     3163.358     6880.095     2832.003        1.252        0.644      109.481       59.722        0.298      342.212       17.464      852.912
10/15/2014  00:19:00      118.463     -110.686       21.814      103.286       83.303       58.859    10667.949     6939.308     3464.362        2.391        1.054      162.126       44.447        0.075      342.242       17.513      852.934
10/15/2014  00:20:00       27.879      -31.381       24.538       40.285       73.504       35.272     1622.921     5402.861     1244.106        0.532        0.413       41.976       42.036        1.003      342.254       17.535      852.949
10/15/2014  00:21:00        0.852       -5.934       38.022       54.566       57.470       37.517     2977.459     3302.792     1407.508        0.458        0.384        5.995       43.590       52.862      342.155       17.366      852.970
10/15/2014  00:22:00       40.536      -96.985       23.906       64.307      145.198       73.612     4135.354    21082.481     5418.670        2.112        1.532      105.115       93.148        0.785      342.200       17.442      852.962
10/15/2014  00:23:00        8.086     -143.717      -11.068       65.438       84.311       38.886     4282.084     7108.404     1512.151        1.687        0.645      143.944       38.242        0.071      342.339       17.677      853.015
10/15/2014  00:24:00      134.116       65.757       99.215      114.460      125.572       88.025    13101.018    15768.333     7748.364        3.438        1.831      149.369       84.330        0.319      342.269       17.559      853.028
10/15/2014  00:25:00      119.667      -81.699       15.093      108.604      160.330       95.556    11794.757    25705.658     9130.940        3.392        2.332      144.896      111.071        0.588      342.357       17.706      853.039
10/15/2014  00:26:00       12.395      -44.970       14.149       50.549       60.365       40.533     2555.237     3643.984     1642.888        0.511        0.392       46.647       33.325        0.510      342.280       17.578      853.073
10/15/2014  00:27:00      121.748        4.209       19.978       55.699       67.390       47.671     3102.344     4541.368     2272.488        1.258        0.496      121.821       46.998        0.149      342.342       17.683      853.016
10/15/2014  00:28:00       75.557       46.355       41.756       52.689       38.289       40.460     2776.135     1466.010     1637.009        0.774        0.294       88.643       26.503        0.089      342.151       17.362      853.040
10/15/2014  00:29:00       71.769      -51.662       37.749       84.092      109.875       54.533     7071.402    12072.416     2973.895        1.568        1.106       88.429       65.746        0.553      342.217       17.472      853.054
10/15/2014  00:30:00      -11.392       26.621       52.433       54.947       43.650       42.317     3019.139     1905.317     1790.689        0.515        0.336       28.956       29.059        1.007      342.187       17.421      853.085
10/15/2014  00:31:00       46.690       18.074       58.894       61.443       53.977       45.926     3775.190     2913.552     2109.230        0.739        0.440       50.067       47.578        0.903      342.198       17.440      853.100
10/15/2014  00:32:00      104.899      -62.919       32.750       92.265       97.841       66.554     8512.746     9572.787     4429.435        1.927        1.126      122.321       66.759        0.298      342.230       17.493      853.131
10/15/2014  00:33:00       91.085      -49.017       32.640       88.543      102.556       73.512     7839.945    10517.687     5404.052        1.776        1.188      103.437       78.759        0.580      342.231       17.494      853.116
10/15/2014  00:34:00        8.589       56.317       22.186       57.572       42.687       42.584     3314.486     1822.206     1813.434        0.534        0.348       56.968       24.546        0.186      342.272       17.565      853.062
10/15/2014  00:35:00       31.656      -59.187        8.593       65.672       75.974       47.981     4312.847     5772.053     2302.207        0.848        0.619       67.121       26.693        0.158      342.312       17.634      853.082
10/15/2014  00:36:00       60.239     -142.700        2.236       94.967       86.324       43.363     9018.693     7451.912     1880.367        2.117        0.918      154.894       43.500        0.079      342.313       17.633      853.011
10/15/2014  00:37:00       11.548      -70.734        3.694       62.640       65.398       30.783     3923.823     4276.932      947.612        0.715        0.457       71.670       28.851        0.162      342.330       17.664      852.979
10/15/2014  00:38:00       38.990     -138.116      -12.055       73.517       58.697       32.753     5404.761     3445.370     1072.790        1.533        0.496      143.514       11.192        0.006      342.271       17.563      853.008
10/15/2014  00:39:00      116.601      -37.027       96.426      124.418      209.844      128.620    15479.725    44034.458    16543.124        5.015        3.803      122.339      155.720        1.620      342.253       17.530      853.031
10/15/2014  00:40:00       81.501        5.002      113.079      112.913      176.877      108.647    12749.278    31285.580    11804.129        3.764        2.792       81.654      121.163        2.202      342.226       17.485      853.030
10/15/2014  00:41:00       55.810       35.004      116.143      105.232      142.973       94.691    11073.769    20441.355     8966.360        2.915        2.024       65.879      107.292        2.652      342.240       17.510      853.067
10/15/2014  00:42:00       71.973      -44.842       50.952       74.676      117.761       73.581     5576.575    13867.607     5414.111        1.732        1.243       84.799       83.255        0.964      342.275       17.570      853.047
10/15/2014  00:43:00       -9.501     -166.139       12.626      110.504       84.540       70.408    12211.093     7147.070     4957.337        2.608        1.216      166.411       38.849        0.055      342.279       17.575      853.118
10/15/2014  00:44:00      -69.130        2.714      -19.663       56.281       70.043       46.760     3167.545     4906.002     2186.534        0.771        0.513       69.183       31.061        0.202      342.192       17.428      853.177
10/15/2014  00:45:00     -118.467        4.301      -22.107       40.964       66.044       23.886     1678.014     4361.766      570.523        1.057        0.331      118.545       31.875        0.072      342.097       17.268      853.166
10/15/2014  00:46:00     -201.303       53.364      -24.134       37.409       63.305       27.256     1399.453     4007.565      742.912        2.505        0.307      208.257       23.374        0.013      342.228       17.489      853.212
10/15/2014  00:47:00      -62.987      114.089       -1.369       85.418       93.704       46.086     7296.268     8780.514     2123.904        1.759        0.910      130.322       48.404        0.138      342.171       17.392      853.208
10/15/2014  00:48:00      -16.462       67.851       -1.599       58.254       57.501       31.821     3393.576     3306.364     1012.556        0.629        0.386       69.820       27.679        0.157      342.174       17.400      853.209
10/15/2014  00:49:00       65.964       81.610       53.747       72.474       99.826       71.412     5252.527     9965.237     5099.650        1.711        1.016      104.935       61.908        0.348      342.166       17.384      853.293
10/15/2014  00:50:00       84.974     -102.514       -5.194       98.841      138.335       43.765     9769.493    19136.449     1915.378        2.428        1.541      133.153       58.928        0.196      342.204       17.448      853.294
10/15/2014  00:51:00      188.900      152.847      125.742      121.267      151.144      110.799    14705.630    22844.617    12276.358        6.233        2.491      242.993      108.552        0.200      342.206       17.450      853.282
10/15/2014  00:52:00      151.994       76.338       29.468       56.220       46.195       34.198     3160.743     2134.024     1169.489        1.813        0.323      170.087       18.916        0.012      342.336       17.672      853.207
10/15/2014  00:53:00       22.629       57.352        2.210       31.855       29.030       22.538     1014.716      842.760      507.953        0.309        0.118       61.655       13.485        0.048      342.302       17.616      853.256
10/15/2014  00:54:00      150.327       84.065       70.886       98.042       88.003       82.968     9612.210     7744.605     6883.741        2.946        1.212      172.236       58.704        0.116      342.182       17.410      853.321
10/15/2014  00:55:00       86.247       73.871       99.504       91.115       83.912       65.182     8301.950     7041.140     4248.662        2.119        0.980      113.558       39.488        0.121      342.117       17.302      853.322
10/15/2014  00:56:00      106.071       60.193       55.147       93.223       62.775       51.469     8690.528     3940.704     2649.010        1.660        0.764      121.960       39.995        0.108      342.332       17.667      853.344
10/15/2014  00:57:00      110.366       87.806        4.639       53.047       33.584       30.607     2813.974     1127.911      936.818        1.239        0.244      141.034       18.543        0.017      341.973       17.058      853.428
10/15/2014  00:58:00       16.293       81.602       -7.540       26.141       66.721       23.801      683.345     4451.742      566.471        0.634        0.285       83.213       34.909        0.176      341.978       17.066      853.480
10/15/2014  00:59:00      -73.250       26.966      -13.959       44.404       29.993       22.452     1971.756      899.569      504.072        0.483        0.169       78.056       21.944        0.079      342.050       17.188      853.504
10/15/2014  01:00:00     -130.041       -4.624      -11.821       49.791       38.137       27.713     2479.108     1454.420      767.997        1.089        0.235      130.123       21.265        0.027      342.224       17.483      853.498
10/15/2014  01:01:00      -73.985      -79.854       22.547       92.448       77.431       53.510     8546.640     5995.576     2863.367        1.488        0.870      108.859       54.800        0.253      342.113       17.294      853.448
10/15/2014  01:02:00      -94.051      -87.297       -7.728       71.585       50.018       32.935     5124.388     2501.795     1084.714        1.262        0.436      128.321       20.685        0.026      342.036       17.163      853.424
10/15/2014  01:03:00      -18.862       15.309       34.893       28.645       48.902       61.385      820.528     2391.444     3768.064        0.439        0.349       24.293       45.208        3.463      342.083       17.244      853.439
10/15/2014  01:04:00       31.671       69.958      112.994       90.103       71.613       60.598     8118.640     5128.425     3672.117        1.779        0.846       76.793       57.600        0.563      342.175       17.398      853.463
10/15/2014  01:05:00      116.704      132.505      139.798      102.421       92.881       72.390    10490.162     8626.904     5240.287        3.753        1.218      176.571       79.536        0.203      342.137       17.332      853.470
10/15/2014  01:06:00      191.305      106.396       66.001       78.684       79.068       76.089     6191.199     6251.684     5789.481        3.525        0.912      218.901       68.367        0.098      342.231       17.493      853.464
10/15/2014  01:07:00       69.992        6.153       14.049       76.509      114.531       57.278     5853.692    13117.407     3280.825        1.369        1.113       70.262       56.174        0.639      342.271       17.562      853.456
10/15/2014  01:08:00       44.998       16.502       86.242      120.560      157.519       99.139    14534.619    24812.164     9828.462        2.945        2.459       47.928      102.611        4.584      342.178       17.403      853.472
10/15/2014  01:09:00      -41.575       -2.637       61.427       53.901      121.681       59.797     2905.317    14806.375     3575.732        1.339        1.064       41.658       70.216        2.841      342.089       17.254      853.469
10/15/2014  01:10:00       41.553       -3.577       25.947       75.316       88.041       47.112     5672.545     7751.276     2219.529        0.903        0.782       41.707       42.488        1.038      342.173       17.396      853.448
10/15/2014  01:11:00      127.105       75.417       49.260       85.115       64.658       64.465     7244.560     4180.651     4155.775        1.992        0.779      147.795       39.246        0.071      342.095       17.263      853.457
10/15/2014  01:12:00      100.502       44.753       39.795       47.624       43.111       43.329     2268.018     1858.598     1877.417        0.984        0.300      110.016       32.592        0.088      342.072       17.227      853.480
10/15/2014  01:13:00       52.091       43.722       26.502       37.711       34.200       43.608     1422.121     1169.621     1901.648        0.491        0.225       68.008       28.125        0.171      342.070       17.223      853.457
10/15/2014  01:14:00        5.569       55.056      -10.028       34.535       25.773       14.335     1192.654      664.268      205.491        0.261        0.103       55.337       11.276        0.042      341.978       17.068      853.438
10/15/2014  01:15:00      -12.887       25.372      -12.378       11.054       24.591       10.227      122.184      604.725      104.584        0.090        0.042       28.457       13.622        0.229      342.023       17.147      853.455
10/15/2014  01:16:00      -19.407      -35.100       -5.521       27.994       19.677       15.267      783.689      387.189      233.082        0.152        0.070       40.108       11.028        0.076      341.937       16.998      853.491
10/15/2014  01:17:00       -2.200      -26.381        4.302       28.428       20.168       19.313      808.163      406.741      372.986        0.115        0.079       26.472       13.715        0.268      341.981       17.072      853.523
10/15/2014  01:18:00       -6.163      -13.414       -2.418       22.432       17.084        9.087      503.175      291.859       82.565        0.055        0.044       14.763       10.101        0.468      342.043       17.177      853.565
10/15/2014  01:19:00       16.316       -4.121        7.503       34.484       41.075       29.875     1189.142     1687.151      892.534        0.205        0.188       16.828       26.297        2.442      342.078       17.236      853.580
10/15/2014  01:20:00      -46.931       84.317      -11.881       42.735       43.859       25.503     1826.248     1923.609      650.397        0.693        0.220       96.498       12.950        0.018      342.142       17.343      853.543
10/15/2014  01:21:00        5.340       13.725       18.948       12.995       21.658       24.512      168.868      469.052      600.851        0.091        0.062       14.728       12.681        0.741      342.007       17.115      853.561
10/15/2014  01:22:00      -30.096        3.900       27.491       34.122       21.599       20.441     1164.309      466.504      417.850        0.186        0.102       30.348       19.638        0.419      342.020       17.137      853.600
10/15/2014  01:23:00       -6.702        8.030       25.383       22.794       21.145       25.503      519.558      447.096      650.401        0.119        0.081       10.459       13.398        1.641      342.091       17.257      853.588
10/15/2014  01:24:00      -25.538       49.789       -7.709       33.166       55.152       29.451     1099.991     3041.703      867.358        0.410        0.250       55.957       19.201        0.118      342.112       17.293      853.587
10/15/2014  01:25:00        0.447      104.134      -12.783       37.162       62.205       22.121     1381.015     3869.435      489.354        0.837        0.287      104.135       25.608        0.060      341.937       16.997      853.593
10/15/2014  01:26:00       28.501      149.551      -20.735       52.699       75.693       39.715     2777.235     5729.471     1577.264        1.684        0.504      152.242       40.768        0.072      341.833       16.820      853.626
10/15/2014  01:27:00      116.958      103.891        8.332       94.591       54.530       47.177     8947.422     2973.524     2225.681        1.934        0.707      156.437       36.060        0.053      341.890       16.915      853.648
10/15/2014  01:28:00      151.902      103.596       19.186       56.220       40.248       45.644     3160.704     1619.891     2083.347        2.052        0.343      183.866       29.857        0.026      341.940       17.001      853.661
10/15/2014  01:29:00      113.973       85.529       -4.819       30.511       27.044       25.378      930.943      731.369      644.021        1.132        0.115      142.496       12.259        0.007      341.914       16.958      853.688
10/15/2014  01:30:00      169.294      111.615       36.992       67.198       59.403       41.957     4515.591     3528.714     1760.394        2.614        0.490      202.777       15.747        0.006      341.969       17.050      853.617
10/15/2014  01:31:00       64.175      101.243      -10.314       64.771       54.158       45.231     4195.345     2933.043     2045.867        1.182        0.459      119.869       36.411        0.092      341.997       17.098      853.589
10/15/2014  01:32:00       49.993      137.186       -9.477       55.071       81.516       44.908     3032.841     6644.854     2016.760        1.655        0.585      146.012       43.512        0.089      341.815       16.790      853.586
10/15/2014  01:33:00       26.368       47.910        3.180       45.053       36.412       26.051     2029.763     1325.829      678.670        0.352        0.202       54.687       21.193        0.150      341.722       16.633      853.613
10/15/2014  01:34:00        2.265       74.142      -13.010       44.453       67.189       22.375     1976.064     4514.301      500.646        0.633        0.350       74.177       27.195        0.134      341.712       16.615      853.633
10/15/2014  01:35:00       48.160       74.317        7.833       58.965       68.930       51.494     3476.881     4751.296     2651.622        0.939        0.544       88.557       43.909        0.246      341.910       16.950      853.646
10/15/2014  01:36:00       80.136       56.884        1.720       49.767       40.787       33.437     2476.743     1663.547     1118.042        0.746        0.263       98.273       30.111        0.094      341.804       16.770      853.654
10/15/2014  01:37:00       65.396       81.046       25.624       38.010       26.846       40.250     1444.741      720.704     1620.046        0.764        0.189      104.140       17.441        0.028      341.834       16.821      853.642
10/15/2014  01:38:00       26.175      -78.444        7.754       30.706       51.550       35.124      942.887     2657.378     1233.690        0.587        0.242       82.696       31.633        0.146      341.752       16.683      853.634
10/15/2014  01:39:00        5.190       26.194        6.342       37.365       42.786       21.903     1396.173     1830.619      479.727        0.223        0.185       26.703       16.041        0.361      341.682       16.564      853.622
10/15/2014  01:40:00       55.095       39.464       13.897       51.406       33.630       38.654     2642.617     1131.004     1494.143        0.503        0.263       67.770       26.593        0.154      341.630       16.476      853.581
10/15/2014  01:41:00       69.476       37.220       -0.886       38.298       26.448       25.633     1466.739      699.483      657.025        0.452        0.141       78.818       21.805        0.077      341.583       16.396      853.565
10/15/2014  01:42:00       26.964       36.452       -5.826       35.357       24.455       20.205     1250.106      598.064      408.258        0.217        0.113       45.341       18.284        0.163      341.513       16.278      853.588
10/15/2014  01:43:00      -22.000       55.677       -7.303       30.752       47.420       14.189      945.658     2248.644      201.326        0.352        0.170       59.866       13.330        0.050      341.518       16.287      853.623
10/15/2014  01:44:00     -108.271      -26.550       -9.869       24.393       23.175       13.822      595.030      537.086      191.035        0.692        0.066      111.479       10.934        0.010      341.380       16.053      853.644
10/15/2014  01:45:00     -131.582      -68.662       -5.443       43.645       31.808       20.972     1904.900     1011.766      439.817        1.271        0.168      148.419       10.644        0.005      341.510       16.272      853.651
10/15/2014  01:46:00     -119.087      -23.661       -4.102       47.851       30.212       22.799     2289.729      912.777      519.780        0.924        0.186      121.415       21.377        0.031      341.447       16.166      853.646
10/15/2014  01:47:00      -40.799       -1.576      -12.931       54.183       29.800       23.112     2935.836      888.021      534.166        0.310        0.218       40.829       13.790        0.114      341.473       16.210      853.660
10/15/2014  01:48:00      -83.080       19.417      -10.197       29.744       41.383       20.389      884.731     1712.589      415.715        0.520        0.151       85.319       15.113        0.031      341.449       16.168      853.681
10/15/2014  01:49:00     -122.132       86.797      -26.295       58.231       42.851       26.903     3390.883     1836.241      723.791        1.455        0.298      149.833       30.990        0.043      341.489       16.236      853.694
10/15/2014  01:50:00     -113.722      140.855      -26.773       38.134       41.439       25.084     1454.209     1717.185      629.205        1.864        0.190      181.033       20.700        0.013      341.535       16.315      853.697
10/15/2014  01:51:00     -114.519      141.392      -36.215       35.993       36.644       24.091     1295.473     1342.778      580.357        1.882        0.161      181.951       17.109        0.009      341.577       16.385      853.685
10/15/2014  01:52:00      -16.987      221.440      -19.705       51.748       98.384       34.982     2677.819     9679.342     1223.720        3.164        0.679      222.090       39.392        0.031      341.552       16.341      853.665
10/15/2014  01:53:00      -53.704      102.628      -17.676       80.440       78.513       49.002     6470.557     6164.329     2401.157        1.438        0.752      115.830       47.270        0.167      341.525       16.297      853.658
10/15/2014  01:54:00      -47.926      104.568       -6.883       43.436       96.844       37.714     1886.658     9378.775     1422.312        1.298        0.634      115.028       25.651        0.050      341.697       16.588      853.652
10/15/2014  01:55:00     -112.540      -15.441      -12.850       49.540       58.061       27.051     2454.214     3371.114      731.751        0.981        0.328      113.594       13.698        0.015      341.575       16.384      853.620
10/15/2014  01:56:00     -135.840       13.147      -10.935       76.635       73.327       36.693     5872.908     5376.787     1346.406        1.567        0.630      136.474       29.886        0.048      341.482       16.225      853.593
10/15/2014  01:57:00      -86.071       38.417      -10.085       49.399       44.347       29.817     2440.298     1966.641      889.039        0.714        0.265       94.256       23.375        0.061      341.507       16.268      853.562
10/15/2014  01:58:00     -144.475       40.438       -8.318       77.658       51.350       43.051     6030.791     2636.865     1853.353        1.655        0.526      150.027       43.265        0.083      341.545       16.330      853.528
10/15/2014  01:59:00     -198.707       -9.173      -17.335       65.740       51.645       31.123     4321.812     2667.182      968.635        2.391        0.398      198.919       29.212        0.022      341.612       16.443      853.496
10/15/2014  02:00:00     -193.296      -23.735      -19.926       43.158       44.850       27.482     1862.587     2011.529      755.233        2.148        0.231      194.748       17.955        0.009      341.748       16.674      853.490
10/15/2014  02:01:00     -248.935       -3.200       -2.213      111.534       87.825       48.947    12439.803     7713.243     2395.806        4.226        1.127      248.956       49.645        0.040      341.640       16.489      853.472
10/15/2014  02:02:00     -121.997       47.663       -3.177      143.002       54.337       37.867    20449.582     2952.468     1433.931        2.100        1.242      130.977       62.790        0.230      341.712       16.613      853.427
10/15/2014  02:03:00     -114.551       55.265      -14.213       56.966       42.984       23.395     3245.182     1847.584      547.336        1.101        0.282      127.186       10.878        0.007      341.716       16.623      853.376
10/15/2014  02:04:00     -132.854       25.467        3.273       67.752       69.873       41.278     4590.386     4882.218     1703.880        1.474        0.559      135.273       30.313        0.050      341.688       16.573      853.357
10/15/2014  02:05:00     -314.590       67.400      -14.803      125.792      101.395       58.670    15823.621    10281.035     3442.202        6.663        1.477      321.729       56.166        0.030      341.592       16.409      853.379
10/15/2014  02:06:00      -91.358       89.383       -8.835       63.666       58.409       33.337     4053.304     3411.555     1111.366        1.249        0.429      127.810       35.680        0.078      341.614       16.449      853.411
10/15/2014  02:07:00      -43.593       76.343      -10.363       82.984       71.402       41.168     6886.313     5098.300     1694.842        1.076        0.684       87.913       37.143        0.179      341.695       16.585      853.376
10/15/2014  02:08:00      -65.243      115.991        2.416       75.840       83.899       48.810     5751.761     7038.981     2382.450        1.644        0.759      133.081       39.063        0.086      341.574       16.380      853.307
10/15/2014  02:09:00     -120.918      188.763      -31.463       68.026       51.125       31.576     4627.579     2613.756      997.024        2.974        0.412      224.171       31.010        0.019      341.666       16.533      853.304
10/15/2014  02:10:00      -76.500       83.011        6.708       65.169       53.861       42.117     4247.014     2900.971     1773.853        1.085        0.446      112.885       42.494        0.142      341.599       16.422      853.328
10/15/2014  02:11:00       82.502       44.804        8.100       70.002       32.862       32.493     4900.285     1079.926     1055.803        0.796        0.352       93.883       27.973        0.089      341.516       16.281      853.309
10/15/2014  02:12:00      184.753       98.209        3.533       63.415       40.554       39.988     4021.502     1644.641     1599.044        2.553        0.363      209.234       16.902        0.007      341.362       16.019      853.269
10/15/2014  02:13:00       37.952       62.495        1.537       51.554       41.721       45.346     2657.770     1740.605     2056.255        0.590        0.323       73.116       34.230        0.219      341.341       15.986      853.248
10/15/2014  02:14:00       44.484      104.660      -14.793       44.257       61.294       38.999     1958.680     3756.989     1520.940        1.019        0.362      113.721       36.206        0.101      341.369       16.033      853.232
10/15/2014  02:15:00       13.218      136.455      -25.460       30.543       38.831       28.826      932.883     1507.861      830.945        1.136        0.164      137.094       25.451        0.034      341.427       16.131      853.236
10/15/2014  02:16:00      -15.300       94.293      -15.424       37.090       45.264       20.107     1375.677     2048.866      404.286        0.660        0.191       95.526       24.565        0.066      341.519       16.286      853.253
10/15/2014  02:17:00      -53.940       97.707       -8.224       41.540       74.394       28.365     1725.592     5534.491      804.595        1.029        0.403      111.607       22.244        0.040      341.556       16.349      853.254
10/15/2014  02:18:00      -89.043       90.405      -10.496       40.260       45.178       28.438     1620.904     2041.061      808.730        1.034        0.224      126.893       21.565        0.029      341.540       16.324      853.258
10/15/2014  02:19:00     -135.264       70.721      -21.681       50.035       53.199       27.362     2503.470     2830.116      748.688        1.492        0.304      152.636       18.031        0.014      341.542       16.327      853.281
10/15/2014  02:20:00     -141.960        7.174       -8.737       47.996       41.260       27.929     2303.653     1702.377      780.028        1.253        0.239      142.141       27.810        0.038      341.439       16.151      853.286
10/15/2014  02:21:00     -202.890       14.985      -18.872       53.785       59.306       30.958     2892.877     3517.182      958.367        2.456        0.368      203.442       28.782        0.020      341.421       16.119      853.283
10/15/2014  02:22:00      -81.823      112.491       -7.137       61.593       72.640       38.297     3793.754     5276.501     1466.673        1.497        0.527      139.101       37.514        0.073      341.557       16.351      853.347
10/15/2014  02:23:00     -141.138      248.822      -36.435       98.514       83.691       53.299     9705.094     7004.113     2840.830        5.135        0.978      286.063       45.445        0.025      341.678       16.554      853.372
10/15/2014  02:24:00      -26.177      249.898      -43.290       66.815       53.266       30.646     4464.185     2837.246      939.170        3.662        0.412      251.265       23.966        0.009      341.815       16.785      853.387
10/15/2014  02:25:00      -48.154       91.569       -9.192       75.051      136.664       35.237     5632.599    18677.116     1241.643        1.817        1.278      103.459       42.584        0.169      341.740       16.662      853.361
10/15/2014  02:26:00     -193.776      -37.345      -26.441       67.757       84.434       39.292     4590.945     7129.174     1543.857        2.645        0.663      197.342       31.293        0.025      341.733       16.646      853.345
10/15/2014  02:27:00     -150.816       50.020      -10.483       69.940       39.207       21.915     4891.536     1537.198      480.288        1.613        0.345      158.894       23.709        0.022      341.686       16.569      853.367
10/15/2014  02:28:00       -2.536        4.112        8.434       16.756       25.745       13.121      280.762      662.823      172.159        0.060        0.056        4.831       11.377        5.546      341.617       16.454      853.394
10/15/2014  02:29:00     -184.184      -41.073      -14.129      103.863       71.763       33.400    10787.498     5149.991     1115.552        2.643        0.853      188.708       40.502        0.046      341.634       16.480      853.415
10/15/2014  02:30:00     -280.102       59.529      -30.551      118.858      112.013       50.270    14127.175    12546.914     2527.081        5.606        1.460      286.357       59.106        0.043      341.563       16.358      853.373
10/15/2014  02:31:00     -272.257       83.950      -32.391       73.634       83.717       43.308     5422.023     7008.602     1875.591        4.826        0.715      284.906       31.838        0.012      341.553       16.341      853.352
10/15/2014  02:32:00     -281.752     -119.389      -17.440      130.286      109.487       53.312    16974.458    11987.316     2842.203        6.287        1.590      306.003       22.036        0.005      341.550       16.337      853.354
10/15/2014  02:33:00     -314.251      -35.504      -14.104      160.101      125.277       64.062    25632.337    15694.446     4103.935        7.281        2.272      316.250       68.398        0.047      341.562       16.358      853.354
10/15/2014  02:34:00     -226.163     -127.106       10.971      133.486       84.130       56.717    17818.525     7077.879     3216.827        4.776        1.406      259.433       62.760        0.059      341.707       16.603      853.395
10/15/2014  02:35:00     -151.665      -33.029        1.783       87.831       57.315       34.937     7714.320     3285.027     1220.561        1.816        0.611      155.220       37.557        0.059      341.675       16.551      853.493
10/15/2014  02:36:00     -176.785      -51.127      -18.772       78.306       64.533       37.059     6131.861     4164.519     1373.404        2.294        0.583      184.030       38.268        0.043      341.745       16.668      853.569
10/15/2014  02:37:00     -156.808      -12.038      -10.155       75.053       50.843       26.103     5632.993     2585.029      681.392        1.687        0.445      157.270       29.462        0.035      341.685       16.569      853.579
10/15/2014  02:38:00     -170.269      -41.984      -14.179       48.595       55.463       31.030     2361.515     3076.105      962.884        1.868        0.320      175.369       24.850        0.020      341.662       16.531      853.617
10/15/2014  02:39:00     -142.386       59.485      -14.556       68.690       77.101       42.302     4718.266     5944.596     1789.424        1.824        0.623      154.312       32.368        0.044      341.632       16.478      853.659
10/15/2014  02:40:00      -78.320      112.774        7.480      118.834       75.757       68.149    14121.563     5739.054     4644.245        2.170        1.225      137.303       60.077        0.191      341.704       16.600      853.677
10/15/2014  02:41:00      167.589      143.911       31.737       90.281       79.362       73.146     8150.606     6298.251     5350.295        3.480        0.990      220.899       51.693        0.055      341.703       16.595      853.644
10/15/2014  02:42:00       32.078      246.208      -20.112      161.307      134.794       81.438    26019.807    18169.359     6632.067        5.643        2.541      248.289       76.028        0.094      341.738       16.655      853.526
10/15/2014  02:43:00      -47.198       25.623       -7.456       51.883      158.832       59.181     2691.821    25227.636     3502.424        1.718        1.571       53.705       29.843        0.309      341.804       16.768      853.531
10/15/2014  02:44:00      -38.535      106.927      -23.109       43.269      105.068       31.117     1872.240    11039.300      968.289        1.366        0.694      113.659       34.192        0.090      341.669       16.541      853.594
10/15/2014  02:45:00        6.172      127.911      -18.789       30.067       32.808       17.592      904.041     1076.334      309.482        0.952        0.114      128.059       17.392        0.018      341.569       16.373      853.642
10/15/2014  02:46:00      -93.683       36.018       -9.657       32.221       23.462       16.986     1038.196      550.473      288.518        0.602        0.094      100.369        6.107        0.004      341.470       16.205      853.642
10/15/2014  02:47:00     -122.089       14.950      -16.524       50.120       36.368       22.122     2511.966     1322.667      489.379        0.986        0.216      123.001       19.206        0.024      341.556       16.350      853.634
10/15/2014  02:48:00     -127.736       39.373       -5.091       76.822       56.473       30.519     5901.554     3189.153      931.439        1.396        0.501      133.666       30.069        0.051      341.513       16.275      853.605
10/15/2014  02:49:00      -53.746       92.811      -16.361       37.069       36.342       27.415     1374.090     1320.719      751.599        0.761        0.172      107.250       16.565        0.024      341.546       16.334      853.611
10/15/2014  02:50:00      -35.138       85.773      -16.666       38.083       20.019       11.549     1450.327      400.774      133.374        0.543        0.099       92.691        9.586        0.011      341.612       16.444      853.634
10/15/2014  02:51:00      -64.203      132.066      -21.934       56.423       43.634       32.417     3183.606     1903.918     1050.864        1.409        0.307      146.845       22.601        0.024      341.536       16.316      853.668
10/15/2014  02:52:00     -113.253       87.976      -22.186       89.610       61.553       30.450     8029.938     3788.782      927.181        1.690        0.637      143.408       17.972        0.016      341.505       16.262      853.668
10/15/2014  02:53:00        0.707      236.839      -27.126       40.462       77.806       36.155     1637.150     6053.747     1307.196        3.291        0.450      236.840       35.775        0.023      341.459       16.183      853.630
10/15/2014  02:54:00      -49.051      325.049      -38.515       63.745       81.369       42.446     4063.446     6620.973     1801.638        6.101        0.624      328.729       42.467        0.017      341.497       16.246      853.616
10/15/2014  02:55:00        6.505      371.434      -54.680       52.463       69.982       31.445     2752.374     4897.469      988.761        7.482        0.432      371.491       25.866        0.005      341.557       16.347      853.624
10/15/2014  02:56:00       12.207      300.086      -43.478       58.099       67.838       37.839     3375.533     4601.968     1431.762        5.075        0.470      300.334       32.048        0.011      341.507       16.263      853.624
10/15/2014  02:57:00       33.766      153.629      -17.125       64.230       76.815       34.193     4125.494     5900.613     1169.148        1.811        0.560      157.296       35.726        0.052      341.452       16.173      853.633
10/15/2014  02:58:00       46.233      177.095      -28.773       45.383       70.016       28.834     2059.593     4902.306      831.419        2.106        0.390      183.030       27.690        0.023      341.512       16.273      853.674
10/15/2014  02:59:00       90.247      127.602       -4.409       61.792       75.083       36.558     3818.213     5637.457     1336.472        1.762        0.540      156.291       46.025        0.087      341.620       16.458      853.664
10/15/2014  03:00:00      158.115       92.723       27.336       99.034       60.159       50.644     9807.780     3619.076     2564.849        2.517        0.800      183.297       31.711        0.030      341.531       16.304      853.496
10/15/2014  03:01:00       53.424       63.400       -0.851       85.207       64.135       45.764     7260.151     4113.341     2094.332        1.017        0.673       82.908       39.617        0.228      341.456       16.181      853.458
10/15/2014  03:02:00       34.882      232.196      -24.023       64.156      161.509       49.763     4116.031    26085.121     2476.310        4.419        1.634      234.802       70.654        0.091      341.483       16.224      853.505
10/15/2014  03:03:00       29.611      332.571      -39.337       75.618      146.917       66.181     5718.101    21584.577     4379.873        7.235        1.584      333.887       74.416        0.050      341.529       16.302      853.424
10/15/2014  03:04:00      -87.818      216.348      -27.684       75.883       79.945       40.134     5758.187     6391.202     1610.740        3.452        0.688      233.492       34.780        0.022      341.497       16.247      853.499
10/15/2014  03:05:00       63.662       84.687       10.706       75.865       99.637       38.204     5755.556     9927.527     1459.515        1.424        0.857      105.947       49.872        0.222      341.493       16.243      853.458
10/15/2014  03:06:00       15.319       96.391       19.816       73.667       68.468       44.984     5426.894     4687.819     2023.531        1.103        0.607       97.601       39.768        0.166      341.458       16.183      853.527
10/15/2014  03:07:00       21.329       39.930       78.263       49.991      104.056       68.642     2499.106    10827.592     4711.670        1.310        0.902       45.269       68.889        2.316      341.438       16.150      853.497
10/15/2014  03:08:00       21.529        6.232      101.853       63.581      118.334       63.446     4042.605    14002.890     4025.436        1.647        1.104       22.413       58.875        6.900      341.405       16.095      853.418
10/15/2014  03:09:00       23.010       64.130       79.646       47.874       85.157       59.175     2291.883     7251.789     3501.732        1.201        0.652       68.133       57.304        0.707      341.382       16.053      853.417
10/15/2014  03:10:00       50.194     -164.556        5.631       75.010      101.150       37.535     5626.541    10231.302     1408.902        2.345        0.863      172.041       32.807        0.036      341.547       16.333      853.568
10/15/2014  03:11:00       26.035     -196.240      -14.608       96.134       62.140       47.173     9241.791     3861.422     2225.295        2.736        0.766      197.959       38.115        0.037      341.663       16.530      853.664
10/15/2014  03:12:00     -170.628      -44.383       19.140      295.680      123.771      105.166    87426.517    15319.382    11059.943        7.261        5.690      176.306      129.493        0.539      341.593       16.411      853.597
10/15/2014  03:13:00     -136.593       56.833       14.451      154.815      106.693       68.577    23967.583    11383.427     4702.864        3.107        2.003      147.945       60.737        0.169      341.516       16.281      853.562
10/15/2014  03:14:00     -265.871      -89.241      -24.567      134.273      109.899       50.342    18029.113    12077.790     2534.280        5.594        1.632      280.449       37.101        0.018      341.529       16.303      853.531
10/15/2014  03:15:00      -90.556     -129.903       26.909      219.516      152.230       83.225    48187.128    23174.022     6926.355        5.203        3.914      158.352       72.184        0.208      341.522       16.290      853.388
10/15/2014  03:16:00     -303.863     -140.189       11.717      245.571      202.578       94.984    60305.065    41037.745     9022.038       11.123        5.518      334.642      112.659        0.113      341.493       16.240      853.361
10/15/2014  03:17:00     -247.876     -321.782      -12.798      155.473      231.255       81.387    24171.923    53478.951     6623.893       12.470        4.214      406.185       86.712        0.046      341.544       16.327      853.502
10/15/2014  03:18:00      -68.816     -186.364       -8.085      105.474      133.737       71.226    11124.831    17885.602     5073.143        3.680        1.704      198.663       56.688        0.081      341.509       16.268      853.459
10/15/2014  03:19:00      107.413     -154.798       -0.142      140.037       88.482       52.139    19610.281     7829.010     2718.479        3.282        1.508      188.414       48.087        0.065      341.544       16.326      853.427
10/15/2014  03:20:00       78.615     -155.582      -32.783      106.150      156.553       61.644    11267.746    24508.880     3799.969        3.551        1.979      174.316       83.748        0.231      341.529       16.301      853.491
10/15/2014  03:21:00      114.122       72.286      175.934      113.864      216.016      143.160    12965.112    46662.857    20494.690        6.465        4.006      135.089      165.929        1.509      341.538       16.318      853.397
10/15/2014  03:22:00      141.405     -209.207      -22.587      132.552      118.844       76.120    17570.024    14123.884     5794.257        5.087        1.874      252.513       85.879        0.116      341.523       16.291      853.418
10/15/2014  03:23:00       63.380     -173.789        9.578      113.149      175.972       75.819    12802.740    30966.201     5748.500        4.191        2.476      184.986       88.305        0.228      341.520       16.287      853.484
10/15/2014  03:24:00     -158.181     -221.900      -26.793      163.370      121.539       78.681    26689.801    14771.715     6190.726        6.131        2.383      272.508       57.178        0.044      341.512       16.272      853.472
10/15/2014  03:25:00      -13.433      -36.508       30.501      142.785      108.117       70.986    20387.427    11689.248     5039.055        1.977        1.856       38.901       74.555        3.673      341.559       16.354      853.392
10/15/2014  03:26:00      134.329     -169.854        4.405      148.229      191.893       95.791    21971.717    36822.996     9175.977        5.743        3.399      216.552      114.086        0.278      341.526       16.297      853.328
10/15/2014  03:27:00      -42.140     -179.832      -19.657       92.760      113.368       58.081     8604.395    12852.201     3373.421        2.966        1.242      184.703       56.478        0.093      341.548       16.334      853.545
10/15/2014  03:28:00       -4.424     -133.676      -20.221      139.572      105.150       60.358    19480.295    11056.424     3643.049        2.623        1.709      133.749       40.100        0.090      341.527       16.297      853.572
10/15/2014  03:29:00     -144.954     -303.454        3.992      241.782      256.225      117.780    58458.621    65651.218    13872.062       12.552        6.899      336.298      113.099        0.113      341.494       16.242      853.811
10/15/2014  03:30:00      -26.961     -322.030        6.221      237.169      235.764      116.397    56249.172    55584.791    13548.320       11.490        6.269      323.157      101.092        0.098      341.410       16.100      853.695
10/15/2014  03:31:00     -196.414     -200.700       18.220      200.362      172.360       92.266    40144.837    29707.871     8513.047        7.877        3.918      280.818      100.238        0.127      341.359       16.014      853.501
10/15/2014  03:32:00      -39.560       16.860        5.020      115.366      114.293       42.479    13309.210    13062.937     1804.432        1.502        1.409       43.003       42.184        0.962      341.378       16.047      853.444
10/15/2014  03:33:00     -147.756      -71.431       11.535      136.835      125.867       68.565    18723.793    15842.618     4701.131        3.316        1.963      164.117       85.126        0.269      341.340       15.984      853.456
10/15/2014  03:34:00     -117.578      -37.815        8.969      101.160       91.270       47.750    10233.343     8330.140     2280.022        1.809        1.042      123.509       45.551        0.136      341.284       15.890      853.411
10/15/2014  03:35:00       -2.872       78.219      -10.220       76.456       55.414       45.692     5845.466     3070.673     2087.719        0.862        0.550       78.272       48.056        0.377      341.287       15.895      853.490
10/15/2014  03:36:00       31.548       28.380       -8.552       89.932       44.267       29.181     8087.839     1959.601      851.509        0.638        0.545       42.435       18.464        0.189      341.292       15.901      853.533
10/15/2014  03:37:00       67.240       -7.327       57.084       75.899      142.899       77.878     5760.653    20420.043     6065.003        2.003        1.612       67.638       91.895        1.846      341.282       15.884      853.631
10/15/2014  03:38:00       -4.930     -322.657      -38.367      144.172      200.298       88.806    20785.586    40119.119     7886.521        8.719        3.440      322.695       72.850        0.051      341.381       16.049      853.845
10/15/2014  03:39:00     -311.058     -268.527        6.694      407.309      282.511      119.158   165900.920    79812.358    14198.705       21.437       12.996      410.930      126.275        0.094      341.384       16.056      853.738
10/15/2014  03:40:00      477.878      356.983       28.335      233.459      202.986      162.567    54502.978    41203.486    26427.969       23.935        6.107      596.493       75.612        0.016      341.276       15.874      853.268
10/15/2014  03:41:00      -20.534      -98.619       -3.212      200.689      143.047       87.885    40276.106    20462.352     7723.714        3.930        3.423      100.734       29.243        0.084      341.310       15.932      853.469
10/15/2014  03:42:00       87.048     -154.600       38.080      140.770      225.849       95.045    19816.207    51007.563     9033.489        5.638        3.993      177.422      117.422        0.438      341.358       16.014      853.751
10/15/2014  03:43:00      -13.076       64.005      187.935      131.291      212.012      141.101    17237.223    44949.179    19909.618        6.083        4.105       65.327      155.682        5.679      341.299       15.914      853.423
10/15/2014  03:44:00     -204.689     -162.120        4.733      209.773      207.913       98.116    44004.835    43227.777     9626.714        8.251        4.843      261.114      109.527        0.176      341.289       15.897      853.468
10/15/2014  03:45:00      -96.607      -84.017       20.522      127.502      129.249       70.041    16256.693    16705.318     4905.753        2.733        1.893      128.030       60.523        0.223      341.266       15.858      853.496
10/15/2014  03:46:00     -153.804      -74.755       16.161       95.819      109.971       49.297     9181.202    12093.546     2430.227        2.660        1.185      171.009       41.271        0.058      341.293       15.904      853.438
10/15/2014  03:47:00       40.761       35.460       97.870      111.302      147.654      124.515    12388.187    21801.835    15504.036        3.109        2.485       54.027      118.657        4.824      341.313       15.937      853.497
10/15/2014  03:48:00       -3.319     -141.405      -36.384       96.159      143.170       49.757     9246.547    20497.720     2475.728        2.677        1.611      141.443       29.324        0.043      341.436       16.145      853.506
10/15/2014  03:49:00       -0.747     -146.163       -1.422      102.775       89.430       43.317    10562.599     7997.811     1876.353        2.090        1.022      146.165       40.887        0.078      341.452       16.173      853.529
10/15/2014  03:50:00      110.653      -78.671       56.375      119.840      175.191      116.424    14361.655    30691.732    13554.629        4.010        2.930      135.769      139.838        1.061      341.439       16.148      853.542
10/15/2014  03:51:00       87.060      184.936      218.750      116.775      160.241      109.420    13636.510    25677.243    11972.772        7.045        2.564      204.403      112.750        0.304      341.352       16.002      853.354
10/15/2014  03:52:00       94.610       44.127      152.841       97.584      159.259       78.368     9522.681    25363.388     6141.600        3.764        2.051      104.395       75.826        0.528      341.319       15.947      853.430
10/15/2014  03:53:00      181.018      202.094      153.708      177.905      118.703      107.647    31650.278    14090.495    11587.831        7.727        2.866      271.311      102.313        0.142      341.321       15.949      853.416
10/15/2014  03:54:00     -153.197     -122.246      -36.297      139.379      117.378       62.568    19426.638    13777.572     3914.767        3.842        1.856      195.994       48.703        0.062      341.321       15.951      853.379
10/15/2014  03:55:00       21.673      -25.853       -6.129      166.269      103.307       71.966    27645.225    10672.274     5179.135        2.233        2.175       33.736       56.570        2.812      341.277       15.876      853.400
10/15/2014  03:56:00      111.620       60.754      103.688       95.668      113.479       58.485     9152.368    12877.519     3420.480        2.617        1.273      127.083       55.326        0.190      341.369       16.031      853.429
10/15/2014  03:57:00      120.729      128.723       96.348       76.870       62.083       65.276     5908.928     3854.313     4261.002        2.722        0.701      176.480       48.108        0.074      341.307       15.926      853.491
10/15/2014  03:58:00       66.135       37.872      116.499       79.748      200.154       90.564     6359.717    40061.563     8201.749        3.699        2.731       76.211      126.669        2.763      341.316       15.943      853.510
10/15/2014  03:59:00       98.346      -47.102       23.895       61.309      128.781       48.619     3758.797    16584.547     2363.836        1.758        1.135      109.044       56.955        0.273      341.345       15.993      853.548
10/15/2014  04:00:00       -6.459       -8.885       22.437       29.518       38.459       20.491      871.329     1479.088      419.875        0.170        0.139       10.985       22.197        4.083      341.306       15.927      853.502
10/15/2014  04:01:00        6.220      -52.979        8.177       33.621       84.908       39.313     1130.390     7209.409     1545.499        0.640        0.494       53.343       26.627        0.249      341.297       15.911      853.584
10/15/2014  04:02:00      143.422      107.149        2.003       90.123       75.896       60.866     8122.215     5760.247     3704.726        2.482        0.879      179.027       37.377        0.044      341.276       15.874      853.534
10/15/2014  04:03:00      153.363       76.672       18.745      152.901      127.758       70.349    23378.734    16322.131     4948.996        3.719        2.232      171.460       54.061        0.099      341.279       15.880      853.410
10/15/2014  04:04:00     -113.884      -73.802        4.012      148.128      126.650       65.498    21941.809    16040.190     4289.963        3.035        2.114      135.707       52.336        0.149      341.296       15.909      853.527
10/15/2014  04:05:00     -246.243     -161.159       28.540      265.070      180.008       93.049    70261.921    32402.815     8658.171        9.935        5.566      294.292      123.866        0.177      341.204       15.753      853.586
10/15/2014  04:06:00      -93.953      -77.478        6.276       68.216       70.531       49.432     4653.454     4974.616     2443.495        1.347        0.604      121.779       35.502        0.085      341.166       15.690      853.546
10/15/2014  04:07:00     -216.023     -119.164      -21.586      109.613       94.698       52.962    12014.907     8967.713     2804.983        4.256        1.189      246.710       45.703        0.034      341.207       15.756      853.528
10/15/2014  04:08:00     -232.879     -111.220      -24.024       97.776      148.968       58.459     9560.217    22191.519     3417.508        5.117        1.758      258.074       50.945        0.039      341.227       15.789      853.483
10/15/2014  04:09:00      -15.116       15.114       24.213       91.852      108.105       57.431     8436.869    11686.765     3298.329        1.223        1.171       21.376       60.751        8.077      341.245       15.824      853.528
10/15/2014  04:10:00       44.403      -80.620      -20.469      138.625      160.878       53.796    19217.001    25881.721     2894.016        2.843        2.400       92.039       49.460        0.289      341.283       15.887      853.582
10/15/2014  04:11:00       25.259      -61.124       -1.490      141.399      142.697       90.307    19993.710    20362.500     8155.397        2.644        2.426       66.137       72.100        1.188      341.211       15.766      853.517
10/15/2014  04:12:00      -27.365      -32.756       -0.732       88.013      168.698       56.365     7746.360    28458.964     3177.044        2.060        1.969       42.682       63.072        2.184      341.220       15.779      853.314
10/15/2014  04:13:00        3.911      -60.806        4.795       82.181      125.375       41.220     6753.724    15718.882     1699.121        1.395        1.209       60.932       43.468        0.509      341.209       15.762      853.225
10/15/2014  04:14:00       69.217     -111.573       55.619       96.813      191.058       93.540     9372.723    36503.131     8749.784        3.747        2.731      131.299      123.532        0.885      341.215       15.770      853.257
10/15/2014  04:15:00      255.583      153.830       47.067      136.879       90.046       78.394    18735.951     8108.206     6145.587        6.209        1.649      298.306       65.876        0.049      341.167       15.689      853.252
10/15/2014  04:16:00      170.359      120.344       14.664       99.193       64.490       71.167     9839.241     4158.921     5064.713        3.139        0.953      208.578       45.676        0.048      341.141       15.644      853.256
10/15/2014  04:17:00       77.607       90.575       10.480       63.923       58.850       50.690     4086.153     3463.375     2569.497        1.223        0.506      119.276       39.137        0.108      341.212       15.768      853.292
10/15/2014  04:18:00       63.491       42.973       -8.554       47.900       37.590       23.455     2294.376     1413.029      550.114        0.510        0.213       76.667       18.049        0.055      341.191       15.732      853.334
10/15/2014  04:19:00       20.414       14.298       15.169       51.380       33.109       21.505     2639.910     1096.201      462.460        0.252        0.210       24.924       24.188        0.942      341.109       15.594      853.366
10/15/2014  04:20:00     -152.016      -30.154      -17.275       72.485       52.235       24.987     5254.084     2728.519      624.367        1.646        0.430      154.978       24.439        0.025      341.156       15.672      853.439
10/15/2014  04:21:00     -116.580       92.468      -21.294       38.917       47.934       24.850     1514.537     2297.653      617.512        1.351        0.221      148.799       21.514        0.021      341.075       15.535      853.448
10/15/2014  04:22:00      -53.124      218.989      -25.044       53.184       90.023       31.366     2828.489     8104.059      983.845        3.166        0.596      225.341       34.573        0.024      341.157       15.671      853.347
10/15/2014  04:23:00       31.273      239.981      -22.096       74.912      113.828       57.135     5611.753    12956.739     3264.442        4.044        1.092      242.010       63.955        0.070      341.168       15.690      853.277
10/15/2014  04:24:00      -21.888      130.403       -5.263       54.280       91.943       32.764     2946.265     8453.456     1073.505        1.499        0.624      132.228       44.519        0.113      341.165       15.687      853.299
10/15/2014  04:25:00      -32.346      251.519      -25.469       51.058       83.723       37.859     2606.959     7009.548     1433.322        3.800        0.552      253.590       43.111        0.029      341.163       15.681      853.315
10/15/2014  04:26:00       25.077      204.622      -31.458       36.064       38.073       24.444     1300.646     1449.590      597.527        2.342        0.167      206.153       21.677        0.011      341.151       15.663      853.315
10/15/2014  04:27:00       -7.120      191.481      -33.612       26.501       34.612       18.764      702.300     1197.971      352.098        2.005        0.113      191.613       18.818        0.010      341.144       15.651      853.278
10/15/2014  04:28:00       11.807      199.524      -35.307       37.735       29.958       19.880     1423.904      897.463      395.218        2.196        0.136      199.873        8.094        0.002      341.206       15.756      853.295
10/15/2014  04:29:00       44.187       95.799      -10.144       43.154       62.412       32.330     1862.267     3895.288     1045.240        0.902        0.340      105.499       33.357        0.100      341.167       15.691      853.375
10/15/2014  04:30:00      -28.615       22.652      -19.464       34.644       34.349       18.316     1200.209     1179.827      335.459        0.221        0.136       36.496        9.523        0.068      341.169       15.695      853.457
10/15/2014  04:31:00       70.455      114.351        6.574      103.053       64.026       52.176    10619.989     4099.308     2722.291        1.776        0.872      134.313       36.826        0.075      341.094       15.568      853.269
10/15/2014  04:32:00      123.192      105.002       51.771      104.926       68.642       69.498    11009.521     4711.699     4829.960        2.471        1.028      161.869       57.339        0.125      341.055       15.500      853.263
10/15/2014  04:33:00      -18.958        7.635       52.757       29.012       58.926       33.880      841.671     3472.269     1147.835        0.433        0.273       20.438       34.770        2.894      341.094       15.569      853.365
10/15/2014  04:34:00      -99.324      -56.969      -15.973       49.967       64.846       29.001     2496.687     4205.038      841.053        1.045        0.377      114.501       24.574        0.046      341.083       15.550      853.350
10/15/2014  04:35:00     -128.042       49.496      -27.548       69.464      108.526       35.042     4825.203    11777.967     1227.911        1.871        0.892      137.276       54.974        0.160      341.106       15.587      853.311
10/15/2014  04:36:00     -177.716      180.094      -42.865       76.706       72.844       40.812     5883.833     5306.259     1665.596        3.935        0.643      253.015       42.748        0.029      341.047       15.486      853.295
10/15/2014  04:37:00      -82.558      153.869      -12.352       43.044       58.974       35.842     1852.807     3477.936     1284.620        1.863        0.331      174.618       29.706        0.029      341.003       15.414      853.309
10/15/2014  04:38:00       30.697       75.026       12.551       53.370       53.730       36.038     2848.358     2886.924     1298.715        0.688        0.352       81.063       27.746        0.117      341.003       15.413      853.300
10/15/2014  04:39:00       -6.566       45.841       -1.074       56.534       71.974       32.239     3196.039     5180.314     1039.377        0.578        0.471       46.309       25.630        0.306      341.028       15.454      853.359
10/15/2014  04:40:00     -105.984      -73.352       11.322      110.098       70.534       44.960    12121.586     4975.067     2021.445        1.793        0.956      128.892       54.036        0.176      341.028       15.457      853.377
10/15/2014  04:41:00     -304.899      -54.047       -2.155      123.784       77.746       50.146    15322.584     6044.395     2514.574        5.988        1.194      309.653       54.444        0.031      341.021       15.443      853.361
10/15/2014  04:42:00     -459.427      -81.539      -65.771      137.093       86.519       64.259    18794.422     7485.569     4129.233       12.622        1.520      466.607       67.027        0.021      341.067       15.519      853.340
10/15/2014  04:43:00     -307.913      187.836      -30.620      127.894      120.500       72.235    16356.887    14520.199     5217.826        8.356        1.805      360.684       65.883        0.033      341.025       15.451      853.365
10/15/2014  04:44:00     -490.690     -108.973      -36.124      124.258      193.446       71.058    15439.980    37421.322     5049.304       15.592        2.896      502.645       65.348        0.017      341.024       15.447      853.286
10/15/2014  04:45:00     -360.512       -2.386      -44.032      134.100      104.674       62.584    17982.893    10956.595     3916.748        8.238        1.643      360.520       65.238        0.033      340.977       15.366      853.278
10/15/2014  04:46:00     -425.312     -133.505       -5.246      234.730      119.399       74.600    55098.075    14256.056     5565.112       13.682        3.746      445.774       92.225        0.043      341.002       15.409      853.327
10/15/2014  04:47:00     -286.721      -89.370        1.752      118.076       72.743       47.996    13941.984     5291.571     2303.632        5.586        1.077      300.327       57.809        0.037      341.005       15.416      853.276
10/15/2014  04:48:00     -247.148      -89.910      -17.139      117.905       71.892       45.950    13901.475     5168.500     2111.438        4.532        1.059      262.994       58.293        0.049      341.045       15.483      853.282
10/15/2014  04:49:00       -2.947       29.271       15.067       73.423       72.677       42.072     5390.882     5281.995     1770.065        0.677        0.622       29.419       23.159        0.620      341.069       15.526      853.314
10/15/2014  04:50:00      -34.494      -71.287        0.178       71.710      102.454       50.567     5142.320    10496.773     2556.987        1.223        0.910       79.194       41.343        0.273      341.090       15.561      853.307
10/15/2014  04:51:00        7.967     -138.251      -31.510      145.303      118.219       57.417    21113.067    13975.697     3296.737        2.927        1.919      138.480       64.850        0.219      341.085       15.551      853.363
10/15/2014  04:52:00       91.947     -155.023       -4.615       66.173      145.115       53.576     4378.930    21058.450     2870.378        3.040        1.415      180.240       27.117        0.023      341.141       15.645      853.454
10/15/2014  04:53:00      119.147       72.458       56.184       80.299       60.766       58.136     6447.929     3692.482     3379.836        1.806        0.676      139.450       40.708        0.085      341.110       15.595      853.438
10/15/2014  04:54:00       93.709       95.699       -8.217       71.860       84.632       56.965     5163.902     7162.562     3245.043        1.679        0.779      133.939       43.492        0.105      341.072       15.533      853.461
10/15/2014  04:55:00      -57.981       47.499      -13.073       32.046       51.283       34.794     1026.959     2629.944     1210.605        0.533        0.243       74.953       12.813        0.029      341.020       15.443      853.533
10/15/2014  04:56:00       -6.265      -34.979      -12.243       31.641       33.210       21.968     1001.138     1102.902      482.578        0.200        0.129       35.536       21.192        0.356      341.027       15.456      853.545
10/15/2014  04:57:00      110.864      -12.990       46.455       73.701       49.239       54.675     5431.874     2424.500     2989.347        1.273        0.542      111.622       16.598        0.022      341.047       15.489      853.536
10/15/2014  04:58:00      165.346       76.084       29.176       86.643       87.127       60.653     7506.985     7591.095     3678.846        2.638        0.939      182.012       33.652        0.034      340.974       15.362      853.500
10/15/2014  04:59:00      -48.946      -52.638       10.508      136.446       68.458       53.043    18617.612     4686.444     2813.509        1.569        1.306       71.878       66.835        0.865      340.980       15.373      853.493
10/15/2014  05:00:00      -52.743      -40.501        1.856       69.341       57.421       34.062     4808.209     3297.121     1160.189        0.684        0.463       66.499       42.986        0.418      340.928       15.286      853.502
10/15/2014  05:01:00     -168.947       34.007      -19.113       34.993       42.163       22.757     1224.477     1777.740      517.891        1.679        0.176      172.336       14.173        0.007      340.917       15.270      853.560
10/15/2014  05:02:00      -11.662        8.025       -2.096       48.944       34.682       16.783     2395.527     1202.848      281.668        0.204        0.194       14.157       14.007        0.979      340.904       15.247      853.634
10/15/2014  05:03:00       39.640       23.668       20.486       29.140       33.404       21.975      849.121     1115.827      482.898        0.250        0.122       46.168       16.864        0.133      340.921       15.276      853.642
10/15/2014  05:04:00       13.663     -124.228        6.028       75.686      101.675       30.067     5728.366    10337.770      903.999        1.631        0.849      124.977       25.097        0.040      340.918       15.270      853.694
10/15/2014  05:05:00     -144.288     -160.364      -24.286       75.213       77.392       42.466     5657.064     5989.506     1803.344        3.029        0.672      215.721       26.591        0.015      340.856       15.162      853.740
10/15/2014  05:06:00     -108.811     -129.450      -14.878       84.987       71.433       37.962     7222.822     5102.730     1441.128        2.129        0.688      169.107       35.797        0.045      340.844       15.144      853.773
10/15/2014  05:07:00      -63.451      -83.890       14.991       76.419       60.255       35.200     5839.868     3630.704     1239.061        1.100        0.535      105.183       34.266        0.106      340.840       15.136      853.807
10/15/2014  05:08:00      -77.473     -157.782       13.395       96.100      154.943       68.056     9235.233    24007.351     4631.590        3.447        1.894      175.776       93.827        0.285      340.818       15.101      853.844
10/15/2014  05:09:00       41.179       24.707       52.483       52.490       73.105       41.621     2755.195     5344.309     1732.276        0.744        0.492       48.023       42.358        0.778      340.972       15.361      853.825
10/15/2014  05:10:00       47.015      113.859        4.096       48.959       64.982       41.336     2396.940     4222.695     1708.648        1.176        0.416      123.184       34.432        0.078      340.785       15.045      853.923
10/15/2014  05:11:00       33.600      187.393      -29.956       53.440       71.387       46.801     2855.827     5096.104     2190.305        2.364        0.507      190.381       41.238        0.047      340.717       14.929      853.860
10/15/2014  05:12:00     -199.347      165.000      -25.531      183.493      145.181       61.346    33669.814    21077.491     3763.393        6.305        2.926      258.774       50.602        0.038      340.649       14.812      853.913
10/15/2014  05:13:00      -87.724       59.166      -14.122       54.240       81.071       39.862     2941.947     6572.455     1588.990        1.125        0.555      105.811       27.486        0.067      340.684       14.877      853.924
10/15/2014  05:14:00      -36.202      -20.202        6.373       52.456       37.867       29.033     2751.631     1433.884      842.908        0.339        0.251       41.457       22.936        0.306      340.679       14.867      854.005
10/15/2014  05:15:00      -60.123      -49.267        0.902      140.134      114.265       56.795    19637.537    13056.596     3225.630        2.098        1.796       77.730       55.769        0.515      340.624       14.772      853.959
10/15/2014  05:16:00      -99.334      -48.395       -3.286       93.055      160.032       52.439     8659.298    25610.345     2749.880        2.461        1.851      110.495       46.643        0.178      340.544       14.636      853.948
10/15/2014  05:17:00     -166.465      -90.797        2.747      107.798      108.339       43.936    11620.427    11737.279     1930.376        3.062        1.264      189.617       46.815        0.061      340.531       14.615      854.011
10/15/2014  05:18:00     -315.509      -35.221      -12.218      125.062       89.128       61.163    15640.550     7943.859     3740.915        6.413        1.366      317.469       64.035        0.041      340.498       14.557      854.041
10/15/2014  05:19:00     -352.043      -75.032        3.239      184.479      134.165       70.705    34032.518    18000.373     4999.197        9.329        2.852      359.950       73.220        0.041      340.505       14.569      854.096
10/15/2014  05:20:00     -429.250     -125.287      -24.768      156.707      121.081       64.174    24557.106    14660.640     4118.250       12.194        2.167      447.161       59.043        0.017      340.520       14.594      854.198
10/15/2014  05:21:00     -287.049      -25.005      -16.802      111.321      185.041       53.406    12392.288    34240.205     2852.195        6.639        2.474      288.136       36.355        0.016      340.500       14.558      854.247
10/15/2014  05:22:00     -136.955      -66.714      -22.328       99.206       84.503       34.526     9841.909     7140.772     1192.020        2.094        0.909      152.340       27.245        0.032      340.505       14.568      854.228
10/15/2014  05:23:00      -68.122      -20.671       -1.624       57.660      113.734       33.553     3324.694    12935.399     1125.821        1.123        0.869       71.189       33.232        0.218      340.506       14.573      854.233
10/15/2014  05:24:00     -115.594       65.141      -12.550       50.108       72.650       35.666     2510.796     5278.072     1272.056        1.341        0.453      132.685       26.973        0.041      340.452       14.480      854.255
10/15/2014  05:25:00       17.034      -89.610        8.520       47.453       69.930       35.210     2251.740     4890.172     1239.718        0.839        0.419       91.215       15.657        0.029      340.514       14.588      854.272
10/15/2014  05:26:00      -56.345      -77.004       16.158       91.713       83.724       48.082     8411.232     7009.671     2311.845        1.355        0.887       95.417       52.750        0.306      340.538       14.627      854.249
10/15/2014  05:27:00      -58.634      -79.190        9.845       72.164       61.797       42.268     5207.671     3818.840     1786.552        1.031        0.541       98.534       31.798        0.104      340.477       14.523      854.307
10/15/2014  05:28:00     -107.815      -95.627        2.159      105.942       51.660       31.125    11223.631     2668.778      968.770        1.781        0.743      144.113       27.699        0.037      340.499       14.558      854.324
10/15/2014  05:29:00     -136.795     -187.189        9.524      130.642      113.845       58.414    17067.294    12960.722     3412.177        4.364        1.672      231.846       62.610        0.073      340.494       14.550      854.363
10/15/2014  05:30:00     -121.942      -48.068        2.650       69.252       87.616       43.031     4795.821     7676.506     1851.681        1.575        0.716      131.074       40.465        0.095      340.430       14.445      854.397
10/15/2014  05:31:00      -23.155       -9.455       15.940       55.907       51.766       39.890     3125.565     2679.769     1591.233        0.414        0.370       25.011       25.514        1.041      340.441       14.464      854.307
10/15/2014  05:32:00        9.097     -240.965       -2.987       54.323      100.789       53.637     2950.944    10158.340     2876.936        3.707        0.799      241.137       23.832        0.010      340.456       14.485      854.354
10/15/2014  05:33:00     -204.638     -157.965        6.648      171.954      113.266       87.994    29568.111    12829.222     7742.877        5.850        2.507      258.514       94.095        0.132      340.382       14.362      854.364
10/15/2014  05:34:00     -164.186      -56.521      -29.435      106.174      118.663       57.458    11272.932    14080.837     3301.464        2.983        1.433      173.642       39.786        0.052      340.356       14.317      854.334
10/15/2014  05:35:00       22.250      -70.743       -9.545       58.781       71.396       38.191     3455.253     5097.350     1458.523        0.780        0.501       74.160       24.841        0.112      340.363       14.333      854.225
10/15/2014  05:36:00      -54.498       46.371        4.749       39.251       52.527       34.147     1540.618     2759.035     1166.002        0.530        0.273       71.557       24.618        0.118      340.378       14.357      854.167
10/15/2014  05:37:00      -80.913       85.185      -11.413       46.075       39.548       36.232     2122.936     1564.036     1312.749        0.947        0.250      117.488       27.533        0.055      340.324       14.266      854.157
10/15/2014  05:38:00        6.443      112.844      -18.046       27.188       41.235       20.027      739.196     1700.301      401.073        0.797        0.142      113.028       16.421        0.021      340.335       14.284      854.188
10/15/2014  05:39:00       71.195      109.774       -9.868       49.165       33.924       32.980     2417.186     1150.839     1087.704        1.094        0.233      130.840       23.367        0.032      340.314       14.248      854.178
10/15/2014  05:40:00       57.545      115.343       -3.985       49.777       40.816       34.506     2477.704     1665.977     1190.662        1.098        0.267      128.900       27.022        0.044      340.328       14.270      854.151
10/15/2014  05:41:00       55.015       85.289      -12.106       28.678       54.249       22.312      822.452     2942.936      497.808        0.735        0.213      101.493       26.457        0.068      340.325       14.265      854.158
10/15/2014  05:42:00       34.186       67.523      -11.749       37.246       24.072       17.283     1387.297      579.442      298.704        0.407        0.113       75.684       13.500        0.032      340.309       14.239      854.178
10/15/2014  05:43:00      -44.224       77.043      -21.424       25.923       28.176       18.324      671.985      793.864      335.761        0.508        0.090       88.833        8.601        0.009      340.303       14.228      854.204
10/15/2014  05:44:00      -86.621       57.992      -14.394       38.396       28.121       15.750     1474.281      790.803      248.059        0.679        0.126      104.241        5.919        0.003      340.291       14.210      854.217
10/15/2014  05:45:00      -51.638       42.525       -5.439       39.017       29.694       17.293     1522.307      881.718      299.058        0.360        0.135       66.894       23.538        0.124      340.305       14.232      854.214
10/15/2014  05:46:00       44.459       37.070        9.932       28.055       29.150       19.857      787.107      849.705      394.303        0.274        0.102       57.886       19.273        0.111      340.283       14.195      854.223
10/15/2014  05:47:00       13.949      133.040      -23.909       35.630       47.935       20.802     1269.488     2297.789      432.742        1.123        0.200      133.769       22.690        0.029      340.263       14.162      854.234
10/15/2014  05:48:00      -79.509       24.054      -18.396       21.136       64.276       19.935      446.732     4131.341      397.406        0.611        0.249       83.068       19.430        0.055      340.415       14.421      854.273
10/15/2014  05:49:00      -67.223       39.185      -37.634       34.140       44.060       19.639     1165.532     1941.315      385.676        0.548        0.175       77.810       26.512        0.116      340.370       14.344      854.359
10/15/2014  05:50:00      -45.896      -45.663        6.944       76.055       43.582       34.582     5784.401     1899.396     1195.927        0.656        0.444       64.742       35.732        0.305      340.402       14.399      854.440
10/15/2014  05:51:00     -206.991     -123.263      -11.669       71.618       64.690       45.703     5129.100     4184.842     2088.799        3.479        0.570      240.913       42.127        0.031      340.402       14.394      854.468
10/15/2014  05:52:00     -115.577     -156.174       -4.788      103.241      100.789       49.416    10658.614    10158.471     2441.936        3.051        1.163      194.289       53.099        0.075      340.472       14.512      854.491
10/15/2014  05:53:00      -43.218       -1.887       16.144       60.746       64.445       48.134     3690.110     4153.194     2316.888        0.614        0.508       43.260       23.333        0.291      340.476       14.522      854.434
10/15/2014  05:54:00     -100.690       29.797       -6.994       62.474       28.532       23.118     3902.968      814.069      534.435        0.816        0.263      105.007       28.955        0.076      340.404       14.401      854.444
10/15/2014  05:55:00      -30.421       -1.543        9.432       52.661       28.674       25.254     2773.153      822.211      637.780        0.262        0.212       30.460       18.161        0.355      340.324       14.265      854.422
10/15/2014  05:56:00       90.530       44.756       24.256       40.975       28.012       25.411     1678.969      784.697      645.700        0.695        0.155      100.989       11.971        0.014      340.321       14.260      854.382
10/15/2014  05:57:00       65.584       54.951       16.899       46.211       34.508       34.121     2135.441     1190.787     1164.276        0.605        0.225       85.562       21.953        0.066      340.291       14.209      854.357
10/15/2014  05:58:00       48.235       46.784       17.293       49.136       47.156       30.862     2414.364     2223.702      952.468        0.520        0.280       67.196       12.352        0.034      340.264       14.164      854.410
10/15/2014  05:59:00       65.249       48.032       33.641       32.843       44.294       26.889     1078.666     1961.914      722.998        0.573        0.188       81.022       22.215        0.075      340.283       14.195      854.443
10/15/2014  06:00:00       35.060       35.024       49.895       36.780       36.604       25.204     1352.788     1339.857      635.228        0.414        0.166       49.557       22.448        0.205      340.271       14.176      854.453
10/15/2014  06:01:00     -159.381       41.790      -13.266      141.398       48.623       29.303    19993.363     2364.206      858.669        2.527        1.161      164.768       50.320        0.093      340.279       14.186      854.470
10/15/2014  06:02:00     -366.009      -63.669       -8.947      131.121      126.501       56.962    17192.678    16002.534     3244.647        8.726        1.822      371.505       54.840        0.022      340.224       14.093      854.439
10/15/2014  06:03:00     -152.804        3.820      -12.002       77.672       79.382       43.762     6032.998     6301.577     1915.107        1.888        0.712      152.852       29.087        0.036      340.173       14.009      854.350
10/15/2014  06:04:00     -143.544       -7.392      -22.385       53.161       42.211       33.928     2826.132     1781.801     1151.129        1.346        0.288      143.734       24.564        0.029      340.211       14.077      854.296
10/15/2014  06:05:00      -41.394       12.906       42.995       86.050       60.910       43.125     7404.633     3710.039     1859.769        0.835        0.649       43.359       54.183        1.562      340.161       13.990      854.361
10/15/2014  06:06:00       -3.584       58.507       15.272       52.398       33.931       32.940     2745.566     1151.346     1085.031        0.432        0.249       58.616       31.205        0.283      340.210       14.073      854.368
10/15/2014  06:07:00       35.515       59.572       -3.001       37.599       35.342       29.459     1413.713     1249.069      867.807        0.417        0.177       69.356       13.094        0.036      340.192       14.043      854.333
10/15/2014  06:08:00       36.593       10.761       14.669       27.891       37.494       26.243      777.919     1405.800      688.701        0.227        0.144       38.142        8.678        0.052      340.335       14.284      854.344
10/15/2014  06:09:00        0.375        2.534        3.153       22.032       21.401       18.393      485.406      458.012      338.301        0.065        0.064        2.562       16.608       42.028      340.226       14.100      854.401
10/15/2014  06:10:00       21.336       85.155      -20.576       34.063       26.068       15.305     1160.313      679.524      234.255        0.510        0.104       87.787       15.635        0.032      340.234       14.115      854.396
10/15/2014  06:11:00       22.861       98.142      -25.224       30.501       52.614       18.379      930.303     2768.185      337.800        0.741        0.202      100.770       25.985        0.066      340.209       14.071      854.314
10/15/2014  06:12:00        3.582       98.155      -30.429       30.019       35.078       15.121      901.128     1230.492      228.632        0.647        0.118       98.221        9.094        0.009      340.230       14.107      854.356
10/15/2014  06:13:00        6.637      -49.990       13.516       60.359      113.884       78.964     3643.198    12969.666     6235.354        1.278        1.142       50.428       62.133        1.518      340.262       14.160      854.434
10/15/2014  06:14:00       90.043      -26.534       85.030      140.824      171.567      103.506    19831.265    29435.381    10713.466        3.800        2.999       93.872      111.486        1.411      340.178       14.017      854.260
10/15/2014  06:15:00      -96.706     -103.913       34.997       73.731      129.977       84.257     5436.333    16893.920     7099.294        2.540        1.471      141.950       88.364        0.388      340.243       14.127      854.189
10/15/2014  06:16:00     -277.418      -84.995       -5.746      138.474       88.690       53.283    19174.950     7865.934     2839.127        5.704        1.494      290.146       56.021        0.037      340.098       13.882      854.301
10/15/2014  06:17:00     -200.792     -157.525       -8.007       94.788      100.176       48.572     8984.792    10035.149     2359.287        4.328        1.069      255.209       50.302        0.039      340.123       13.923      854.311
10/15/2014  06:18:00      -95.760      -52.050        1.360       44.136       37.206       21.380     1947.982     1384.303      457.117        0.783        0.189      108.992       20.565        0.036      340.119       13.919      854.235
10/15/2014  06:19:00      -81.524     -104.951      -11.673       44.619       54.353       28.122     1990.848     2954.287      790.830        1.177        0.287      132.894       21.570        0.026      340.108       13.901      854.273
10/15/2014  06:20:00     -119.005     -169.164      -10.474      105.310       55.622       25.021    11090.116     3093.849      626.054        2.885        0.741      206.830       24.623        0.014      340.156       13.982      854.182
10/15/2014  06:21:00     -129.667     -165.436       -9.475       90.176       61.410       41.067     8131.656     3771.247     1686.474        2.893        0.679      210.197       31.797        0.023      340.164       13.993      854.183
10/15/2014  06:22:00      -39.032      -83.206        5.278       43.598       45.975       22.927     1900.790     2113.718      525.659        0.651        0.227       91.907       14.876        0.026      340.200       14.057      854.230
10/15/2014  06:23:00     -155.098      -58.253        2.376       70.202       63.390       41.289     4928.274     4018.328     1704.798        1.905        0.533      165.677       42.724        0.066      340.151       13.971      854.218
10/15/2014  06:24:00      -68.483      -41.838        5.800       98.284       36.205       27.778     9659.745     1310.780      771.640        0.911        0.587       80.252       31.265        0.152      340.142       13.958      854.146
10/15/2014  06:25:00     -138.287     -153.255       -4.952      121.095       70.805       40.940    14663.971     5013.380     1676.082        3.199        1.068      206.423       49.796        0.058      340.135       13.944      854.136
10/15/2014  06:26:00     -199.728     -141.366        3.405      139.151      114.545       62.955    19363.092    13120.493     3963.331        4.816        1.822      244.694       60.412        0.061      340.088       13.865      854.153
10/15/2014  06:27:00      -49.894      -65.872        1.897       84.086       86.661       37.250     7070.400     7510.172     1387.582        1.140        0.798       82.635       34.974        0.179      340.045       13.795      854.091
10/15/2014  06:28:00      -54.911     -130.954       -9.806      108.589       73.570       38.792    11791.511     5412.543     1504.788        1.948        0.935      142.001       31.975        0.051      340.069       13.834      854.109
10/15/2014  06:29:00     -193.365     -201.670       -4.978      134.280      253.651       71.134    18030.993    64338.888     5059.999        8.274        4.371      279.394       56.709        0.041      340.142       13.954      854.021
10/15/2014  06:30:00     -163.595     -217.050       17.254      125.858      129.653       66.186    15840.352    16809.903     4380.554        5.560        1.852      271.798       51.774        0.036      340.166       13.996      853.987
10/15/2014  06:31:00     -263.532     -163.981       -6.898      101.097      117.584       53.177    10220.688    13826.059     2827.762        6.163        1.344      310.385       54.292        0.031      340.098       13.880      854.019
10/15/2014  06:32:00     -137.234      -49.871       11.863      106.013       72.427       37.824    11238.809     5245.683     1430.643        1.969        0.896      146.014       38.240        0.069      339.990       13.701      854.007
10/15/2014  06:33:00      -73.080      -35.434       -0.308       73.598       51.504       37.407     5416.701     2652.637     1399.278        0.803        0.473       81.217       24.909        0.094      340.023       13.761      853.938
10/15/2014  06:34:00     -138.730       -5.082       -7.544       76.972       49.164       39.383     5924.685     2417.066     1551.022        1.461        0.495      138.823       39.164        0.080      340.152       13.974      853.979
10/15/2014  06:35:00     -132.979       -6.566        5.203      134.098       80.760       62.571    17982.347     6522.131     3915.171        2.308        1.421      133.141       71.838        0.291      340.062       13.822      853.990
10/15/2014  06:36:00     -340.946     -105.175      -20.717      129.729      123.151       67.983    16829.689    15166.225     4621.634        8.217        1.831      356.800       61.715        0.030      340.071       13.835      853.972
10/15/2014  06:37:00     -358.661     -162.532      -26.970      192.468      146.742       74.279    37043.926    21533.322     5517.308       10.993        3.205      393.769       73.707        0.035      340.073       13.838      853.954
10/15/2014  06:38:00     -140.519     -241.515       -9.314      130.123       78.386       53.451    16931.878     6144.437     2856.983        5.204        1.297      279.419       28.444        0.010      340.063       13.822      854.038
10/15/2014  06:39:00      -21.527     -111.118      -10.212      178.205      136.856       69.480    31757.162    18729.645     4827.446        3.411        2.766      113.184       60.421        0.285      340.054       13.808      854.047
10/15/2014  06:40:00     -270.136     -113.463       -0.649      224.315      119.199       83.498    50317.140    14208.330     6971.876        7.866        3.575      292.997       95.920        0.107      340.003       13.721      854.083
10/15/2014  06:41:00       84.231     -129.959        8.641       83.799      102.339       74.238     7022.332    10473.228     5511.223        2.353        1.150      154.868       67.326        0.189      340.089       13.866      854.232
10/15/2014  06:42:00      -87.711      -73.491       21.116      107.460      131.856       69.662    11547.752    17385.964     4852.786        2.366        1.689      114.430       83.791        0.536      340.001       13.718      854.167
10/15/2014  06:43:00     -323.387     -184.885        0.721      236.551      163.805       75.286    55956.340    26832.122     5667.963       11.359        4.423      372.507       93.741        0.063      340.023       13.755      854.233
10/15/2014  06:44:00     -140.833     -155.871       18.086      127.943      127.529       68.060    16369.351    16263.569     4632.159        4.085        1.863      210.071       68.832        0.107      340.046       13.794      854.204
10/15/2014  06:45:00     -105.910     -102.609      -17.888      132.956       87.503       55.794    17677.373     7656.705     3113.017        2.525        1.422      147.464       49.014        0.110      340.074       13.841      854.180
10/15/2014  06:46:00     -216.224      -92.830       -4.161      123.823      114.909       63.038    15332.227    13204.049     3973.829        4.394        1.626      235.309       55.701        0.056      340.055       13.807      854.255
10/15/2014  06:47:00      -27.227       14.972       28.072      149.158      137.330       69.399    22248.070    18859.605     4816.259        2.383        2.296       31.072       75.355        5.882      339.995       13.708      854.305
10/15/2014  06:48:00        5.678      -33.929       21.571      157.337       76.964       50.644    24755.050     5923.405     2564.774        1.744        1.662       34.401       59.411        2.983      339.961       13.650      854.285
10/15/2014  06:49:00     -417.300      -37.821      -36.523      291.252      157.434       84.058    84827.716    24785.519     7065.815       14.677        5.834      419.011      117.082        0.078      340.083       13.854      854.283
10/15/2014  06:50:00     -186.342     -162.724       -1.497      267.100      146.086       78.592    71342.161    21341.263     6176.765        8.002        4.943      247.391      107.186        0.188      340.099       13.883      854.227
10/15/2014  06:51:00     -213.594     -101.419        0.387      296.560      185.057      100.329    87947.570    34246.135    10065.948        9.406        6.613      236.449      109.017        0.213      340.104       13.893      854.363
10/15/2014  06:52:00      -40.113     -328.651       -1.253      143.919      171.442       76.946    20712.803    29392.354     5920.617        8.281        2.801      331.090       52.514        0.025      340.148       13.966      854.340
10/15/2014  06:53:00        9.169     -134.844       12.940      136.552      149.166       88.558    18646.572    22250.369     7842.505        3.358        2.437      135.155       88.616        0.430      340.051       13.802      854.453
10/15/2014  06:54:00       -6.391       -0.030       26.256      103.932       91.539       54.856    10801.760     8379.353     3009.226        1.146        1.110        6.391       44.253       47.951      339.980       13.685      854.432
10/15/2014  06:55:00      103.599       59.000       25.263       37.278       66.646       37.225     1389.619     4441.680     1385.709        1.103        0.361      119.221       19.325        0.026      339.897       13.547      854.438
10/15/2014  06:56:00       11.435      -64.355       -6.166      100.007       73.177       39.020    10001.402     5354.859     1522.574        1.059        0.844       65.363       46.508        0.506      339.960       13.652      854.486
10/15/2014  06:57:00      -11.317      -68.718      -13.659      185.199      143.885       56.664    34298.603    20702.869     3210.791        3.161        2.911       69.643       55.097        0.626      340.102       13.888      854.608
10/15/2014  06:58:00       95.608       52.948       75.367       87.552       57.303       58.855     7665.386     3283.629     3463.907        1.602        0.721      109.290       61.738        0.319      339.905       13.558      854.491
10/15/2014  06:59:00      -26.011     -169.996       24.526      160.054      168.834       75.901    25617.333    28504.772     5761.009        4.502        2.994      171.974       95.711        0.310      340.044       13.792      854.575
10/15/2014  07:00:00     -117.514     -106.053       12.735      141.213      100.833       61.893    19941.136    10167.274     3830.777        2.957        1.697      158.293       54.851        0.120      340.068       13.831      854.610
10/15/2014  07:01:00     -304.501     -222.314      -13.639      180.451      165.946       89.852    32562.585    27538.057     8073.329       10.524        3.409      377.020       68.182        0.033      340.111       13.902      854.702
10/15/2014  07:02:00     -212.751     -192.305        5.003      161.813      136.729       69.589    26183.377    18694.918     4842.586        6.599        2.486      286.783       80.093        0.078      340.090       13.866      854.693
10/15/2014  07:03:00     -109.818     -213.277       -3.248       62.590      116.276       40.974     3917.569    13520.133     1678.881        3.833        0.956      239.890       25.300        0.011      340.114       13.909      854.759
10/15/2014  07:04:00       76.604     -198.982       -4.532      159.952      126.018       61.763    25584.564    15880.586     3814.717        4.537        2.264      213.218       46.900        0.048      340.181       14.021      854.803
10/15/2014  07:05:00       40.900       78.146      174.302      110.488      222.023      142.117    12207.542    49294.292    20197.292        5.992        4.085       88.202      162.410        3.391      339.954       13.638      854.658
10/15/2014  07:06:00       -7.419      -21.631       16.616      120.111       62.631       50.204    14426.772     3922.626     2520.468        1.083        1.043       22.868       39.879        3.041      340.054       13.811      854.792
10/15/2014  07:07:00      -25.204      -13.158       33.003       54.636       89.980       45.422     2985.136     8096.358     2063.188        0.752        0.657       28.432       44.541        2.454      339.927       13.595      854.730
10/15/2014  07:08:00      -47.708     -101.213        2.849       79.359       96.222       29.178     6297.865     9258.735      851.363        1.447        0.820      111.893       35.261        0.099      340.049       13.801      854.757
10/15/2014  07:09:00     -142.936     -179.193       -2.953       89.711      105.573       50.353     8048.095    11145.579     2535.430        3.714        1.086      229.218       47.751        0.043      340.055       13.808      854.862
10/15/2014  07:10:00       29.499      -75.429       19.997       66.970       70.394       58.146     4484.978     4955.304     3380.953        0.989        0.641       80.992       47.901        0.350      339.977       13.681      854.913
10/15/2014  07:11:00      -54.383      -63.387       11.487      120.175      104.816       68.062    14442.114    10986.427     4632.494        1.858        1.503       83.519       54.004        0.418      340.068       13.833      854.904
10/15/2014  07:12:00        5.129      -91.516       47.514      116.666      159.685       92.951    13611.036    25499.168     8639.800        2.920        2.388       91.659      103.054        1.264      340.066       13.828      854.887
10/15/2014  07:13:00     -255.999     -217.812       -8.802      193.059      148.260       71.717    37271.812    21980.909     5143.292        8.871        3.220      336.121       78.978        0.055      340.099       13.883      854.886
10/15/2014  07:14:00     -203.558     -283.812        1.025      155.408      162.297       69.169    24151.741    26340.434     4784.287        8.862        2.764      349.263       70.246        0.040      340.085       13.859      854.940
10/15/2014  07:15:00     -273.232     -139.444      -16.475      264.387      117.040       66.806    69900.389    13698.476     4463.006        9.120        4.403      306.758       97.926        0.102      340.064       13.825      854.935
10/15/2014  07:16:00     -396.065     -363.959      -28.713      223.202      227.148       88.580    49819.332    51596.383     7846.365       19.969        5.463      537.897       89.706        0.028      340.053       13.804      854.848
10/15/2014  07:17:00     -422.677     -273.219      -11.342      217.853      168.130      103.151    47460.058    28267.544    10640.104       16.989        4.318      503.294      114.161        0.051      340.015       13.740      854.833
10/15/2014  07:18:00     -188.542     -141.532        7.348      198.992      139.876       62.849    39597.716    19565.219     3949.976        5.936        3.156      235.753       85.339        0.131      340.033       13.771      854.901
10/15/2014  07:19:00     -177.694     -211.923        3.053      147.161      145.730       75.763    21656.348    21237.251     5740.031        6.256        2.432      276.562       65.537        0.056      340.066       13.826      854.933
10/15/2014  07:20:00      -63.250      -81.180      -28.001       99.640       61.328       43.058     9928.223     3761.108     1854.026        1.346        0.777      102.911       21.825        0.045      340.123       13.927      854.870
10/15/2014  07:21:00      -89.716       -0.967       24.103       95.919       66.449       54.209     9200.427     4415.479     2938.628        1.259        0.828       89.721       35.926        0.160      340.099       13.886      854.945
10/15/2014  07:22:00     -142.402      -29.938       -4.775      114.985       47.497       35.287    13221.574     2255.978     1245.156        1.896        0.836      145.515       48.421        0.111      340.081       13.854      855.006
10/15/2014  07:23:00     -203.316      -30.279       -9.977       96.761       93.917       50.141     9362.614     8820.411     2514.112        3.152        1.035      205.559       53.060        0.067      340.033       13.773      854.906
10/15/2014  07:24:00     -115.350     -126.246      -19.086      254.288      141.443       89.570    64662.204    20006.137     8022.703        6.113        4.635      171.008       53.575        0.098      340.033       13.770      854.803
10/15/2014  07:25:00     -136.634     -182.404        4.353      145.499      159.996       68.404    21169.851    25598.765     4679.101        5.169        2.572      227.904       50.480        0.049      340.086       13.861      854.846
10/15/2014  07:26:00     -337.384     -149.227      -13.915      203.162      157.050       69.787    41274.986    24664.826     4870.244       10.354        3.541      368.913       76.720        0.043      340.017       13.744      854.789
10/15/2014  07:27:00     -106.346     -185.079      -12.759      120.466      120.179       59.213    14512.006    14442.885     3506.182        3.909        1.623      213.456       56.065        0.069      340.046       13.793      854.708
10/15/2014  07:28:00     -281.659     -252.092      -19.318      183.802      137.318       80.316    33783.246    18856.322     6450.696       10.116        2.955      377.997       65.153        0.030      340.081       13.851      854.769
10/15/2014  07:29:00      -32.764     -154.801       60.668      200.379      173.970      110.074    40151.642    30265.398    12116.325        5.561        4.127      158.231       98.239        0.385      340.084       13.859      854.693
10/15/2014  07:30:00     -128.399     -225.284       -0.061      122.428      122.702       72.816    14988.536    15055.887     5302.099        5.129        1.767      259.305       60.926        0.055      340.129       13.933      854.665
10/15/2014  07:31:00      -21.402     -159.034      -17.544       99.522       65.049       46.461     9904.581     4231.385     2158.659        2.117        0.815      160.468       18.533        0.013      340.183       14.026      854.668
10/15/2014  07:32:00       16.125      -94.472       21.741       73.039      102.154       67.089     5334.728    10435.528     4500.934        1.496        1.014       95.839       39.554        0.170      340.179       14.018      854.714
10/15/2014  07:33:00      -99.091      -82.984        9.002      104.811       95.688       42.147    10985.243     9156.191     1776.335        1.935        1.096      129.249       54.858        0.180      340.121       13.920      854.760
10/15/2014  07:34:00     -154.153      -15.361      -14.401       78.731       89.315       45.718     6198.576     7977.101     2090.093        2.023        0.813      154.916       47.573        0.094      340.060       13.818      854.741
10/15/2014  07:35:00     -117.922      -29.788       25.786       97.240      110.340       61.170     9455.578    12175.012     3741.812        2.041        1.269      121.626       69.204        0.324      340.062       13.822      854.681
10/15/2014  07:36:00      -54.764      -73.842       -2.630       65.730       53.259       33.311     4320.462     2836.508     1109.625        0.836        0.413       91.934       34.342        0.140      340.017       13.748      854.669
10/15/2014  07:37:00      -84.439      -85.978       10.487       72.176       88.887       34.334     5209.356     7900.935     1178.842        1.446        0.714      120.508       36.547        0.092      340.095       13.878      854.689
10/15/2014  07:38:00     -386.735     -261.425      -31.247      246.824      186.449       86.398    60922.142    34763.320     7464.541       16.100        5.158      466.805       65.761        0.020      340.043       13.786      854.684
10/15/2014  07:39:00     -114.695     -180.958       10.466       87.833      173.623       51.326     7714.721    30145.016     2634.402        4.325        2.025      214.245       39.926        0.035      340.086       13.862      854.727
10/15/2014  07:40:00     -123.662     -266.447       -7.427      101.020      200.898       67.197    10205.101    40359.937     4515.490        7.070        2.754      293.745       47.567        0.026      340.100       13.886      854.758
10/15/2014  07:41:00        3.013      -63.318        7.319      157.693      135.422       61.588    24866.996    18339.191     3793.119        2.553        2.350       63.389       67.857        1.146      340.120       13.919      854.808
10/15/2014  07:42:00      -23.675     -187.812       26.412      170.213      155.811       74.223    28972.371    24277.035     5509.094        4.764        2.938      189.298       96.083        0.258      340.076       13.844      854.822
10/15/2014  07:43:00     -228.900     -158.939      -13.265      144.518       95.087       67.116    20885.536     9041.592     4504.529        5.613        1.722      278.670       65.852        0.056      340.085       13.858      854.916
10/15/2014  07:44:00      -34.396     -214.710       -1.218       71.189      144.967       47.518     5067.899    21015.501     2257.997        3.781        1.417      217.448       38.802        0.032      340.130       13.936      854.908
10/15/2014  07:45:00      -46.257      -67.364       -4.673       81.081      114.400       39.954     6574.079    13087.280     1596.332        1.397        1.063       81.716       38.204        0.219      340.227       14.101      854.895
10/15/2014  07:46:00       35.220      -60.393       58.421      121.901      161.153       84.540    14859.843    25970.414     7146.942        2.813        2.399       69.913       96.961        1.923      340.206       14.063      854.916
10/15/2014  07:47:00      -25.457     -178.454       39.761      177.541      156.747       95.150    31520.632    24569.739     9053.482        4.960        3.257      180.261       89.369        0.246      340.187       14.030      854.988
10/15/2014  07:48:00     -216.755     -229.681      -15.919      160.931      146.586       66.993    25898.772    21487.560     4488.107        7.592        2.594      315.810       75.651        0.057      340.089       13.866      854.960
10/15/2014  07:49:00     -282.726     -230.128        6.392      193.609      224.345       70.092    37484.417    50330.818     4912.927       11.282        4.636      364.545       78.404        0.046      340.091       13.869      855.063
10/15/2014  07:50:00      -52.388     -221.228       -0.706      175.771      154.566       63.350    30895.306    23890.733     4013.207        5.523        2.940      227.347       54.171        0.057      340.141       13.954      855.155
10/15/2014  07:51:00      -20.546     -122.630      -18.445      106.991      124.958       67.064    11447.172    15614.496     4497.597        2.367        1.578      124.339       46.097        0.137      340.130       13.936      855.031
10/15/2014  07:52:00       81.186     -243.634       -3.824      123.182      127.014       76.413    15173.722    16132.642     5838.952        5.155        1.857      256.805       60.714        0.056      340.242       14.125      855.088
10/15/2014  07:53:00     -111.055     -209.557       17.372      166.622       98.391       68.231    27762.833     9680.794     4655.537        4.932        2.105      237.165       63.618        0.072      340.160       13.985      855.134
10/15/2014  07:54:00      -67.542      -87.976      -12.277      137.949      102.795       56.482    19029.827    10566.910     3190.236        2.261        1.639      110.914       42.273        0.145      340.169       14.001      855.233
10/15/2014  07:55:00     -104.383     -220.814       -1.108      192.804      173.884       80.937    37173.559    30235.754     6550.859        6.680        3.698      244.243       66.336        0.074      340.144       13.958      855.244
10/15/2014  07:56:00     -376.786     -223.089        1.687      270.793      205.761       96.906    73328.984    42337.704     9390.697       15.838        6.253      437.877      120.387        0.076      340.029       13.765      855.253
10/15/2014  07:57:00     -283.679     -170.257      -12.231      178.524      104.263       73.862    31870.851    10870.754     5455.581        7.890        2.410      330.849       81.172        0.060      339.987       13.693      855.282
10/15/2014  07:58:00     -288.829     -118.794       -3.843      146.331      124.269       71.438    21412.903    15442.840     5103.338        6.975        2.098      312.305       76.225        0.060      340.018       13.745      855.339
10/15/2014  07:59:00     -225.490     -149.243        0.923      139.803      159.544       62.688    19544.780    25454.361     3929.808        6.102        2.446      270.406       54.640        0.041      339.991       13.701      855.322
10/15/2014  08:00:00     -170.388     -203.925      -13.433      257.577      149.991       79.305    66346.011    22497.211     6289.232        8.295        4.757      265.739       68.823        0.067      339.999       13.714      855.339
10/15/2014  08:01:00     -194.802     -237.534       10.945      208.668      191.332       89.110    43542.147    36608.100     7940.514        9.128        4.405      307.197       97.439        0.101      339.973       13.671      855.312
10/15/2014  08:02:00     -133.816     -124.504        7.551      129.788       89.925       67.941    16844.981     8086.420     4615.955        3.150        1.477      182.779       61.260        0.112      339.967       13.660      855.376
10/15/2014  08:03:00     -395.198     -202.837       -8.469      192.637      140.691       79.591    37108.930    19793.925     6334.783       13.031        3.162      444.212       95.487        0.046      339.864       13.486      855.375
10/15/2014  08:04:00     -373.047     -142.215        1.454      291.613      221.164      106.244    85038.213    48913.330    11287.722       15.229        7.262      399.235      137.659        0.119      339.867       13.492      855.405
10/15/2014  08:05:00     -401.198     -273.870      -20.459      261.255      205.209      123.184    68254.393    42110.746    15174.385       18.094        6.277      485.761      130.342        0.072      339.833       13.434      855.291
10/15/2014  08:06:00     -337.694     -261.746      -23.502      179.098      145.688       85.212    32076.229    21225.071     7261.004       12.182        3.028      427.256       78.426        0.034      339.836       13.438      855.367
10/15/2014  08:07:00     -267.834     -233.319      -15.247      200.475      131.370       70.124    40190.135    17258.120     4917.428        9.437        3.118      355.208       73.705        0.043      339.862       13.483      855.450
10/15/2014  08:08:00      -86.436      -64.010       39.692      146.511      108.057       60.910    21465.604    11676.212     3710.054        2.499        1.843      107.556       66.563        0.383      339.885       13.523      855.461
10/15/2014  08:09:00     -131.608     -182.790        6.148      135.201      135.840       62.085    18279.266    18452.562     3854.505        4.567        2.029      225.240       73.265        0.106      339.919       13.579      855.486
10/15/2014  08:10:00     -209.829     -201.547        7.090      148.869      169.997       67.789    22162.091    28899.006     4595.332        7.017        2.783      290.945       82.809        0.081      339.875       13.505      855.625
10/15/2014  08:11:00     -314.110     -194.264       15.736      274.222      174.476      107.212    75197.588    30442.045    11494.383       12.687        5.857      369.329      113.738        0.095      339.838       13.442      855.654
10/15/2014  08:12:00     -426.791     -209.301      -10.020      211.229      190.552       79.918    44617.622    36310.136     6386.882       15.667        4.366      475.350       74.671        0.025      339.778       13.343      855.673
10/15/2014  08:13:00     -242.360     -116.311        6.369      209.049      149.882       60.931    43701.608    22464.567     3712.586        7.108        3.494      268.824       61.047        0.052      339.820       13.414      855.687
10/15/2014  08:14:00     -171.350     -139.954       -2.455      237.298      190.061       82.949    56310.251    36123.067     6880.488        7.412        4.966      221.242       72.441        0.107      339.858       13.475      855.673
10/15/2014  08:15:00      -38.986     -209.095       -7.776      116.786      119.610       59.792    13638.881    14306.433     3575.037        3.841        1.576      212.698       37.901        0.032      339.884       13.520      855.804
10/15/2014  08:16:00       10.213      -26.767      -33.411       55.523       79.590       52.639     3082.812     6334.514     2770.823        0.706        0.609       28.649       31.125        1.180      339.929       13.599      855.741
10/15/2014  08:17:00      -70.601      -78.707      -12.257      112.459       77.132       43.024    12647.044     5949.287     1851.051        1.588        1.022      105.732       34.935        0.109      340.037       13.781      855.737
10/15/2014  08:18:00     -219.757      -98.645       -3.935      134.169      123.653       54.135    18001.248    15289.974     2930.651        4.712        1.811      240.882       55.428        0.053      339.940       13.615      855.648
10/15/2014  08:19:00     -175.867     -167.090      -19.040      134.197       97.852       50.574    18008.820     9575.051     2557.748        4.467        1.507      242.586       62.115        0.066      339.879       13.511      855.686
10/15/2014  08:20:00     -323.148     -185.996       -1.098      131.396       86.635       60.169    17264.888     7505.671     3620.307        8.370        1.420      372.853       57.658        0.024      339.875       13.504      855.755
10/15/2014  08:21:00     -210.647     -171.654       -5.978      102.035       87.322       45.474    10411.185     7625.138     2067.896        4.699        1.005      271.730       49.640        0.033      339.957       13.642      855.790
10/15/2014  08:22:00     -286.992     -209.995       -2.452      148.116       84.052       66.467    21938.235     7064.656     4417.878        7.994        1.671      355.615       59.023        0.028      339.981       13.682      855.841
10/15/2014  08:23:00     -180.896     -213.006      -20.416      102.353      105.744       53.485    10476.227    11181.873     2860.664        5.151        1.226      279.455       35.450        0.016      340.030       13.766      855.957
10/15/2014  08:24:00      173.183      154.740       -1.372      148.979      129.441      106.954    22194.715    16755.025    11439.107        5.216        2.519      232.243       36.141        0.024      339.957       13.643      855.782
10/15/2014  08:25:00        5.613      -32.044       15.264       72.992       47.644       44.568     5327.869     2269.941     1986.281        0.544        0.479       32.532       33.082        1.034      340.012       13.739      855.783
10/15/2014  08:26:00     -129.734     -126.058       -8.017      149.391       76.452       57.026    22317.528     5844.977     3252.009        3.209        1.571      180.891       24.661        0.019      339.949       13.631      855.896
10/15/2014  08:27:00     -300.344     -134.178        5.848      181.681      157.679       75.760    33007.863    24862.649     5739.628        8.592        3.181      328.953       83.912        0.065      339.900       13.545      855.934
10/15/2014  08:28:00       -5.241     -198.128      -13.165       90.246       94.745       64.002     8144.319     8976.671     4096.238        3.033        1.061      198.197       62.095        0.098      340.003       13.723      855.916
10/15/2014  08:29:00       86.093      -71.000       64.805      227.209      241.065      157.211    51623.960    58112.383    24715.197        7.553        6.723      111.593      151.833        1.851      340.041       13.785      855.838
10/15/2014  08:30:00     -185.451     -227.051       10.157      139.157      111.735       97.293    19364.598    12484.697     9465.926        6.367        2.066      293.163       75.940        0.067      340.006       13.725      855.815
10/15/2014  08:31:00     -255.828     -195.827        4.170      135.723       99.215       66.282    18420.799     9843.637     4393.282        6.823        1.633      322.175       65.835        0.042      340.005       13.725      856.027
10/15/2014  08:32:00     -185.695     -142.850        0.853      116.184      118.034       55.301    13498.731    13931.911     3058.229        4.268        1.524      234.284       46.866        0.040      339.983       13.685      856.098
10/15/2014  08:33:00      -78.249      -25.074       25.035      126.822       91.517       54.065    16083.827     8375.312     2923.042        1.738        1.369       82.168       53.054        0.417      340.000       13.718      856.062
10/15/2014  08:34:00      -12.490      -68.072        5.786      111.986       62.793       41.561    12540.893     3942.982     1727.349        1.151        0.911       69.209       35.905        0.269      340.034       13.776      856.019
10/15/2014  08:35:00     -115.244     -145.026        6.981      105.556       93.468       48.394    11142.163     8736.189     2341.973        2.829        1.111      185.240       43.148        0.054      339.984       13.690      856.076
10/15/2014  08:36:00      -13.117     -162.774       -8.564      120.796      116.078       51.411    14591.603    13474.206     2643.078        2.872        1.535      163.302       51.771        0.101      340.009       13.731      856.022
10/15/2014  08:37:00     -140.938     -137.610      -12.078      116.813       94.767       54.923    13645.349     8980.841     3016.584        3.229        1.282      196.978       53.887        0.075      340.013       13.738      855.991
10/15/2014  08:38:00     -131.380     -186.516        1.185      100.431      107.772       68.992    10086.375    11614.769     4759.893        3.925        1.323      228.142       45.234        0.039      339.923       13.585      856.033
10/15/2014  08:39:00     -139.499     -254.434      -14.324      134.221       79.272       60.749    18015.221     6284.017     3690.451        5.619        1.399      290.167       52.799        0.033      339.965       13.656      856.028
10/15/2014  08:40:00     -208.768     -139.819       -7.406      187.534      109.285       82.943    35169.029    11943.141     6879.584        5.858        2.700      251.263       69.167        0.076      339.950       13.633      856.049
10/15/2014  08:41:00      -24.555     -174.698      -12.729       86.358       92.597       56.018     7457.702     8574.127     3137.999        2.522        0.958      176.415       48.428        0.075      340.099       13.883      856.046
10/15/2014  08:42:00      -65.923      -54.622        1.572       66.476       84.347       41.324     4419.087     7114.451     1707.706        1.028        0.662       85.612       41.824        0.239      340.063       13.825      856.039
10/15/2014  08:43:00       34.229      -40.148       18.120       83.403       72.859       46.583     6956.054     5308.374     2170.004        0.877        0.722       52.758       35.494        0.453      340.032       13.771      856.004
10/15/2014  08:44:00        1.389     -139.369       -2.093       74.450       79.825       41.275     5542.848     6372.101     1703.592        1.652        0.681      139.376       15.048        0.012      340.092       13.872      856.039
10/15/2014  08:45:00     -145.334     -123.241      -17.886       64.344       95.003       42.193     4140.174     9025.537     1780.227        2.579        0.747      190.553       30.231        0.025      340.004       13.723      856.131
10/15/2014  08:46:00      -34.683      -99.630       -1.308       48.315       40.397       34.813     2334.298     1631.900     1211.914        0.815        0.259      105.494       18.403        0.030      340.097       13.882      856.198
10/15/2014  08:47:00        3.319      -69.755       -3.563       54.055       64.248       42.182     2921.991     4127.835     1779.343        0.686        0.441       69.834       27.807        0.159      340.049       13.800      856.200
10/15/2014  08:48:00     -157.929     -197.533        3.574       92.271      137.939       50.991     8513.893    19027.296     2600.054        4.705        1.507      252.905       43.446        0.030      340.085       13.860      856.301
10/15/2014  08:49:00     -283.235     -179.751       -9.464      136.318      194.515       84.550    18582.710    37835.930     7148.640        8.808        3.178      335.458       74.086        0.049      339.980       13.681      856.308
10/15/2014  08:50:00     -183.777     -252.307      -21.677      109.202      111.930       52.982    11925.054    12528.266     2807.059        6.258        1.363      312.143       47.706        0.023      339.989       13.696      856.369
10/15/2014  08:51:00     -125.118     -145.672        0.386       94.187       71.748       45.930     8871.159     5147.798     2109.564        2.650        0.806      192.028       35.979        0.035      340.004       13.724      856.371
10/15/2014  08:52:00     -252.093      -20.351       -9.841      133.923       87.594       58.777    17935.485     7672.736     3454.742        4.656        1.453      252.913       66.718        0.070      340.116       13.910      856.280
10/15/2014  08:53:00     -263.661      -64.008        7.647      127.980      126.203       66.697    16378.847    15927.090     4448.435        5.521        1.838      271.319       65.346        0.058      340.159       13.985      856.275
10/15/2014  08:54:00      -89.021     -131.149        7.065       84.325       81.330       42.935     7110.676     6614.502     1843.374        2.037        0.778      158.508       36.464        0.053      340.215       14.079      856.359
10/15/2014  08:55:00     -154.757     -211.752       -7.146       95.558       83.836       51.033     9131.289     7028.540     2604.357        4.380        0.938      262.276       49.657        0.036      340.197       14.046      856.425
10/15/2014  08:56:00     -277.263     -101.146      -12.476      103.495       98.643       52.848    10711.159     9730.468     2792.897        5.524        1.162      295.136       49.292        0.028      340.161       13.987      856.527
10/15/2014  08:57:00       10.331      115.336       13.354      208.573      160.778       84.495    43502.687    25849.634     7139.403        4.503        3.825      115.798       60.257        0.271      340.132       13.939      856.432
10/15/2014  08:58:00      -56.776      -48.139      -26.360      105.316      116.577       51.984    11091.392    13590.280     2702.338        1.681        1.369       74.437       26.606        0.128      340.108       13.900      856.382
10/15/2014  08:59:00      -39.200      -95.829       -6.381      100.224       76.483       53.642    10044.884     5849.631     2877.447        1.476        0.939      103.537       52.140        0.254      340.151       13.971      856.440
10/15/2014  09:00:00      -61.501     -122.025      -12.254       75.077       92.394       35.322     5636.507     8536.664     1247.649        1.712        0.771      136.647       41.102        0.090      340.123       13.925      856.426
10/15/2014  09:01:00     -129.017     -107.108       11.366      125.749       53.717       30.778    15812.914     2885.548      947.276        2.394        0.982      167.683       21.184        0.016      340.123       13.926      856.499
10/15/2014  09:02:00     -297.555     -166.638      -19.387       92.045       88.572       46.143     8472.363     7844.987     2129.189        6.756        0.922      341.038       14.199        0.002      340.154       13.975      856.686
10/15/2014  09:03:00     -208.064     -198.380       -4.633      215.519      104.922       77.464    46448.225    11008.691     6000.748        7.305        3.173      287.481       78.135        0.074      339.984       13.689      856.769
10/15/2014  09:04:00     -137.068     -211.140      -28.728      102.712       69.949       42.174    10549.677     4892.860     1778.647        4.070        0.861      251.729       39.599        0.025      339.897       13.542      856.760
10/15/2014  09:05:00     -117.030      -73.591        8.670      157.575      105.642       56.318    24830.034    11160.194     3171.688        2.917        1.958      138.245       66.027        0.228      339.993       13.706      856.778
10/15/2014  09:06:00       55.358      -91.138        4.770      103.439       97.098       42.135    10699.686     9427.947     1775.333        1.664        1.095      106.634       60.115        0.318      340.051       13.803      856.759
10/15/2014  09:07:00       45.375     -144.759       -4.551      106.515      100.448       58.198    11345.351    10089.702     3386.970        2.392        1.241      151.703       46.643        0.095      340.107       13.897      856.838
10/15/2014  09:08:00       59.694     -140.140       -3.874       82.836       86.992       46.892     6861.849     7567.650     2198.843        1.992        0.831      152.324       48.691        0.102      340.088       13.864      856.885
10/15/2014  09:09:00       23.740     -110.399       -5.192       84.239       78.790       43.862     7096.239     6207.938     1923.851        1.400        0.761      112.923       44.003        0.152      340.084       13.859      856.898
10/15/2014  09:10:00      -59.414      -39.089       11.248       55.372       63.711       38.394     3066.065     4059.032     1474.094        0.689        0.430       71.119       41.674        0.343      340.067       13.833      856.924
10/15/2014  09:11:00      -99.486     -112.671       -4.487       94.686       66.662       44.190     8965.503     4443.859     1952.773        1.898        0.768      150.307       44.528        0.088      340.009       13.733      856.944
10/15/2014  09:12:00      -68.031      -98.830      -14.710       47.878       84.909       39.450     2292.320     7209.456     1556.276        1.283        0.553      119.981       27.819        0.054      339.853       13.470      856.893
10/15/2014  09:13:00     -114.087      -82.671        2.617       76.736       77.170       38.699     5888.360     5955.204     1497.584        1.660        0.667      140.891       30.973        0.048      339.907       13.561      856.927
10/15/2014  09:14:00     -122.778      -31.759        8.897      129.006       70.824       57.353    16642.610     5016.055     3289.414        2.055        1.247      126.819       69.035        0.296      339.812       13.400      856.918
10/15/2014  09:15:00        7.278     -116.273       20.587      102.259      134.276       52.670    10456.868    18030.003     2774.113        2.262        1.563      116.500       32.916        0.080      339.830       13.433      856.893
10/15/2014  09:16:00     -160.857     -113.679       -3.605      127.648       76.508       48.763    16294.094     5853.496     2377.814        3.166        1.226      196.972       58.638        0.089      339.831       13.433      856.953
10/15/2014  09:17:00     -267.711     -138.439      -29.395      111.757       94.916       62.143    12489.658     9009.095     3861.752        5.853        1.268      301.388       65.698        0.048      339.805       13.388      856.972
10/15/2014  09:18:00     -161.450     -121.037        6.102      117.319       79.013       46.709    13763.727     6243.015     2181.712        3.147        1.109      201.782       49.429        0.060      339.820       13.412      857.009
10/15/2014  09:19:00     -211.417     -144.557       11.952      139.196      126.039       70.953    19375.517    15885.849     5034.378        5.301        2.015      256.113       85.289        0.111      339.858       13.475      857.054
10/15/2014  09:20:00      -92.495     -139.953       -1.341      133.914       83.016       50.234    17932.845     6891.603     2523.454        2.774        1.367      167.756       55.116        0.108      339.858       13.477      857.024
10/15/2014  09:21:00     -288.805     -122.877      -12.288      164.635      125.706       63.327    27104.563    15801.902     4010.291        7.278        2.346      313.858       69.296        0.049      339.821       13.414      857.031
10/15/2014  09:22:00      -94.217        7.649        7.004       88.102       56.345       41.069     7761.937     3174.745     1686.630        1.080        0.631       94.527       44.974        0.226      339.807       13.392      857.127
10/15/2014  09:23:00      -75.274      -48.542       10.210       95.654       51.288       40.578     9149.621     2630.440     1646.564        1.077        0.671       89.569       39.303        0.193      339.802       13.385      857.192
10/15/2014  09:24:00     -420.628     -176.934      -10.728      194.998      171.159       75.726    38024.070    29295.397     5734.445       14.069        3.653      456.326       76.464        0.028      339.838       13.441      857.222
10/15/2014  09:25:00     -248.915     -145.957       18.567      186.246      162.286       80.524    34687.689    26336.866     6484.049        7.555        3.375      288.552       85.959        0.089      340.050       13.801      857.247
10/15/2014  09:26:00     -368.216     -191.105      -13.845      166.538      142.950       69.566    27734.761    20434.598     4839.426       11.264        2.650      414.855       81.501        0.039      340.099       13.882      857.310
10/15/2014  09:27:00      -87.492     -171.258      -17.123      178.410      123.012       63.338    31830.078    15131.843     4011.695        4.412        2.549      192.312       73.804        0.147      340.217       14.083      857.415
10/15/2014  09:28:00     -141.352      -94.594       -1.772       98.418       79.223       51.023     9686.021     6276.299     2603.304        2.375        0.928      170.083       36.863        0.047      340.218       14.086      857.390
10/15/2014  09:29:00      -46.984      -94.257        9.333      107.542       96.921       55.844    11565.236     9393.622     3118.568        1.762        1.204      105.318       58.035        0.304      340.214       14.078      857.328
10/15/2014  09:30:00     -307.651     -302.978       -0.112      165.975      162.763       89.335    27547.606    26491.850     7980.739       12.422        3.101      431.793       88.744        0.042      339.962       13.651      857.388
10/15/2014  09:31:00     -238.606     -139.288        4.332      160.772      127.682       70.508    25847.688    16302.719     4971.352        6.173        2.356      276.286       76.256        0.076      339.904       13.554      857.448
10/15/2014  09:32:00     -249.910      -85.955       -5.105      149.284      102.285       61.048    22285.705    10462.258     3726.906        5.317        1.824      264.279       68.986        0.068      339.848       13.460      857.494
10/15/2014  09:33:00     -375.946     -133.223      -13.599      176.667      142.531       75.341    31211.104    20315.138     5676.218       10.823        2.860      398.853       74.570        0.035      339.839       13.443      857.602
10/15/2014  09:34:00     -400.968     -280.569       -6.925      242.501      166.543       97.221    58806.829    27736.560     9451.849       16.775        4.800      489.381      118.268        0.058      339.727       13.256      857.603
10/15/2014  09:35:00     -399.226     -159.989      -20.064      165.665      156.465       73.968    27444.953    24481.391     5471.232       12.138        2.870      430.091       73.273        0.029      339.711       13.229      857.626
10/15/2014  09:36:00     -408.272     -251.718      -12.814      321.410      146.154       86.511   103304.107    21361.022     7484.138       18.116        6.607      479.633      110.306        0.053      339.723       13.249      857.582
10/15/2014  09:37:00     -567.417     -308.269      -17.780      313.408      196.450      118.062    98224.510    38592.551    13938.624       28.401        7.538      645.749      145.473        0.051      339.703       13.215      857.514
10/15/2014  09:38:00     -462.027     -360.241       -4.084      223.919      240.778      115.106    50139.877    57973.988    13249.391       23.229        6.068      585.869      128.419        0.048      339.698       13.207      857.495
10/15/2014  09:39:00     -410.519     -250.946       -8.161      239.387      167.290       90.654    57306.105    27985.822     8218.164       16.252        4.676      481.144      104.059        0.047      339.678       13.174      857.540
10/15/2014  09:40:00     -346.754     -219.889        9.082      187.824      140.355       90.728    35277.845    19699.557     8231.501       11.593        3.160      410.596       93.868        0.052      339.691       13.194      857.549
10/15/2014  09:41:00     -535.204     -186.910      -21.731      226.300      160.975       91.650    51211.735    25912.987     8399.655       20.367        4.276      566.902       89.487        0.025      339.675       13.168      857.570
10/15/2014  09:42:00     -375.446     -248.521        0.357      242.028      192.561      129.336    58577.520    37079.782    16727.686       15.754        5.619      450.247      142.565        0.100      339.713       13.231      857.618
10/15/2014  09:43:00     -426.495     -248.836      -10.880      231.184      159.200      112.264    53446.212    25344.484    12603.150       16.765        4.570      493.779      128.710        0.068      339.702       13.214      857.725
10/15/2014  09:44:00     -346.204      -83.632       -9.195      305.247      155.884       89.557    93175.736    24299.881     8020.491       12.620        6.275      356.162      126.515        0.126      339.700       13.212      857.631
10/15/2014  09:45:00     -364.488     -144.808       -4.228      177.511      151.226       77.718    31509.978    22869.198     6040.158       10.712        3.021      392.200       76.093        0.038      339.675       13.168      857.510
10/15/2014  09:46:00     -429.730     -197.595       -7.870      227.277      209.208      102.962    51654.829    43767.852    10601.142       16.488        5.301      472.982      100.936        0.046      339.653       13.129      857.459
10/15/2014  09:47:00     -423.080     -268.958       -8.243      225.614      204.916      105.556    50901.526    41990.623    11142.070       17.770        5.202      501.333      118.713        0.056      339.655       13.133      857.518
10/15/2014  09:48:00     -520.276     -296.983      -13.837      288.050      266.117      132.166    82972.763    70818.080    17467.956       26.514        8.563      599.071      155.435        0.067      339.656       13.135      857.456
10/15/2014  09:49:00     -620.851     -343.308      -27.651      366.109      274.569      140.889   134036.128    75388.402    19849.750       36.664       11.464      709.448      151.640        0.046      339.842       13.450      857.606
10/15/2014  09:50:00     -280.607     -177.515      -29.952      337.529      230.316       98.093   113925.812    53045.606     9622.143       14.384        8.830      332.041       88.738        0.071      340.109       13.899      857.724
10/15/2014  09:51:00     -429.591     -306.205      -12.231      174.781      149.704       81.027    30548.390    22411.336     6565.427       16.898        2.976      527.551       85.699        0.026      339.864       13.485      857.865
10/15/2014  09:52:00     -443.623     -198.049      -21.631      230.884      182.375       82.744    53307.268    33260.561     6846.574       16.494        4.671      485.824       93.975        0.037      339.707       13.222      857.885
10/15/2014  09:53:00     -426.165     -186.293      -14.375      231.329      205.163      114.997    53513.248    42091.762    13224.319       16.266        5.441      465.104      126.463        0.074      339.707       13.222      857.916
10/15/2014  09:54:00     -473.598     -161.497      -29.925      202.173      140.601       79.386    40873.847    19768.628     6302.081       15.910        3.347      500.376       86.364        0.030      339.715       13.237      858.000
10/15/2014  09:55:00     -393.427     -195.513      -18.654      217.102      211.104       99.878    47133.299    44564.818     9975.529       14.750        5.084      439.329      111.163        0.064      339.680       13.177      858.007
10/15/2014  09:56:00     -403.734     -186.343       -5.366      207.026      177.730       96.712    42859.617    31587.984     9353.212       14.076        4.190      444.663      104.261        0.055      339.676       13.170      858.047
10/15/2014  09:57:00     -443.383     -181.171        8.886      375.672      213.213      139.452   141129.791    45459.852    19446.896       21.773       10.302      478.970      173.841        0.132      339.802       13.381      858.013
10/15/2014  09:58:00     -642.065     -377.008      -14.862      298.313      289.449      133.408    88990.891    83780.779    17797.784       37.255        9.528      744.569      165.047        0.049      339.741       13.279      858.147
10/15/2014  09:59:00     -579.199     -334.765      -21.510      282.929      231.830      122.898    80049.079    53745.037    15103.801       29.843        7.445      668.984      145.891        0.048      339.737       13.273      858.253
10/15/2014  10:00:00     -405.564     -280.900      -11.684      255.982      146.497       86.762    65526.962    21461.234     7527.680       16.900        4.726      493.343       98.222        0.040      339.681       13.179      858.349
10/15/2014  10:01:00     -285.285     -265.496       -5.431      179.149      143.113       75.411    32094.539    20481.439     5686.874       10.507        2.913      389.712       82.768        0.045      339.729       13.259      858.309
10/15/2014  10:02:00     -420.294     -214.106        9.484      241.874      195.549       88.496    58502.896    38239.433     7831.501       16.356        5.229      471.687      113.098        0.057      339.615       13.065      858.360
10/15/2014  10:03:00     -331.374     -127.689        3.964      213.218      152.328       83.686    45461.825    23203.929     7003.280       10.089        3.783      355.124      104.995        0.087      339.582       13.011      858.392
10/15/2014  10:04:00     -305.259     -144.287        8.418      211.248      200.404       85.486    44625.642    40161.731     7307.922       10.307        4.605      337.642       99.428        0.087      339.494       12.864      858.371
10/15/2014  10:05:00     -420.891     -301.925       -7.382      258.960      180.872      107.849    67060.173    32714.716    11631.333       18.987        5.570      517.984      130.923        0.064      339.458       12.802      858.366
10/15/2014  10:06:00     -505.403     -273.249       -5.975      225.444      170.079       92.895    50824.996    28926.968     8629.532       20.924        4.419      574.541      108.911        0.036      339.411       12.723      858.381
10/15/2014  10:07:00     -397.303     -206.265       -0.170      242.886      186.780      100.474    58993.368    34886.880    10094.986       15.217        5.199      447.655      114.110        0.065      339.422       12.741      858.400
10/15/2014  10:08:00     -489.137     -143.426      -22.324      290.758      194.005      104.458    84539.960    37637.829    10911.502       19.668        6.654      509.732      126.481        0.062      339.416       12.732      858.375
10/15/2014  10:09:00     -395.175     -187.155        1.351      213.135      210.857       94.438    45426.367    44460.828     8918.531       14.498        4.940      437.253      105.150        0.058      339.416       12.731      858.378
10/15/2014  10:10:00     -398.575      -55.573      -14.444      195.069      149.787       77.503    38051.981    22436.103     6006.731       11.432        3.325      402.431       90.381        0.050      339.419       12.736      858.363
10/15/2014  10:11:00     -324.996     -245.475       -0.784      204.555      186.610       93.536    41842.598    34823.362     8749.048       12.563        4.271      407.284      110.920        0.074      339.425       12.746      858.381
10/15/2014  10:12:00     -339.324     -152.353        4.549      177.761      123.109       83.212    31598.820    15155.715     6924.312        9.602        2.684      371.958       92.356        0.062      339.444       12.778      858.406
10/15/2014  10:13:00     -217.706     -151.473       -0.839      167.960      146.144       66.266    28210.478    21357.962     4391.242        6.214        2.698      265.217       74.520        0.079      339.475       12.831      858.389
10/15/2014  10:14:00     -341.804     -239.309        4.010      208.013      159.828       90.853    43269.458    25545.145     8254.184       12.558        3.853      417.251      107.140        0.066      339.393       12.692      858.366
10/15/2014  10:15:00     -289.602     -256.808      -11.777      152.865      140.810       88.365    23367.784    19827.520     7808.293       10.047        2.550      387.065       85.354        0.049      339.424       12.745      858.399
10/15/2014  10:16:00     -434.534     -329.052       -7.406      270.549      206.223      115.645    73196.910    42527.997    13373.840       21.310        6.455      545.064      131.705        0.058      339.425       12.747      858.415
10/15/2014  10:17:00     -436.476     -260.135      -18.655      201.216      138.568       82.465    40487.833    19201.229     6800.520       16.250        3.324      508.116       83.887        0.027      339.439       12.769      858.464
10/15/2014  10:18:00     -413.067     -188.952        2.201      191.386      146.806      103.405    36628.586    21551.923    10692.654       13.759        3.444      454.232      111.013        0.060      339.456       12.798      858.488
10/15/2014  10:19:00     -365.140      -97.239       -5.092      182.002      163.597       87.307    33124.740    26763.949     7622.442       10.515        3.376      377.866       92.394        0.060      339.460       12.804      858.502
10/15/2014  10:20:00     -338.597     -127.722       -7.264      176.522      156.804       82.772    31160.062    24587.566     6851.136        9.680        3.130      361.885       87.971        0.059      339.485       12.846      858.492
10/15/2014  10:21:00     -343.254     -268.654      -25.905      168.711      172.473       91.100    28463.275    29746.808     8299.277       12.858        3.325      435.888       81.325        0.035      339.447       12.784      858.487
10/15/2014  10:22:00     -449.833     -174.800      -14.707      199.057      166.986       86.072    39623.551    27884.462     7408.314       15.401        3.746      482.602       86.406        0.032      339.466       12.815      858.498
10/15/2014  10:23:00     -434.632     -191.677      -30.910      185.209      194.949       82.775    34302.339    38005.236     6851.713       15.287        3.958      475.021       78.412        0.027      339.473       12.827      858.460
10/15/2014  10:24:00     -478.380     -329.188      -30.367      236.175      176.709      106.066    55778.405    31226.133    11249.971       21.818        4.913      580.699      111.572        0.037      339.460       12.806      858.409
10/15/2014  10:25:00     -530.513     -241.588      -28.416      206.690      147.968       95.659    42720.759    21894.522     9150.570       20.718        3.688      582.931       96.737        0.028      339.462       12.808      858.385
10/15/2014  10:26:00     -420.855     -216.620       -8.539      254.637      213.947      102.895    64840.064    45773.189    10587.283       17.264        6.060      473.332      117.507        0.062      339.492       12.859      858.412
10/15/2014  10:27:00     -385.616     -275.605        4.129      268.597      183.045      127.369    72144.357    33505.633    16222.845       17.325        6.094      473.981      158.464        0.112      339.550       12.957      858.355
10/15/2014  10:28:00     -411.508     -225.679        7.096      299.650      207.412      120.044    89790.215    43019.549    14410.473       18.375        7.361      469.330      158.545        0.114      339.520       12.906      858.386
10/15/2014  10:29:00     -428.087      -39.750      -12.279      197.164      179.032       90.695    38873.696    32052.611     8225.525       13.206        3.958      429.929      108.463        0.064      339.550       12.957      858.411
10/15/2014  10:30:00     -422.981      -48.053      -10.886      236.204      199.338      108.478    55792.441    39735.776    11767.554       14.430        5.365      425.702      118.670        0.078      339.568       12.986      858.385
10/15/2014  10:31:00     -372.659     -156.814        7.784      273.704      174.998      109.893    74913.868    30624.315    12076.471       14.055        5.881      404.308      117.454        0.084      339.610       13.059      858.377
10/15/2014  10:32:00     -436.989      -56.755        0.942      226.777      196.775      101.362    51427.911    38720.452    10274.179       14.729        5.021      440.659      103.640        0.055      339.611       13.061      858.367
10/15/2014  10:33:00     -573.904     -428.744      -28.836      293.460      212.546      130.767    86119.005    45175.921    17100.086       33.118        7.420      716.371      136.324        0.036      339.551       12.957      858.311
10/15/2014  10:34:00     -310.894     -289.785        9.013      245.039      188.079      128.457    60044.084    35373.790    16501.323       14.630        5.596      425.006      134.194        0.100      339.610       13.058      858.376
10/15/2014  10:35:00     -368.474     -255.380       -7.012      248.399      167.538       97.958    61702.312    28069.092     9595.784       15.019        4.968      448.321      114.745        0.066      339.605       13.051      858.355
10/15/2014  10:36:00     -378.784      -40.402        2.576      268.991      202.295       94.438    72356.279    40923.099     8918.516       13.364        6.110      380.932      113.904        0.089      339.645       13.118      858.309
10/15/2014  10:37:00     -457.799     -297.218       10.657      411.117      298.096      140.676   169017.046    88861.110    19789.840       28.780       13.883      545.819      177.172        0.105      339.652       13.129      858.282
10/15/2014  10:38:00     -550.470     -349.882      -32.226      314.259      230.167      139.587    98758.412    52976.812    19484.442       29.882        8.561      652.254      158.370        0.059      339.656       13.136      858.321
10/15/2014  10:39:00     -521.566     -305.450       15.943      276.988      268.222      124.005    76722.097    71943.043    15377.231       26.479        8.202      604.426      144.589        0.057      339.626       13.084      858.365
10/15/2014  10:40:00     -414.111     -174.398        8.458      266.719      191.465       97.598    71139.126    36658.765     9525.304       15.963        5.866      449.336      112.493        0.063      339.658       13.139      858.359
10/15/2014  10:41:00     -438.363     -269.285       -9.603      234.706      224.073      115.530    55087.029    50208.829    13347.178       19.169        5.932      514.467      119.856        0.054      339.606       13.052      858.419
10/15/2014  10:42:00     -284.552     -189.636       19.833      266.293      212.278       91.890    70911.758    45061.804     8443.864       12.085        6.221      341.953      126.565        0.137      339.617       13.070      858.454
10/15/2014  10:43:00     -446.012     -232.279       -9.772      256.682      230.787      113.460    65885.605    53262.752    12873.148       19.248        6.601      502.872      134.197        0.071      339.580       13.007      858.457
10/15/2014  10:44:00     -414.516     -243.901        3.034      281.724      229.839      125.045    79368.297    52825.886    15636.281       18.955        7.392      480.948      151.278        0.099      339.530       12.925      858.447
10/15/2014  10:45:00     -459.695     -225.253       -9.858      266.139      257.242      106.626    70829.797    66173.251    11369.008       20.524        7.419      511.916      107.960        0.044      339.521       12.906      858.480
10/15/2014  10:46:00     -570.445     -352.960      -26.443      288.879      185.716      112.861    83450.873    34490.396    12737.635       29.066        6.534      670.811      139.176        0.043      339.463       12.811      858.445
10/15/2014  10:47:00     -301.173     -114.912        9.657      250.395      171.908      109.974    62697.864    29552.467    12094.284       10.416        5.217      322.350      124.674        0.150      339.550       12.958      858.492
10/15/2014  10:48:00     -381.200     -288.952       17.148      269.897      213.583      118.373    72844.225    45617.575    14012.082       18.077        6.624      478.338      141.236        0.087      339.519       12.904      858.448
10/15/2014  10:49:00     -434.384     -267.562       -2.518      271.307      193.793      115.663    73607.409    37555.536    13377.973       19.239        6.227      510.176      144.254        0.080      339.532       12.928      858.537
10/15/2014  10:50:00     -620.219     -320.684      -48.409      246.251      222.651      116.147    60639.767    49573.336    13490.155       30.676        6.185      698.219      122.680        0.031      339.464       12.812      858.540
10/15/2014  10:51:00     -366.969     -263.762       -0.187      247.863      222.116      115.709    61436.296    49335.387    13388.666       16.418        6.208      451.925      127.284        0.079      339.513       12.895      858.588
10/15/2014  10:52:00     -565.604     -248.847      -14.400      274.322      243.660      117.204    75252.596    59370.128    13736.893       26.517        7.418      617.926      121.675        0.039      339.447       12.784      858.560
10/15/2014  10:53:00     -442.606     -260.242      -19.450      237.454      198.295      109.338    56384.285    39320.824    11954.826       18.581        5.383      513.445      104.245        0.041      339.489       12.854      858.586
10/15/2014  10:54:00     -454.687     -327.348      -25.193      224.612      172.866      105.502    50450.504    29882.776    11130.688       20.298        4.573      560.265      112.796        0.041      339.451       12.790      858.604
10/15/2014  10:55:00     -446.415     -280.038       -2.822      324.246      232.249      138.041   105135.746    53939.503    19055.340       22.789        8.907      526.980      154.227        0.086      339.469       12.820      858.553
10/15/2014  10:56:00     -644.817     -292.097      -23.794      273.123      294.360      125.845    74596.435    86647.961    15837.086       33.935        8.854      707.891      134.851        0.036      339.440       12.772      858.678
10/15/2014  10:57:00     -598.153     -329.183      -27.534      312.214      190.676      106.443    97477.602    36357.490    11330.205       30.601        7.258      682.751      125.890        0.034      339.459       12.803      858.746
10/15/2014  10:58:00     -533.114     -259.687      -25.435      250.974      205.400      121.963    62987.929    42189.102    14874.900       23.615        6.003      592.999      130.814        0.049      339.473       12.826      858.728
10/15/2014  10:59:00     -449.092     -210.565      -15.491      289.662      234.324      123.579    83904.059    54907.688    15271.729       20.015        7.704      496.006      153.677        0.096      339.511       12.891      858.809
10/15/2014  11:00:00     -473.433     -244.323      -20.163      232.223      232.444      106.038    53927.530    54030.300    11244.072       20.170        5.960      532.760      101.522        0.036      339.487       12.850      858.909
10/15/2014  11:01:00     -401.068     -257.916      -11.896      207.690      167.297       96.518    43135.085    27988.221     9315.730       15.397        4.022      476.840       98.172        0.042      339.499       12.872      858.934
10/15/2014  11:02:00     -248.050     -201.513        6.714      183.398      147.448       89.439    33634.866    21740.969     7999.417        8.277        3.169      319.588       82.958        0.067      339.553       12.961      858.981
10/15/2014  11:03:00     -461.212     -285.576        7.052      348.099      269.527      131.549   121173.025    72645.072    17305.192       25.269       10.556      542.467      164.204        0.092      339.579       13.004      858.912
10/15/2014  11:04:00     -465.564     -120.909       -0.183      258.794      238.546      111.240    66974.568    56904.424    12374.231       18.379        6.813      481.008      122.572        0.065      339.677       13.171      858.899
10/15/2014  11:05:00     -393.800     -204.111        4.098      264.168      212.336      111.085    69784.560    45086.703    12339.850       16.196        6.361      443.554      137.910        0.097      339.690       13.194      858.938
10/15/2014  11:06:00     -469.149     -348.628       -6.393      235.385      189.560      110.891    55406.324    35932.822    12296.780       22.264        5.182      584.502      121.851        0.043      339.629       13.091      858.925
10/15/2014  11:07:00     -612.738     -337.034      -18.904      320.428      277.996      138.619   102673.935    77281.592    19215.174       34.425        9.959      699.314      159.096        0.052      339.632       13.095      858.889
10/15/2014  11:08:00     -541.149     -289.316       -5.589      201.338      225.476      112.662    40537.016    50839.389    12692.685       24.031        5.203      613.634      120.280        0.038      339.635       13.099      858.961
10/15/2014  11:09:00     -419.549     -208.800       -1.758      279.127      223.125      109.646    77911.804    49784.915    12022.332       17.965        6.986      468.635      146.119        0.097      339.705       13.218      858.917
10/15/2014  11:10:00     -319.859     -164.420      -13.762      186.077      132.451       68.946    34624.640    17543.153     4753.596        9.322        2.846      359.644       71.728        0.040      339.754       13.302      858.945
10/15/2014  11:11:00     -579.406     -260.572      -29.035      240.239      187.565      111.960    57714.895    35180.655    12535.000       25.492        5.272      635.303      128.525        0.041      339.640       13.109      858.883
10/15/2014  11:12:00     -494.650     -389.280      -16.451      273.318      248.148      136.030    74702.610    61577.360    18504.269       27.561        7.739      629.458      155.444        0.061      339.724       13.251      858.850
10/15/2014  11:13:00     -334.757     -249.388        2.185      263.234      185.604      119.360    69291.971    34448.945    14246.718       14.610        5.899      417.441      136.602        0.107      339.744       13.284      858.869
10/15/2014  11:14:00     -365.092     -193.855       -0.863      263.691      197.272      108.599    69533.091    38916.225    11793.838       14.554        6.012      413.367      118.138        0.082      339.817       13.407      858.873
10/15/2014  11:15:00     -491.184     -194.594      -22.770      293.665      199.841      106.409    86239.292    39936.247    11322.973       20.855        6.875      528.326      128.662        0.059      339.763       13.317      858.880
10/15/2014  11:16:00     -362.768     -271.479       -4.456      229.719      154.140      105.676    52770.844    23759.085    11167.318       14.649        4.385      453.102      102.072        0.051      339.770       13.328      858.869
10/15/2014  11:17:00     -307.993     -210.476       18.216      233.329      187.556      108.226    54442.419    35177.226    11712.804       12.040        5.067      373.041      125.815        0.114      339.830       13.429      858.847
10/15/2014  11:18:00     -462.292     -213.003        2.101      306.648      246.523      130.269    94033.268    60773.725    16970.123       21.540        8.589      509.003      151.674        0.089      339.855       13.470      858.852
10/15/2014  11:19:00     -707.742     -297.451      -47.322      369.803      240.099      125.566   136754.053    57647.480    15766.851       40.086       10.508      767.708      165.774        0.047      339.829       13.427      858.876
10/15/2014  11:20:00     -671.016     -373.905      -26.493      388.741      212.700      122.143   151119.829    45241.304    14918.917       40.099       10.564      768.158      138.506        0.033      339.755       13.303      858.912
10/15/2014  11:21:00     -531.602     -267.859      -32.442      275.196      233.914      122.346    75733.079    54715.939    14968.591       25.039        7.271      595.272      120.661        0.041      339.804       13.385      858.899
10/15/2014  11:22:00     -449.906      -91.819        3.723      331.310      216.766      125.858   109766.252    46987.455    15840.255       19.170        8.630      459.179      153.841        0.112      339.857       13.475      858.987
10/15/2014  11:23:00     -331.400     -170.193       23.691      206.202      202.032      104.446    42519.419    40817.093    10908.876       11.678        4.712      372.547      117.300        0.099      339.896       13.541      859.073
10/15/2014  11:24:00     -254.838     -153.554       26.707      226.953      163.486      110.836    51507.885    26727.600    12284.572        8.986        4.526      297.525      131.623        0.196      339.872       13.499      859.054
10/15/2014  11:25:00     -478.990     -255.573       -6.343      324.665      225.285      129.794   105407.105    50753.380    16846.569       23.387        8.650      542.908      158.608        0.085      339.840       13.446      859.038
10/15/2014  11:26:00     -502.870     -281.453       -3.838      331.500      250.070      135.355   109892.242    62535.182    18321.080       26.140        9.537      576.276      171.110        0.088      339.839       13.443      859.047
10/15/2014  11:27:00     -642.739     -335.927      -11.592      314.857      258.664      139.727    99134.705    66907.229    19523.636       35.580        9.278      725.231      162.757        0.050      339.761       13.314      859.117
10/15/2014  11:28:00     -434.162     -250.066       -4.138      271.904      223.597      116.060    73931.786    49995.619    13469.818       19.420        6.870      501.029      142.029        0.080      339.815       13.403      859.175
10/15/2014  11:29:00     -478.263     -149.880      -14.395      202.795      149.418       75.815    41125.787    22325.802     5747.866       16.029        3.460      501.198       89.354        0.032      339.839       13.444      859.221
10/15/2014  11:30:00     -372.040     -171.610        6.913      222.796      199.729      110.679    49638.048    39891.551    12249.842       13.483        5.089      409.712      108.965        0.071      339.835       13.437      859.225
10/15/2014  11:31:00     -689.786     -269.706      -42.857      283.013      222.476      123.872    80096.260    49495.418    15344.390       34.764        7.247      740.639      122.776        0.027      339.719       13.241      859.219
10/15/2014  11:32:00     -351.458     -259.109      -16.368      238.053      194.196      113.704    56669.040    37712.234    12928.559       14.910        5.365      436.646      132.779        0.092      339.780       13.344      859.244
10/15/2014  11:33:00     -376.651     -179.576        0.141      250.922      175.086      104.017    62962.043    30655.016    10819.491       13.926        5.222      417.269      104.905        0.063      339.856       13.473      859.233
10/15/2014  11:34:00     -247.097     -154.419       -3.670      207.820      158.792       84.118    43188.950    25214.802     7075.876        8.019        3.774      291.380      115.762        0.158      339.977       13.677      859.248
10/15/2014  11:35:00     -308.952     -180.105        7.219      274.257      240.098      128.787    75217.168    57647.226    16585.989       13.867        7.473      357.616      143.377        0.161      339.941       13.615      859.207
10/15/2014  11:36:00     -507.328     -285.948        3.252      303.509      236.308      117.448    92117.864    55841.447    13794.063       25.043        8.088      582.364      135.927        0.054      339.879       13.511      859.192
10/15/2014  11:37:00     -548.979     -267.290      -26.754      230.818      196.326       98.517    53277.127    38544.000     9705.568       23.752        5.076      610.592      119.457        0.038      339.836       13.439      859.227
10/15/2014  11:38:00     -402.517     -190.250       -9.476      224.988      189.514      102.978    50619.473    35915.742    10604.430       14.771        4.857      445.214      108.814        0.060      339.941       13.617      859.253
10/15/2014  11:39:00     -385.156     -147.382        4.450      192.458      157.565       97.915    37040.008    24826.880     9587.444       12.076        3.573      412.391      103.695        0.063      339.916       13.574      859.286
10/15/2014  11:40:00     -327.019     -198.190        2.908      190.121      164.105       81.730    36145.832    26930.471     6679.768       10.798        3.488      382.388       92.649        0.059      339.968       13.662      859.286
10/15/2014  11:41:00     -478.602     -306.936       -9.390      301.967      179.730      114.575    91184.128    32302.959    13127.538       22.996        6.831      568.568      138.662        0.059      339.982       13.685      859.290
10/15/2014  11:42:00     -530.921     -317.992      -37.115      371.472      255.532      135.874   137991.445    65296.652    18461.791       30.302       11.087      618.866      155.632        0.063      340.005       13.724      859.276
10/15/2014  11:43:00     -583.261     -247.072      -26.722      305.834      272.420      149.602    93534.282    74212.693    22380.653       29.601        9.506      633.434      146.958        0.054      340.074       13.840      859.224
10/15/2014  11:44:00     -385.348     -192.951       10.996      297.339      190.149      121.257    88410.276    36156.686    14703.215       16.253        6.964      430.956      143.669        0.111      340.085       13.858      859.321
10/15/2014  11:45:00     -612.110     -261.347      -27.805      316.904      241.911      112.650   100427.888    58521.163    12690.119       30.767        8.582      665.568      122.936        0.034      339.973       13.669      859.352
10/15/2014  11:46:00     -607.882     -151.132      -20.727      320.389      247.843      132.919   102649.265    61425.938    17667.564       28.724        9.087      626.387      147.358        0.055      339.976       13.674      859.322
10/15/2014  11:47:00     -487.445     -288.265       -8.129      268.746      280.142      132.932    72224.511    78479.516    17670.911       24.454        8.419      566.303      150.118        0.070      340.016       13.741      859.350
10/15/2014  11:48:00     -413.598     -206.096      -27.845      227.027      186.027      102.827    51541.285    34605.897    10573.394       15.550        4.836      462.102      100.713        0.048      340.044       13.789      859.380
10/15/2014  11:49:00     -256.257      -88.868       -7.509      191.454      151.876       76.997    36654.547    23066.187     5928.483        6.962        3.282      271.229       72.714        0.072      340.237       14.118      859.379
10/15/2014  11:50:00     -317.810     -161.047       14.599      227.257      202.105      102.592    51645.660    40846.380    10525.134       11.507        5.151      356.286      109.293        0.094      340.147       13.963      859.338
10/15/2014  11:51:00     -452.408     -368.533       -1.831      307.259      240.088      141.731    94408.095    57642.184    20087.649       25.629        8.607      583.515      168.164        0.083      340.166       13.997      859.329
10/15/2014  11:52:00     -361.126     -203.898       19.178      277.827      213.066      119.097    77187.618    45396.915    14184.119       15.454        6.838      414.712      143.550        0.120      340.228       14.100      859.358
10/15/2014  11:53:00     -564.743     -332.818      -16.258      307.713      242.686      125.428    94687.504    58896.352    15732.303       29.961        8.466      655.517      144.108        0.048      340.110       13.901      859.409
10/15/2014  11:54:00     -365.599     -231.088        1.040      235.707      177.217      101.033    55557.649    31405.747    10207.602       14.210        4.859      432.510      120.376        0.077      340.156       13.977      859.407
10/15/2014  11:55:00     -411.824     -167.353      -11.984      216.261      180.893       90.759    46768.883    32722.238     8237.198       14.272        4.386      444.530       93.864        0.045      340.215       14.078      859.317
10/15/2014  11:56:00     -448.267      -96.277        1.231      215.915      212.758      110.711    46619.189    45266.137    12256.952       15.716        5.207      458.489      107.507        0.055      340.353       14.312      859.358
10/15/2014  11:57:00     -378.503     -193.750      -15.953      206.209      170.498       87.226    42521.982    29069.549     7608.455       13.012        3.960      425.210       94.991        0.050      340.299       14.219      859.397
10/15/2014  11:58:00     -275.112     -168.951       -1.375      184.398      161.194       92.440    34002.703    25983.581     8545.180        8.637        3.427      322.848      105.015        0.106      340.376       14.350      859.397
10/15/2014  11:59:00     -721.687     -256.456      -35.377      274.749      182.039      110.118    75487.058    33138.269    12125.876       35.428        6.038      765.899      113.917        0.022      340.237       14.116      859.437
10/15/2014  12:00:00     -385.321     -189.321       -8.833      183.861      206.251       96.734    33804.740    42539.318     9357.504       13.503        4.285      429.319       82.700        0.037      340.269       14.169      859.468
10/15/2014  12:01:00     -562.195      -43.112       -1.997      253.216      193.436      112.120    64118.167    37417.332    12570.882       21.600        5.705      563.845      122.908        0.048      340.229       14.103      859.472
10/15/2014  12:02:00     -451.647     -122.703        2.626      254.965      185.003      102.706    65007.378    34226.219    10548.433       16.440        5.489      468.018      122.187        0.068      340.230       14.105      859.459
10/15/2014  12:03:00     -398.014     -263.764      -12.031      248.694      168.372      100.896    61848.620    28348.994    10180.087       16.424        5.019      477.479      116.861        0.060      340.234       14.110      859.478
10/15/2014  12:04:00     -276.308     -119.810        0.659      229.651      171.260      114.123    52739.681    29330.080    13024.062        9.288        4.755      301.165      119.129        0.156      340.330       14.272      859.444
10/15/2014  12:05:00     -616.221     -247.308      -18.094      325.968      195.647      122.048   106254.923    38277.749    14895.835       30.030        7.971      663.995      149.699        0.051      340.172       14.005      859.399
10/15/2014  12:06:00     -505.786     -175.448      -11.391      302.571      241.846      126.074    91549.133    58489.358    15894.746       22.630        8.297      535.352      147.947        0.076      340.226       14.097      859.387
10/15/2014  12:07:00     -506.308     -226.424      -22.104      256.218      243.358      100.564    65647.628    59222.960    10113.151       22.152        6.749      554.631      120.035        0.047      340.209       14.070      859.412
10/15/2014  12:08:00     -488.415     -137.175      -11.967      271.555      222.383      100.777    73742.244    49454.300    10156.052       19.541        6.668      507.313      101.771        0.040      340.271       14.172      859.407
10/15/2014  12:09:00     -363.587      -82.481       -3.128      229.764      184.709       99.562    52791.479    34117.444     9912.641       11.790        4.841      372.825      115.044        0.095      340.317       14.251      859.425
10/15/2014  12:10:00     -397.929     -212.110       12.605      299.603      227.815      118.418    89762.142    51899.755    14022.809       17.957        7.784      450.931      140.456        0.097      340.285       14.196      859.443
10/15/2014  12:11:00     -459.724     -159.009      -15.914      223.761      127.805       79.022    50069.138    16334.216     6244.456       15.475        3.632      486.446       86.306        0.031      340.260       14.155      859.457
10/15/2014  12:12:00     -265.070      -10.606       25.965      214.077      157.416      107.428    45828.815    24779.693    11540.704        7.659        4.107      265.282      122.701        0.214      340.390       14.374      859.389
10/15/2014  12:13:00     -410.403     -238.633      -13.055      248.555      204.520      106.133    61779.392    41828.593    11264.210       17.019        5.744      474.738       97.717        0.042      340.308       14.234      859.406
10/15/2014  12:14:00     -543.591     -120.144      -26.919      363.467      239.189      134.819   132108.438    57211.506    18176.142       25.904       10.375      556.710      169.041        0.092      340.262       14.158      859.354
10/15/2014  12:15:00     -555.350     -172.519      -32.554      293.325      181.544      108.184    86039.822    32958.080    11703.876       23.495        6.535      581.529      130.596        0.050      340.282       14.191      859.332
10/15/2014  12:16:00     -292.736     -104.605       17.486      221.703      156.003       99.837    49152.369    24336.798     9967.370        9.019        4.173      310.864       97.752        0.099      340.280       14.189      859.328
10/15/2014  12:17:00     -363.916     -178.589      -14.360      260.242      200.973      106.618    67725.792    40390.080    11367.427       14.199        5.974      405.375      125.872        0.096      340.236       14.115      859.291
10/15/2014  12:18:00     -617.917     -206.528      -25.324      307.325      264.121      126.649    94448.718    69759.921    16040.081       30.265        9.012      651.518      138.396        0.045      340.280       14.187      859.279
10/15/2014  12:19:00     -479.585     -165.101      -26.795      229.974      198.977       93.094    52888.048    39591.962     8666.416       17.955        5.057      507.208       95.161        0.035      340.276       14.181      859.295
10/15/2014  12:20:00     -466.140      -76.843      -30.670      240.515      161.690      111.622    57847.432    26143.651    12459.539       16.027        4.823      472.431      132.393        0.079      340.278       14.183      859.297
10/15/2014  12:21:00     -529.759      -69.691      -19.915      275.494      245.324      108.661    75896.790    60183.997    11807.170       21.687        7.394      534.323      118.307        0.049      340.288       14.201      859.308
10/15/2014  12:22:00     -316.362       -7.854       -8.611      229.078      177.091       98.233    52476.633    31361.375     9649.781        9.684        4.674      316.460       94.284        0.089      340.361       14.325      859.338
10/15/2014  12:23:00     -547.311     -190.845      -11.624      286.843      233.756      109.877    82278.672    54641.735    12073.027       24.253        7.450      579.630      132.173        0.052      340.285       14.196      859.365
10/15/2014  12:24:00     -355.095     -268.368       -3.097      274.566      260.024      123.206    75386.728    67612.380    15179.597       17.812        7.909      445.100      141.810        0.102      340.326       14.266      859.379
10/15/2014  12:25:00     -554.171     -103.634      -14.154      277.815      238.668       98.842    77181.442    56962.212     9769.773       23.096        7.196      563.778      117.273        0.043      340.331       14.274      859.402
10/15/2014  12:26:00     -528.146      -84.148      -12.644      260.389      236.060      113.752    67802.691    55724.314    12939.485       21.130        6.823      534.808      113.896        0.045      340.347       14.301      859.403
10/15/2014  12:27:00     -519.791        3.608      -18.060      267.197      198.897      115.237    71394.019    39559.919    13279.666       19.736        6.212      519.803      117.107        0.051      340.404       14.396      859.405
10/15/2014  12:28:00     -550.098     -184.034      -13.694      355.570      216.027      118.022   126429.888    46667.574    13929.093       26.181        9.351      580.066      153.730        0.070      340.379       14.355      859.427
10/15/2014  12:29:00     -381.167     -205.347      -10.402      209.838      201.794       99.573    44031.974    40720.939     9914.793       14.110        4.733      432.962       91.788        0.045      340.466       14.503      859.470
10/15/2014  12:30:00     -524.776      -44.312      -41.429      301.756      209.315       86.975    91056.723    43812.862     7564.725       21.073        7.122      526.644      101.685        0.037      340.540       14.628      859.470
10/15/2014  12:31:00     -381.411     -192.224       -8.504      284.532      237.618      111.455    80958.397    56462.425    12422.302       16.614        7.492      427.111      129.368        0.092      340.498       14.558      859.414
10/15/2014  12:32:00     -411.916     -204.867       -7.579      211.767      179.690       94.227    44845.407    32288.438     8878.647       14.884        4.301      460.049       87.029        0.036      340.584       14.702      859.464
10/15/2014  12:33:00     -403.510     -200.889        0.604      236.159      203.607       94.019    55770.895    41455.842     8839.550       15.460        5.303      450.751      119.553        0.070      340.541       14.628      859.463
10/15/2014  12:34:00     -453.982      -73.593      -24.412      257.378      148.771       99.191    66243.247    22132.823     9838.783       15.515        4.911      459.909      116.011        0.064      340.509       14.574      859.497
10/15/2014  12:35:00     -453.923     -156.250       -8.506      202.626      173.007       87.100    41057.163    29931.489     7586.326       15.454        3.929      480.063       95.498        0.040      340.510       14.578      859.521
10/15/2014  12:36:00     -552.686     -164.246      -23.598      261.040      224.566      108.771    68141.671    50429.693    11831.235       23.168        6.520      576.575      114.890        0.040      340.530       14.610      859.525
10/15/2014  12:37:00     -595.302     -196.302      -49.188      282.679      202.754      123.284    79907.222    41109.064    15198.871       26.575        6.811      626.832      134.759        0.046      340.483       14.532      859.525
10/15/2014  12:38:00     -499.064     -307.238      -18.669      256.411      208.918      121.503    65746.460    43646.670    14762.890       23.396        6.208      586.055      130.571        0.050      340.445       14.468      859.485
10/15/2014  12:39:00     -443.541     -158.753      -13.503      202.250      175.067      113.158    40904.925    30648.485    12804.812       15.322        4.218      471.096      102.411        0.047      340.559       14.660      859.461
10/15/2014  12:40:00     -457.345     -120.594        5.558      309.501      229.621      115.037    95790.598    52725.661    13233.492       19.272        8.087      472.977      151.048        0.102      340.594       14.719      859.459
10/15/2014  12:41:00     -548.653     -176.982       -9.505      400.410      239.824      144.617   160327.879    57515.433    20914.200       28.556       11.938      576.492      181.113        0.099      340.515       14.587      859.434
10/15/2014  12:42:00     -607.776     -106.726      -47.318      293.028      199.828      115.656    85865.236    39931.425    13376.240       26.107        6.959      617.075      129.197        0.044      340.527       14.606      859.449
10/15/2014  12:43:00     -704.535     -148.499       -4.753      279.332      235.270      118.326    78026.349    55352.188    14000.994       33.289        7.369      720.015      136.118        0.036      340.556       14.654      859.432
10/15/2014  12:44:00     -247.614     -126.336       23.881      214.595      185.299       93.421    46050.824    34335.835     8727.404        8.346        4.456      277.981      107.090        0.148      340.681       14.868      859.487
10/15/2014  12:45:00     -423.189     -200.666       -3.501      282.340      256.267      130.425    79716.106    65673.031    17010.656       19.086        8.120      468.355      141.427        0.091      340.545       14.636      859.495
10/15/2014  12:46:00     -578.164     -243.899      -17.744      261.899      219.998      112.653    68591.014    48398.967    12690.655       26.186        6.484      627.504      123.047        0.038      340.471       14.513      859.491
10/15/2014  12:47:00     -428.357     -255.425      -14.891      263.826      168.062      110.152    69604.346    28244.811    12133.367       17.945        5.499      498.730      126.020        0.064      340.481       14.529      859.501
10/15/2014  12:48:00     -569.415     -186.676       -4.704      355.621      219.732      137.845   126466.422    48281.944    19001.380       27.639        9.687      599.234      168.691        0.079      340.408       14.404      859.475
10/15/2014  12:49:00     -564.243     -264.873      -32.883      254.266      207.695      110.466    64651.339    43137.153    12202.748       25.478        6.000      623.320      113.157        0.033      340.411       14.409      859.488
10/15/2014  12:50:00     -420.818      -66.560      -12.750      199.495      162.248       80.705    39798.178    26324.352     6513.284       12.715        3.632      426.049       76.478        0.032      340.535       14.620      859.499
10/15/2014  12:51:00     -471.244     -113.666      -10.935      245.151      181.475      109.915    60099.022    32933.280    12081.317       17.009        5.256      484.759      114.208        0.056      340.491       14.545      859.512
10/15/2014  12:52:00     -601.553     -135.005       -4.000      293.130      200.848      112.344    85925.216    40339.877    12621.213       25.947        6.944      616.517      135.439        0.048      340.474       14.516      859.487
10/15/2014  12:53:00     -457.934     -143.305      -18.374      185.524      201.200       98.877    34419.100    40481.451     9776.662       15.761        4.234      479.833      108.692        0.051      340.462       14.495      859.524
10/15/2014  12:54:00     -329.519     -165.732       -3.447      246.112      222.308       92.243    60571.053    49420.666     8508.820       12.726        5.925      368.849      112.268        0.093      340.517       14.591      859.516
10/15/2014  12:55:00     -460.412     -194.040      -10.587      297.545      221.418      108.096    88532.999    49025.800    11684.735       19.947        7.462      499.630      122.589        0.060      340.576       14.688      859.522
10/15/2014  12:56:00     -752.157     -124.178      -39.984      265.543      227.342      120.874    70513.308    51684.176    14610.611       35.976        6.840      762.338      141.751        0.035      340.401       14.391      859.532
10/15/2014  12:57:00     -720.714     -251.325      -21.686      281.585      177.455      110.712    79290.232    31490.453    12257.142       35.303        6.152      763.278      109.864        0.021      340.340       14.289      859.548
10/15/2014  12:58:00     -241.921      -58.631       10.659      161.897      153.161       92.985    26210.512    23458.392     8646.246        6.019        2.916      248.925       94.522        0.144      340.616       14.757      859.660
10/15/2014  12:59:00     -477.422      -87.206      -23.147      266.424      192.179       92.566    70981.933    36932.947     8568.556       17.626        5.824      485.321      109.306        0.051      340.458       14.487      859.669
10/15/2014  13:00:00     -513.069      -92.538      -16.326      207.432      155.330      102.250    43028.210    24127.289    10455.105       17.483        3.881      521.347      112.976        0.047      340.512       14.580      859.663
10/15/2014  13:01:00     -419.996     -148.155      -17.446      234.668      182.569      101.471    55068.976    33331.543    10296.386       14.866        4.935      445.361      124.694        0.078      340.515       14.586      859.686
10/15/2014  13:02:00     -471.645     -155.807      -13.179      231.115      177.491       99.914    53414.210    31502.987     9982.730       17.088        4.745      496.714      128.472        0.067      340.451       14.477      859.677
10/15/2014  13:03:00     -452.314     -155.310      -11.824      244.985      188.752       97.477    60017.710    35627.265     9501.816       16.698        5.257      478.235      117.483        0.060      340.527       14.606      859.657
10/15/2014  13:04:00     -579.864     -112.643      -31.364      228.234      201.644       94.779    52090.702    40660.309     8982.989       22.581        5.087      590.704      104.770        0.031      340.487       14.538      859.678
10/15/2014  13:05:00     -532.894     -110.449      -28.639      286.802      195.214      104.556    82255.583    38108.465    10932.047       21.412        6.565      544.220      119.384        0.048      340.435       14.450      859.708
10/15/2014  13:06:00     -219.267      -95.130       -2.079      169.993      161.608       79.936    28897.743    26117.126     6389.791        5.926        3.070      239.014       84.194        0.124      340.594       14.718      859.764
10/15/2014  13:07:00     -521.343       38.097      -46.162      189.900      136.602       85.136    36062.016    18660.020     7248.152       16.867        3.099      522.733       94.125        0.032      340.558       14.658      859.765
10/15/2014  13:08:00     -429.164      -76.235       -8.469      171.642      165.853       87.246    29461.021    27507.195     7611.903       12.731        3.229      435.883       82.321        0.036      340.502       14.563      859.735
10/15/2014  13:09:00     -371.841     -100.123      -10.607      223.408      169.010       88.161    49911.076    28564.373     7772.334       11.731        4.312      385.084      105.525        0.075      340.333       14.279      859.709
10/15/2014  13:10:00     -210.931      -65.330        1.370      183.526      148.770       77.503    33681.952    22132.585     6006.727        5.528        3.091      220.817       79.149        0.128      340.584       14.703      859.679
10/15/2014  13:11:00     -524.524     -105.591      -21.925      226.171      202.102      101.024    51153.104    40845.087    10205.912       19.446        5.110      535.047      104.551        0.038      340.490       14.542      859.686
10/15/2014  13:12:00     -459.817      -41.942      -32.021      196.509      166.823       83.687    38615.968    27829.866     7003.548       14.382        3.672      461.726       90.920        0.039      340.555       14.653      859.690
10/15/2014  13:13:00     -483.927     -158.186      -28.335      243.598      198.700      114.064    59340.110    39481.655    13010.647       18.590        5.592      509.125       99.511        0.038      340.512       14.581      859.684
10/15/2014  13:14:00     -428.243      -45.484      -34.250      207.114      145.385       79.955    42896.208    21136.895     6392.881       12.852        3.521      430.652       82.903        0.037      340.588       14.709      859.764
10/15/2014  13:15:00     -440.670     -184.804      -19.239      233.378      176.630       92.755    54465.162    31198.211     8603.572       16.147        4.713      477.852       79.307        0.028      340.603       14.734      859.745
10/15/2014  13:16:00     -315.177     -135.055      -18.431      187.963      125.270       71.692    35329.925    15692.582     5139.711        8.703        2.808      342.894       79.604        0.054      340.647       14.808      859.816
10/15/2014  13:17:00     -361.151      -52.332      -32.354      163.643      136.913       83.223    26778.955    18745.128     6926.082        9.332        2.623      364.922       75.760        0.043      340.754       14.988      859.839
10/15/2014  13:18:00     -527.418      -23.704      -28.049      225.291      178.681       90.708    50756.201    31926.894     8227.994       18.520        4.546      527.951       90.523        0.029      340.654       14.820      859.812
10/15/2014  13:19:00     -562.690     -105.546      -50.879      193.047      171.771       88.470    37267.146    29505.167     7826.968       20.246        3.730      572.503       92.542        0.026      340.436       14.451      859.753
10/15/2014  13:20:00     -444.387     -193.677      -24.042      222.386      193.641       83.066    49455.383    37496.870     6900.017       16.469        4.693      484.759       85.889        0.031      340.610       14.744      859.770
10/15/2014  13:21:00     -494.230     -101.324      -31.100      209.318      122.922       84.901    43813.831    15109.881     7208.239       16.080        3.307      504.510       89.567        0.032      340.509       14.575      859.796
10/15/2014  13:22:00     -302.618     -106.021       -2.710      168.223      126.694       86.912    28298.912    16051.264     7553.690        7.736        2.595      320.653       71.256        0.049      340.544       14.635      859.772
10/15/2014  13:23:00     -394.769      -32.641      -14.780      221.780      170.175       85.532    49186.211    28959.438     7315.652       12.128        4.273      396.116      100.068        0.064      340.625       14.771      859.756
10/15/2014  13:24:00     -456.062     -139.907      -23.892      159.381      140.625       74.964    25402.400    19775.366     5619.566       13.946        2.540      477.040       65.016        0.019      340.541       14.628      859.701
10/15/2014  13:25:00     -269.028      -58.637        7.680      225.826      148.638       85.326    50997.566    22093.205     7280.608        7.811        4.019      275.344      117.949        0.184      340.655       14.823      859.666
10/15/2014  13:26:00     -188.121      -42.384      -11.734      142.337       88.727       67.857    20259.886     7872.448     4604.616        3.502        1.637      192.837       76.703        0.158      340.692       14.886      859.640
10/15/2014  13:27:00     -266.562      -79.284       -3.908      129.769      131.890       67.571    16839.895    17394.999     4565.875        5.807        1.940      278.103       70.998        0.065      340.731       14.951      859.620
10/15/2014  13:28:00     -406.411      -57.445      -18.115      331.248      160.524       82.041   109725.022    25767.919     6730.692       15.549        7.111      410.451      132.578        0.104      340.703       14.904      859.614
10/15/2014  13:29:00     -477.054     -136.684      -14.905      206.655      170.156       91.731    42706.175    28953.042     8414.623       16.327        4.004      496.249       98.042        0.039      340.557       14.657      859.636
10/15/2014  13:30:00     -237.614      -51.679        7.336      156.358      132.572       75.307    24447.973    17575.235     5671.191        5.343        2.385      243.168       85.308        0.123      340.700       14.899      859.654
10/15/2014  13:31:00     -594.764     -160.535      -26.924      192.443      159.823       79.458    37034.408    25543.445     6313.554       22.455        3.445      616.049       76.011        0.015      340.588       14.708      859.642
10/15/2014  13:32:00     -477.266      -91.260      -11.586      196.032      182.210       82.212    38428.579    33200.583     6758.821       15.730        3.919      485.912       97.464        0.040      340.608       14.741      859.623
10/15/2014  13:33:00     -429.619      -84.634      -20.889      147.767      158.840       75.265    21835.101    25230.161     5664.800       12.244        2.637      437.876       68.017        0.024      340.522       14.597      859.617
10/15/2014  13:34:00     -444.129     -174.063      -10.421      270.979      176.311      100.624    73429.528    31085.526    10125.104       17.113        5.732      477.020      117.337        0.061      340.599       14.728      859.627
10/15/2014  13:35:00     -304.744      -81.184      -18.636      172.218      145.659       70.685    29659.007    21216.456     4996.319        7.783        2.794      315.372       75.828        0.058      340.649       14.814      859.669
10/15/2014  13:36:00     -418.684      -79.801       -7.822      189.894      155.730       81.921    36059.683    24251.805     6710.984       12.436        3.351      426.221       80.545        0.036      340.524       14.600      859.690
10/15/2014  13:37:00     -354.085      -61.503      -12.243      146.387      115.201       76.269    21429.132    13271.255     5816.982        8.491        2.026      359.387       71.878        0.040      340.510       14.578      859.699
10/15/2014  13:38:00     -440.054      -60.087      -39.794      178.799      123.438       81.453    31969.155    15237.024     6634.662       12.633        2.692      444.137       79.857        0.032      340.558       14.658      859.666
10/15/2014  13:39:00     -550.822     -133.952      -27.636      164.902      142.902       83.394    27192.546    20420.959     6954.638       18.833        2.728      566.875       76.635        0.018      340.531       14.612      859.673
10/15/2014  13:40:00     -463.134     -141.456      -26.591      191.923      178.279       87.069    36834.490    31783.285     7581.061       15.569        3.810      484.255       82.654        0.029      340.522       14.597      859.693
10/15/2014  13:41:00     -222.787        8.343      -11.508      130.196      133.263       67.422    16950.969    17759.160     4545.717        4.454        1.963      222.943       53.302        0.057      340.530       14.611      859.673
10/15/2014  13:42:00     -200.932      -32.003       -0.659      120.796      105.320       51.158    14591.794    11092.201     2617.113        3.485        1.415      203.465       57.281        0.079      340.634       14.785      859.622
10/15/2014  13:43:00     -504.152      -43.072      -38.350      182.381      125.089       76.397    33262.879    15647.289     5836.559       15.611        2.737      505.989       88.436        0.031      340.631       14.781      859.635
10/15/2014  13:44:00     -443.524      -64.831      -44.699      161.646      205.612       81.165    26129.481    42276.295     6587.770       13.894        3.750      448.237       72.497        0.026      340.676       14.858      859.605
10/15/2014  13:45:00     -599.282      -26.056      -31.892      191.528      183.920       89.308    36683.098    33826.469     7975.845       21.965        3.924      599.849       98.468        0.027      340.788       15.047      859.628
10/15/2014  13:46:00     -448.747     -208.497      -19.389      235.945      241.057       92.516    55670.090    58108.640     8559.161       18.376        6.117      494.819       84.834        0.029      340.831       15.119      859.679
10/15/2014  13:47:00     -362.234       -5.493        4.364      229.761      191.790      109.793    52790.048    36783.360    12054.510       11.643        5.081      362.276       95.491        0.069      340.771       15.019      859.683
10/15/2014  13:48:00     -581.380      -54.673      -35.006      205.613      222.203      103.277    42276.679    49374.133    10666.063       22.225        5.116      583.945      102.009        0.031      340.625       14.771      859.633
10/15/2014  13:49:00     -544.709     -128.015      -45.963      213.373      145.150       89.766    45528.143    21068.447     8057.847       19.492        3.733      559.550      102.856        0.034      340.732       14.952      859.614
10/15/2014  13:50:00     -499.685      -77.162      -27.835      186.805      170.315       89.057    34896.294    29007.369     7931.222       16.411        3.592      505.608       87.252        0.030      340.808       15.080      859.643
10/15/2014  13:51:00     -714.908     -117.396      -41.044      304.491      195.462      103.618    92714.679    38205.431    10736.793       33.408        7.083      724.483      123.676        0.029      340.656       14.825      859.642
10/15/2014  13:52:00     -476.939     -121.799      -11.697      241.372      202.678      119.051    58260.603    41078.301    14173.098       17.796        5.676      492.246      140.701        0.082      340.679       14.862      859.657
10/15/2014  13:53:00     -445.434      -53.554      -14.840      251.270      162.449      103.030    63136.660    26389.630    10615.126       15.080        5.007      448.642      125.040        0.078      340.864       15.176      859.647
10/15/2014  13:54:00     -633.762     -147.243      -10.120      252.021      172.810      101.230    63514.691    29863.388    10247.599       26.351        5.181      650.642      115.887        0.032      340.639       14.795      859.633
10/15/2014  13:55:00     -732.991      -94.271      -53.609      239.107      233.398      118.404    57172.074    54474.746    14019.592       33.733        6.283      739.028      113.547        0.024      340.534       14.617      859.588
10/15/2014  13:56:00     -671.921     -149.360      -39.104      299.569      186.657      124.111    89741.364    34840.880    15403.500       30.763        6.999      688.321      154.263        0.050      340.686       14.875      859.623
10/15/2014  13:57:00     -514.737       -8.005      -30.207      214.102      172.621      100.535    45839.830    29797.976    10107.289       17.582        4.287      514.799      112.903        0.048      340.765       15.009      859.679
10/15/2014  13:58:00     -373.400      -82.698      -16.207      229.941      158.889       87.827    52872.743    25245.644     7713.505       11.617        4.292      382.448      102.930        0.072      340.890       15.219      859.619
10/15/2014  13:59:00     -508.060     -169.039      -24.402      226.310      184.856       95.235    51216.032    34171.897     9069.797       19.086        4.723      535.443      100.030        0.035      340.863       15.174      859.657
10/15/2014  14:00:00     -672.897     -152.441      -23.433      273.514      197.750       99.671    74810.009    39104.996     9934.249       30.019        6.192      689.949      118.616        0.030      340.649       14.812      859.611
10/15/2014  14:01:00     -436.311     -121.992      -39.028      182.582      159.968       74.025    33336.055    25589.625     5479.763       13.558        3.220      453.045       68.941        0.023      340.959       15.337      859.648
10/15/2014  14:02:00     -426.858      -80.257      -19.922      199.109      135.021       78.894    39644.383    18230.691     6224.331       12.656        3.205      434.338       82.245        0.036      340.981       15.374      859.685
10/15/2014  14:03:00     -642.570      -93.913      -35.851      240.204      200.564       98.749    57698.190    40225.993     9751.418       26.532        5.384      649.397      117.643        0.033      340.855       15.161      859.698
10/15/2014  14:04:00     -502.590     -120.074      -30.261      222.321      162.357       88.606    49426.788    26359.839     7851.025       17.577        4.182      516.734       91.613        0.031      340.946       15.314      859.713
10/15/2014  14:05:00     -485.331      -77.106      -49.030      165.827      167.079       87.226    27498.470    27915.474     7608.438       15.345        3.151      491.418       79.424        0.026      341.133       15.631      859.667
10/15/2014  14:06:00     -616.063     -153.170      -28.820      267.362      248.077      100.072    71482.488    61542.110    10014.505       27.341        7.152      634.818      116.308        0.034      340.896       15.230      859.675
10/15/2014  14:07:00     -490.379     -121.385      -38.251      218.399      250.806      102.299    47698.235    62903.533    10465.081       18.885        6.053      505.180       99.354        0.039      341.017       15.433      859.634
10/15/2014  14:08:00     -433.680     -198.520       -9.285      288.467      173.108      100.943    83212.982    29966.264    10189.468       17.545        6.168      476.957      124.809        0.068      341.107       15.588      859.676
10/15/2014  14:09:00     -662.087     -121.428      -22.367      228.036      164.476      109.984    52000.453    27052.345    12096.480       27.236        4.557      673.130      117.374        0.030      340.835       15.127      859.725
10/15/2014  14:10:00     -595.302      -78.271      -35.651      245.605      211.465       96.066    60321.784    44717.571     9228.644       23.801        5.713      600.426      108.732        0.033      341.097       15.570      859.713
10/15/2014  14:11:00     -568.950     -138.273      -12.404      216.305      149.805       87.354    46787.880    22441.609     7630.728       20.991        3.843      585.511      105.226        0.032      341.108       15.589      859.785
10/15/2014  14:12:00     -477.810     -140.691      -24.468      238.704      165.807       92.278    56979.777    27491.947     8515.233       17.083        4.649      498.093      111.087        0.050      341.134       15.633      859.809
10/15/2014  14:13:00     -599.887     -145.491      -18.522      222.682      191.770       97.410    49587.436    36775.834     9488.616       23.860        4.793      617.278       89.493        0.021      340.929       15.286      859.862
10/15/2014  14:14:00     -615.746     -108.619      -36.110      217.204      187.944      103.975    47177.453    35323.071    10810.730       24.276        4.666      625.253      105.886        0.029      340.803       15.074      859.865
10/15/2014  14:15:00     -540.558     -151.216      -31.687      265.939      205.819      108.032    70723.554    42361.283    11670.981       22.039        6.238      561.311      127.552        0.052      340.689       14.880      859.889
10/15/2014  14:16:00     -511.499      -84.795      -39.056      180.251      211.151       85.554    32490.268    44584.831     7319.494       17.736        4.220      518.480       77.534        0.022      340.854       15.158      859.859
10/15/2014  14:17:00     -500.477      -21.790      -12.491      228.828      186.349      110.538    52362.252    34725.975    12218.742       17.519        4.965      500.951       98.649        0.039      340.936       15.297      859.840
10/15/2014  14:18:00     -439.783     -108.997       -5.202      220.246      181.833      101.344    48508.305    33063.410    10270.644       14.856        4.592      453.089      116.985        0.067      340.936       15.297      859.789
10/15/2014  14:19:00     -409.835      -73.214       -9.944      213.258      161.602       92.731    45478.850    26115.062     8599.056       12.679        4.010      416.323      104.777        0.063      340.979       15.368      859.760
10/15/2014  14:20:00     -331.290      -17.910      -13.368      225.864      152.565       90.553    51014.492    23276.038     8199.771        9.636        4.125      331.773       97.464        0.086      341.122       15.613      859.744
10/15/2014  14:21:00     -412.847     -158.273       -6.323      208.682      144.130       80.152    43548.280    20773.339     6424.338       13.313        3.537      442.146       88.363        0.040      340.872       15.189      859.742
10/15/2014  14:22:00     -451.541      -70.047      -12.425      201.703      166.823       83.873    40683.945    27829.923     7034.649       14.224        3.777      456.942       95.085        0.043      341.004       15.413      859.761
10/15/2014  14:23:00     -487.447      -59.393      -25.195      259.102      190.822       85.081    67133.765    36412.982     7238.727       17.626        5.539      491.052      103.489        0.044      341.028       15.452      859.763
10/15/2014  14:24:00     -268.070        2.063      -14.193      227.809      124.993       89.360    51897.148    15623.148     7985.204        7.377        3.775      268.078      107.414        0.161      341.343       15.987      859.775
10/15/2014  14:25:00     -473.574      -59.126      -27.603      204.611      165.977       94.421    41865.572    27548.230     8915.257       15.342        3.916      477.250       99.424        0.043      341.128       15.621      859.784
10/15/2014  14:26:00     -480.593     -162.059      -21.246      225.993      140.788       85.067    51072.828    19821.364     7236.457       16.789        3.907      507.181       73.458        0.021      340.875       15.193      859.781
10/15/2014  14:27:00     -462.549     -129.544      -13.080      180.903      146.062       86.224    32726.021    21334.081     7434.605       14.619        3.075      480.347       65.360        0.019      341.022       15.443      859.759
10/15/2014  14:28:00     -264.883      -81.522       16.432      199.623      166.327       90.721    39849.294    27664.675     8230.222        7.640        3.787      277.144      104.049        0.141      341.356       16.008      859.790
10/15/2014  14:29:00     -605.395     -175.222      -41.667      263.315      212.160      116.304    69334.820    45011.695    13526.650       26.339        6.394      630.243      138.342        0.048      340.840       15.134      859.803
10/15/2014  14:30:00     -462.360     -168.150      -36.941      283.608      208.673      112.417    80433.667    43544.488    12637.516       18.999        6.831      491.986      138.384        0.079      340.800       15.067      859.805
10/15/2014  14:31:00     -306.010      -13.141        8.113      303.568      167.649       94.190    92153.267    28106.349     8871.802       11.148        6.457      306.292      124.470        0.165      340.962       15.342      859.813
10/15/2014  14:32:00     -506.235     -135.129      -26.432      248.954      198.894      100.896    61978.153    39558.926    10180.061       19.346        5.586      523.959      107.999        0.042      340.650       14.812      859.788
10/15/2014  14:33:00     -449.589     -102.123      -21.755      236.162      171.132       99.471    55772.357    29286.275     9894.442       15.398        4.748      461.042      101.448        0.048      340.681       14.866      859.799
10/15/2014  14:34:00     -666.359     -163.735      -30.515      255.078      192.558       97.621    65064.626    37078.667     9529.863       29.170        5.584      686.180      112.059        0.027      340.658       14.828      859.804
10/15/2014  14:35:00     -455.993      -95.710       -2.382      268.950      187.507       97.500    72333.910    35158.942     9506.256       16.703        5.850      465.930      116.933        0.063      340.732       14.953      859.821
10/15/2014  14:36:00     -512.820      -88.447      -33.614      233.353      188.698       96.128    54453.494    35607.050     9240.567       18.560        4.965      520.391      109.959        0.045      340.857       15.164      859.859
10/15/2014  14:37:00     -602.226     -114.120      -35.022      250.682      183.991      114.714    62841.409    33852.596    13159.346       24.337        5.493      612.943      124.003        0.041      340.717       14.926      859.892
10/15/2014  14:38:00     -441.231      -26.143        5.950      228.527      171.457      113.070    52224.526    29397.429    12784.744       14.489        4.720      442.005      118.837        0.072      340.854       15.158      859.906
10/15/2014  14:39:00     -454.854     -107.654      -25.332      194.593      199.717      102.317    37866.265    39886.775    10468.827       15.366        4.411      467.420      100.745        0.046      340.811       15.087      859.921
10/15/2014  14:40:00     -567.112       -9.858      -39.901      256.291      185.249      101.355    65685.032    34317.143    10272.937       21.677        5.514      567.198      109.190        0.037      340.612       14.750      859.886
10/15/2014  14:41:00     -215.356     -104.373       14.070      203.233      172.474       90.708    41303.742    29747.330     8228.026        6.836        3.964      239.315      102.576        0.184      340.860       15.169      859.928
10/15/2014  14:42:00     -255.007     -129.175        0.889      181.488      150.880       93.531    32938.000    22764.669     8748.072        7.307        3.223      285.858       97.195        0.116      340.878       15.200      859.984
10/15/2014  14:43:00     -256.384      -83.626       15.072      280.152      166.759      108.496    78485.286    27808.448    11771.386        9.549        5.903      269.678       96.555        0.128      340.925       15.280      859.946
10/15/2014  14:44:00     -463.045     -259.021      -35.332      246.128      196.276      110.149    60578.766    38524.311    12132.756       19.697        5.562      530.568      105.011        0.039      340.680       14.865      860.017
10/15/2014  14:45:00     -459.421       -6.296      -18.223      248.994      163.564       96.381    61998.003    26753.304     9289.205       15.472        4.902      459.464      105.613        0.053      340.867       15.181      859.996
10/15/2014  14:46:00     -508.234       14.349      -30.873      251.013      187.843       95.400    63007.577    35284.850     9101.122       18.341        5.370      508.437      109.295        0.046      340.749       14.981      859.983
10/15/2014  14:47:00     -664.096      -48.467      -26.100      318.098      255.734      109.020   101186.492    65399.945    11885.455       31.123        8.924      665.862      122.658        0.034      340.522       14.597      859.943
10/15/2014  14:48:00     -527.207      -55.376       -3.861      236.374      194.717       95.922    55872.839    37914.584     9201.120       19.199        5.149      530.107      114.558        0.047      340.559       14.660      859.944
10/15/2014  14:49:00     -485.108     -122.331      -12.916      299.619      196.058      119.802    89771.273    38438.776    14352.608       19.649        7.128      500.294      128.909        0.066      340.574       14.686      859.935
10/15/2014  14:50:00     -394.046      -33.155      -15.500      221.313      167.609       94.033    48979.462    28092.740     8842.292       12.125        4.296      395.438      102.528        0.067      340.670       14.848      859.939
10/15/2014  14:51:00     -296.822      -42.423        3.380      155.705      133.634       92.130    24244.193    17858.014     8487.976        7.024        2.530      299.838       92.314        0.095      340.781       15.035      859.946
10/15/2014  14:52:00     -468.084      -30.367      -25.295      193.775      151.029       80.008    37548.695    22809.823     6401.231       14.370        3.338      469.068       82.978        0.031      340.731       14.951      859.941
10/15/2014  14:53:00     -394.011      -70.586       14.724      244.611      190.475      106.217    59834.501    36280.547    11281.955       13.390        5.370      400.284      121.944        0.093      340.898       15.234      859.939
10/15/2014  14:54:00     -552.100      -27.440      -23.820      256.135      200.022      104.243    65605.213    40008.932    10866.663       21.129        5.824      552.781      119.939        0.047      340.840       15.136      859.930
10/15/2014  14:55:00     -552.468      -29.566      -22.873      314.763      168.903      112.462    99075.934    28528.264    12647.741       22.341        7.013      553.259      148.127        0.072      340.747       14.979      859.932
10/15/2014  14:56:00     -197.589      -29.276       19.895      201.160      166.830      103.067    40465.253    27832.382    10622.887        5.959        3.946      199.746       98.551        0.243      341.070       15.525      859.950
10/15/2014  14:57:00     -203.697      -77.794        7.716      170.674      179.974       95.306    29129.771    32390.543     9083.158        5.909        3.530      218.047      103.922        0.227      340.834       15.125      859.960
10/15/2014  14:58:00     -478.683     -116.115      -26.142      235.696      165.520       79.287    55552.690    27396.735     6286.494       16.625        4.462      492.565       93.150        0.036      340.767       15.013      859.934
10/15/2014  14:59:00     -408.179      -36.629       -5.077      220.253      164.739       93.775    48511.169    27138.826     8793.700       12.620        4.222      409.819      100.806        0.061      340.852       15.155      859.914
10/15/2014  15:00:00     -613.544        1.044      -38.252      252.783      182.894      114.526    63899.206    33450.049    13116.262       24.416        5.523      613.545      135.079        0.048      340.665       14.839      859.938
10/15/2014  15:01:00     -569.879       10.023      -55.380      184.712      149.559       85.868    34118.607    22367.970     7373.357       19.588        3.193      569.967       85.959        0.023      340.724       14.938      859.969
10/15/2014  15:02:00     -501.217      -42.268      -42.802      186.940      119.915       75.890    34946.533    14379.657     5759.245       15.495        2.754      502.996       82.609        0.027      340.721       14.934      860.003
10/15/2014  15:03:00     -427.173      -92.338      -38.611      186.326      146.195       90.454    34717.390    21373.020     8181.970       12.837        3.214      437.039       94.636        0.047      340.757       14.994      859.990
10/15/2014  15:04:00     -478.238     -112.391      -17.877      198.787      151.670      102.149    39516.245    23003.874    10434.516       15.730        3.648      491.267      103.536        0.044      340.844       15.142      859.985
10/15/2014  15:05:00     -423.702      -82.366      -11.045      196.261      140.037       73.113    38518.355    19610.473     5345.572       12.494        3.174      431.633       78.403        0.033      340.915       15.264      860.076
10/15/2014  15:06:00     -504.907     -127.790      -15.451      227.387      152.687       94.185    51704.876    23313.373     8870.804       17.768        4.194      520.828      105.652        0.041      340.932       15.292      860.114
10/15/2014  15:07:00     -582.262     -143.450      -31.767      217.541      230.227      101.447    47324.024    53004.659    10291.570       23.560        5.531      599.673      104.457        0.030      340.553       14.650      860.103
10/15/2014  15:08:00     -422.926     -124.704       -9.388      227.924      173.082       82.430    51949.210    29957.265     6794.783       14.159        4.435      440.928       93.738        0.045      340.695       14.889      860.124
10/15/2014  15:09:00     -505.310     -227.451      -36.049      239.876      186.411       98.919    57540.526    34749.040     9785.034       20.521        5.104      554.141       94.599        0.029      340.665       14.839      860.100
10/15/2014  15:10:00     -447.498      -68.024      -30.609      185.976      199.041      100.360    34587.045    39617.457    10072.105       14.503        4.214      452.639       97.842        0.047      340.864       15.177      860.118
10/15/2014  15:11:00     -476.590       26.056      -23.857      230.706      159.308       98.745    53225.446    25379.183     9750.592       15.836        4.418      477.301      105.346        0.049      340.807       15.078      860.143
10/15/2014  15:12:00     -477.262      -90.372      -23.471      270.482      175.769       91.652    73160.568    30894.620     8400.105       17.446        5.623      485.743      123.117        0.064      340.907       15.249      860.146
10/15/2014  15:13:00     -558.466     -160.301      -33.401      219.920      137.564       91.889    48364.897    18923.956     8443.537       20.720        3.787      581.017       90.591        0.024      340.787       15.046      860.167
10/15/2014  15:14:00     -286.966     -252.573       -3.138      194.413      152.673       99.834    37796.429    23308.980     9966.783       10.860        3.554      382.286      100.602        0.069      340.936       15.298      860.204
10/15/2014  15:15:00     -633.934     -213.179      -44.667      352.277      206.793      103.807   124098.964    42763.270    10775.810       31.345        8.882      668.818      102.175        0.023      340.735       14.956      860.202
10/15/2014  15:16:00     -459.534     -254.516      -22.763      251.215      222.881      108.172    63108.987    49675.844    11701.259       20.046        6.224      525.310      105.692        0.040      340.735       14.958      860.180
10/15/2014  15:17:00     -380.238     -189.449       -6.146      220.301      137.643       98.888    48532.625    18945.494     9778.783       12.887        3.863      424.819       95.040        0.050      340.819       15.099      860.173
10/15/2014  15:18:00     -462.450     -248.171      -24.040      275.112      125.879       94.116    75686.601    15845.647     8857.817       18.819        5.020      524.832      120.600        0.053      340.808       15.079      860.164
10/15/2014  15:19:00     -521.577     -247.373      -33.399      225.533      203.379      113.251    50865.103    41363.056    12825.816       21.969        5.253      577.266      115.764        0.040      340.803       15.073      860.168
10/15/2014  15:20:00     -523.945     -133.532      -25.749      223.971      169.191       92.031    50163.104    28625.572     8469.613       19.012        4.363      540.693       95.886        0.031      340.857       15.164      860.109
10/15/2014  15:21:00     -445.582      -79.162      -16.681      205.442      145.568       82.663    42206.551    21190.077     6833.119       13.765        3.511      452.559       98.076        0.047      340.806       15.079      860.103
10/15/2014  15:22:00     -376.480     -122.942      -18.846      266.906      209.702       96.958    71238.798    43975.101     9400.805       14.089        6.231      396.045      112.975        0.081      340.953       15.328      860.103
10/15/2014  15:23:00     -420.711     -182.815        1.410      275.507      153.720      118.623    75904.077    23629.841    14071.491       16.199        5.680      458.714      150.504        0.108      340.788       15.047      860.103
10/15/2014  15:24:00     -408.971     -210.887      -30.008      238.302      188.346      106.514    56787.891    35474.232    11345.338       15.810        5.180      460.142      105.438        0.053      340.706       14.908      860.100
10/15/2014  15:25:00     -435.723     -121.652      -11.581      274.487      220.779      105.962    75343.338    48743.229    11228.006       17.003        6.766      452.387      126.329        0.078      340.723       14.936      860.098
10/15/2014  15:26:00     -658.323     -242.407      -38.691      352.333      199.387      117.393   124138.602    39755.041    13781.211       33.563        8.884      701.534      145.357        0.043      340.477       14.522      860.083
10/15/2014  15:27:00     -436.523     -194.853       -9.028      265.608      187.382      107.005    70547.710    35112.074    11450.077       17.284        5.855      478.038      127.390        0.071      340.573       14.684      860.120
10/15/2014  15:28:00     -267.226     -133.538      -10.789      216.055      152.972       96.657    46679.632    23400.313     9342.595        8.438        3.971      298.734      104.969        0.123      340.636       14.790      860.103
10/15/2014  15:29:00     -639.709     -308.340      -31.268      343.130      280.014      125.015   117738.470    78408.064    15628.673       35.849       10.589      710.141      154.691        0.047      340.509       14.575      860.116
10/15/2014  15:30:00     -426.296     -281.248       -1.015      323.696      219.904      146.085   104779.086    48357.889    21340.713       21.762        8.724      510.714      175.746        0.118      340.526       14.604      860.183
10/15/2014  15:31:00     -589.486     -219.818      -46.251      268.010      201.441      109.214    71829.131    40578.398    11927.595       26.112        6.217      629.137      124.078        0.039      340.472       14.512      860.148
10/15/2014  15:32:00     -502.050     -201.674       -5.953      235.153      166.928      110.903    55297.146    27864.854    12299.519       19.410        4.773      541.042      131.247        0.059      340.582       14.698      860.118
10/15/2014  15:33:00     -568.731     -142.061      -30.524      327.729      231.816      122.431   107406.160    53738.498    14989.301       26.032        8.807      586.205      145.910        0.062      340.579       14.695      860.131
10/15/2014  15:34:00     -291.664      -25.889      -17.707      238.127      166.852      102.940    56704.297    27839.715    10596.625        9.058        4.757      292.811      111.523        0.145      340.834       15.125      860.037
10/15/2014  15:35:00     -445.637     -192.309      -31.418      238.712      187.466       93.633    56983.233    35143.497     8767.188       16.871        5.045      485.361      108.771        0.050      340.730       14.949      860.059
10/15/2014  15:36:00     -369.964     -116.437       -5.444      239.459      156.780       90.779    57340.807    24580.084     8240.817       12.030        4.508      387.854      105.740        0.074      340.753       14.988      860.072
10/15/2014  15:37:00     -381.224     -143.374       -5.654      226.657      167.476      103.881    51373.605    28048.323    10791.237       12.805        4.511      407.293      122.725        0.091      340.900       15.237      860.079
10/15/2014  15:38:00     -524.765     -205.470      -34.919      349.549      225.698      109.938   122184.537    50939.437    12086.312       25.198        9.261      563.557      152.055        0.073      340.847       15.146      860.053
10/15/2014  15:39:00     -544.865     -211.702      -17.825      220.058      230.485      122.364    48425.650    53123.394    14972.867       22.925        5.826      584.547      136.698        0.055      340.786       15.044      860.069
10/15/2014  15:40:00     -506.476     -193.037      -25.486      285.804      202.551      112.197    81683.866    41026.834    12588.206       21.484        6.765      542.016      136.276        0.063      340.735       14.957      860.091
10/15/2014  15:41:00     -528.047     -172.792      -28.747      232.117      172.308      102.431    53878.373    29690.080    10492.021       20.177        4.703      555.599      115.550        0.043      340.723       14.938      860.162
10/15/2014  15:42:00     -537.009     -313.875      -25.634      265.140      227.124      114.699    70298.959    51585.355    13155.797       26.127        6.752      622.010      122.438        0.039      340.680       14.865      860.219
10/15/2014  15:43:00     -560.729     -263.601      -17.954      242.480      206.248      115.386    58796.775    42538.060    13313.945       24.942        5.732      619.599      129.743        0.044      340.707       14.908      860.262
10/15/2014  15:44:00     -341.288     -191.042      -10.362      208.371      136.664       96.619    43418.402    18677.138     9335.185       11.224        3.572      391.119      103.947        0.071      340.714       14.921      860.294
10/15/2014  15:45:00     -423.771     -302.956      -26.259      232.530      203.055       96.119    54070.026    41231.214     9238.814       18.828        5.227      520.926      101.806        0.038      340.650       14.813      860.318
10/15/2014  15:46:00     -257.389      -99.818        3.518      185.836      155.008       81.223    34535.203    24027.467     6597.225        7.068        3.258      276.067       88.623        0.103      340.847       15.147      860.263
10/15/2014  15:47:00     -480.365      -50.950      -23.951      269.194      160.273       93.605    72465.233    25687.547     8761.969       17.040        5.346      483.060      117.972        0.060      340.771       15.018      860.287
10/15/2014  15:48:00     -574.925      -84.025      -23.172      203.292      162.258       93.370    41327.755    26327.662     8717.969       20.724        3.819      581.033      105.099        0.033      340.781       15.034      860.280
10/15/2014  15:49:00     -174.813      -95.404       23.135      169.084      157.470       80.299    28589.529    24796.811     6447.968        5.001        2.992      199.152       89.257        0.201      340.936       15.299      860.352
10/15/2014  15:50:00     -267.062     -143.793       -0.976      219.084      115.112       76.300    47997.846    13250.878     5821.700        7.952        3.354      303.313       96.767        0.102      340.847       15.148      860.399
10/15/2014  15:51:00     -333.063      -47.942        4.655      222.014      160.126       98.503    49290.382    25640.475     9702.930        9.893        4.232      336.495      115.002        0.117      340.948       15.318      860.426
10/15/2014  15:52:00     -352.391      -64.463      -21.522      204.674      122.623       67.620    41891.584    15036.289     4572.487        9.514        3.075      358.239       80.703        0.051      340.915       15.262      860.454
10/15/2014  15:53:00     -473.186     -223.205      -18.656      299.693      178.240      106.132    89815.696    31769.456    11264.077       20.344        6.642      523.188      102.783        0.039      340.656       14.822      860.484
10/15/2014  15:54:00     -325.141     -233.574      -21.281      229.839      158.365       98.084    52825.805    25079.484     9620.491       12.411        4.376      400.341      126.690        0.100      340.751       14.984      860.507
10/15/2014  15:55:00     -419.371      -19.479      -23.440      357.247      186.548       87.814   127625.233    34800.167     7711.240       17.344        8.507      419.823      134.595        0.103      340.884       15.210      860.455
10/15/2014  15:56:00     -248.771     -104.020        1.473      193.967      131.914       93.273    37623.206    17401.360     8699.918        6.821        3.186      269.643      101.254        0.141      340.822       15.105      860.484
10/15/2014  15:57:00     -379.667      -39.363      -15.201      154.124      124.583       87.051    23754.109    15520.905     7577.896        9.638        2.343      381.702       80.741        0.045      340.812       15.088      860.487
10/15/2014  15:58:00     -415.192      -70.104      -14.969      159.784      165.556       76.947    25530.859    27408.695     5920.850       11.818        2.943      421.068       73.864        0.031      340.779       15.032      860.495
10/15/2014  15:59:00     -218.588     -123.262       -1.262      185.217      114.889       76.281    34305.269    13199.514     5818.847        5.814        2.666      250.947       71.661        0.082      340.842       15.139      860.493
10/15/2014  16:00:00     -361.084     -143.837      -12.628      269.248      173.343      112.396    72494.217    30047.682    12632.896       13.318        5.759      388.678      135.481        0.122      340.759       14.998      860.535
10/15/2014  16:01:00     -450.344     -153.736       14.146      302.087      265.279      133.461    91256.310    70372.757    17811.752       20.301        8.972      475.862      170.462        0.128      340.728       14.944      860.582
10/15/2014  16:02:00     -563.472     -227.062      -38.264      255.447      231.113      105.085    65253.324    53413.382    11042.828       25.009        6.485      607.501      112.340        0.034      340.594       14.719      860.552
10/15/2014  16:03:00     -527.430     -105.891      -15.200      259.791      166.141      101.382    67491.421    27602.802    10278.381       19.748        5.269      537.954      118.178        0.048      340.600       14.729      860.456
10/15/2014  16:04:00     -329.445     -163.379        2.493      223.721      169.149      100.157    50051.092    28611.470    10031.356       11.195        4.435      367.732      108.912        0.088      340.724       14.939      860.491
10/15/2014  16:05:00     -356.885     -268.334       22.287      278.619      225.389      131.345    77628.821    50800.015    17251.443       17.275        7.284      446.508      160.021        0.128      340.578       14.691      860.511
10/15/2014  16:06:00     -547.874     -283.464      -29.327      179.650      195.087       83.715    32273.993    38058.937     7008.121       22.935        3.867      616.861       87.183        0.020      340.542       14.631      860.426
10/15/2014  16:07:00     -218.996     -155.994        1.975      168.212      158.994       80.928    28295.181    25279.021     6549.406        6.620        3.006      268.874       90.313        0.113      340.819       15.101      860.415
10/15/2014  16:08:00     -401.893     -205.703       -8.009      261.067      181.348       88.234    68155.844    32887.109     7785.318       15.634        5.441      451.477       95.408        0.045      340.760       15.000      860.432
10/15/2014  16:09:00     -642.778     -226.103      -47.355      354.056      168.539      116.779   125355.518    28405.357    13637.380       31.694        8.370      681.386      149.195        0.048      340.544       14.635      860.398
10/15/2014  16:10:00     -459.015     -159.966      -16.452      229.252      188.368       94.561    52556.272    35482.627     8941.793       16.675        4.849      486.091       97.370        0.040      340.674       14.854      860.382
10/15/2014  16:11:00     -554.912     -190.376      -29.017      258.245      171.138      112.023    66690.380    29288.238    12549.234       22.675        5.426      586.660      112.560        0.037      340.585       14.704      860.406
10/15/2014  16:12:00     -403.258     -155.447       18.692      221.943      222.518      113.553    49258.641    49514.234    12894.289       14.938        5.583      432.182      117.988        0.075      340.608       14.744      860.412
10/15/2014  16:13:00     -346.066     -182.157        6.482      241.813      199.128      115.574    58473.496    39651.916    13357.308       13.222        5.574      391.079      132.821        0.115      340.614       14.753      860.395
10/15/2014  16:14:00     -200.482     -133.497       24.396      211.981      190.902       92.385    44935.778    36443.447     8534.944        7.425        4.496      240.862      117.356        0.237      340.694       14.890      860.388
10/15/2014  16:15:00     -284.378     -214.085       -3.371      203.631      152.121       94.240    41465.611    23140.731     8881.176       10.009        3.674      355.954      100.971        0.080      340.635       14.788      860.339
10/15/2014  16:16:00     -374.581     -117.882      -12.384      213.887      169.529       86.437    45747.748    28739.978     7471.425       11.815        4.098      392.692      114.818        0.085      340.678       14.862      860.319
10/15/2014  16:17:00     -239.954      -35.540        3.147      249.041      166.976       90.919    62021.362    27881.138     8266.276        7.849        4.908      242.572      107.835        0.198      340.665       14.838      860.277
10/15/2014  16:18:00     -509.034     -124.072      -13.233      333.136      186.704      122.984   110979.515    34858.365    15125.176       21.780        8.048      523.937      148.294        0.080      340.563       14.667      860.316
10/15/2014  16:19:00     -694.471     -151.778      -52.523      244.261      210.234       94.385    59663.251    44198.153     8908.554       31.041        5.638      710.863       94.970        0.018      340.405       14.400      860.317
10/15/2014  16:20:00     -492.328      -66.073      -33.938      192.882      201.456       81.429    37203.384    40584.477     6630.651       16.615        4.221      496.741       74.995        0.023      340.484       14.533      860.271
10/15/2014  16:21:00     -444.895     -138.947      -27.056      223.956      188.699       84.336    50156.269    35607.421     7112.512       15.541        4.644      466.088       96.627        0.043      340.463       14.499      860.303
10/15/2014  16:22:00     -330.330     -177.209        2.291      246.866      189.339      109.814    60942.652    35849.215    12059.147       12.467        5.443      374.862      134.220        0.128      340.516       14.588      860.336
10/15/2014  16:23:00     -440.574     -122.070       -1.539      269.081      161.645       97.566    72404.770    26129.034     9519.219       15.851        5.403      457.172      115.530        0.064      340.432       14.446      860.318
10/15/2014  16:24:00     -266.269      -90.021       -4.452      147.775      135.659       70.671    21837.359    18403.385     4994.436        6.212        2.262      281.075       56.355        0.040      340.491       14.546      860.300
10/15/2014  16:25:00     -563.398     -137.337      -24.506      205.564      201.785       85.034    42256.555    40717.064     7230.814       21.353        4.510      579.895       84.818        0.021      340.427       14.435      860.295
10/15/2014  16:26:00     -408.543      -73.384      -34.009      224.153      162.586       88.170    50244.401    26434.244     7774.003       12.894        4.223      415.081       97.591        0.055      340.464       14.498      860.279
10/15/2014  16:27:00     -270.249      -87.971       -4.771      173.308      110.181       80.778    30035.522    12139.843     6525.075        6.474        2.435      284.206       82.327        0.084      340.543       14.632      860.330
10/15/2014  16:28:00     -454.767      -46.289      -23.809      210.194      140.572       77.953    44181.406    19760.472     6076.730       13.976        3.501      457.117       82.855        0.033      340.455       14.485      860.351
10/15/2014  16:29:00     -431.429      -61.782      -40.732      237.694      130.203       96.739    56498.542    16952.763     9358.512       13.719        4.140      435.830      113.435        0.068      340.418       14.422      860.346
10/15/2014  16:30:00     -509.181      -83.107      -16.066      199.292      173.986       96.744    39717.382    30271.114     9359.445       17.288        3.967      515.918       97.511        0.036      340.404       14.397      860.326
10/15/2014  16:31:00     -331.111     -134.939        3.481      178.330      154.078       81.795    31801.752    23739.900     6690.464        9.503        3.112      357.552       93.801        0.069      340.415       14.416      860.350
10/15/2014  16:32:00     -586.160     -109.747      -27.361      238.454      136.342       88.213    56860.100    18589.270     7781.528       21.979        4.162      596.345      105.282        0.031      340.354       14.315      860.364
10/15/2014  16:33:00     -552.618     -144.543      -12.306      199.581      153.566      102.320    39832.521    23582.542    10469.333       20.014        3.694      571.208      106.241        0.035      340.375       14.350      860.342
10/15/2014  16:34:00     -351.683       -7.746       -1.102      211.261      134.042       70.218    44631.270    17967.147     4930.585        9.562        3.376      351.769       88.608        0.063      340.433       14.448      860.365
10/15/2014  16:35:00     -580.565     -192.773      -20.506      213.722      156.741       77.525    45677.078    24567.833     6010.147       22.543        3.813      611.733       81.591        0.018      340.333       14.277      860.368
10/15/2014  16:36:00     -400.161      -69.236      -15.866      145.676      191.183       84.665    21221.572    36550.981     7168.125       11.505        3.247      406.106       64.443        0.025      340.369       14.339      860.356
10/15/2014  16:37:00     -377.251      -25.707      -16.190      141.892      124.663       69.972    20133.277    15540.891     4896.140        9.190        2.029      378.126       66.139        0.031      340.464       14.500      860.349
10/15/2014  16:38:00     -364.514      -34.778       -7.008      184.045      160.394       87.830    33872.454    25726.109     7714.166       10.071        3.366      366.169       97.165        0.070      340.464       14.500      860.319
10/15/2014  16:39:00     -456.512     -199.034       -5.548      201.166      191.519       81.753    40467.857    36679.418     6683.583       16.593        4.192      498.014       83.646        0.028      340.373       14.345      860.322
10/15/2014  16:40:00     -437.615     -113.581      -15.315      182.985      144.624       78.894    33483.476    20916.169     6224.340       13.262        3.031      452.114       85.176        0.035      340.367       14.336      860.311
10/15/2014  16:41:00     -408.393      -19.078      -14.071      185.856      176.791       81.241    34542.307    31255.116     6600.031       11.986        3.620      408.839       76.567        0.035      340.371       14.343      860.285
10/15/2014  16:42:00     -323.503      -25.154      -13.788      160.649      118.813       76.226    25808.004    14116.569     5810.474        7.560        2.287      324.480       82.437        0.065      340.396       14.384      860.252
10/15/2014  16:43:00     -244.599      -69.759       -6.615      174.594      170.891       81.491    30483.190    29203.610     6640.754        6.552        3.316      254.352       78.383        0.095      340.420       14.425      860.235
10/15/2014  16:44:00     -182.804      -68.674        3.336      126.783      144.041       75.590    16073.869    20747.902     5713.819        4.033        2.127      195.278       60.256        0.095      340.453       14.482      860.217
10/15/2014  16:45:00     -398.451      -13.323      -25.974      220.342      145.814       83.179    48550.626    21261.679     6918.697       11.816        3.837      398.674       89.900        0.051      340.420       14.425      860.165
10/15/2014  16:46:00     -487.067      -68.492      -26.012      187.574      191.104       92.892    35184.123    36520.770     8628.990       16.145        4.017      491.859       93.892        0.036      340.362       14.327      860.153
10/15/2014  16:47:00     -507.223      -77.880      -18.260      177.352      169.436       90.120    31453.759    28708.633     8121.685       16.597        3.414      513.167       94.073        0.034      340.318       14.252      860.146
10/15/2014  16:48:00     -597.974     -183.040      -17.574      246.751      172.028       98.947    60886.162    29593.786     9790.606       24.581        5.014      625.361       96.561        0.024      340.310       14.240      860.133
10/15/2014  16:49:00     -452.064     -151.546      -22.342      157.971      145.780       82.135    24954.984    21251.922     6746.143       14.038        2.648      476.789       80.317        0.028      340.349       14.304      860.163
10/15/2014  16:50:00     -590.791     -101.623      -31.831      215.949      165.589       94.531    46633.766    27419.728     8936.018       22.167        4.149      599.468       98.694        0.027      340.333       14.277      860.118
10/15/2014  16:51:00     -353.956      -91.814        5.487      229.907      206.203      101.560    52857.267    42519.843    10314.521       11.970        5.285      365.670      118.022        0.104      340.343       14.295      860.171
10/15/2014  16:52:00     -407.457     -135.520      -10.733      300.336      160.407      107.909    90201.579    25730.335    11644.413       15.602        6.379      429.403      139.615        0.106      340.343       14.296      860.221
10/15/2014  16:53:00     -416.871      -48.359      -29.003      186.981      152.052       82.088    34961.767    23119.792     6738.511       12.088        3.241      419.667       84.899        0.041      340.350       14.308      860.196
10/15/2014  16:54:00     -342.167     -124.902      -17.007      201.171      125.584       78.176    40469.849    15771.465     6111.550        9.765        3.118      364.251       86.665        0.057      340.377       14.352      860.218
10/15/2014  16:55:00     -349.265     -127.336       -1.263      185.427      150.609       80.227    34383.353    22682.970     6436.347       10.084        3.175      371.753       84.426        0.052      340.370       14.341      860.242
10/15/2014  16:56:00     -377.380      -52.037      -30.632      166.324      157.000       76.852    27663.815    24649.035     5906.215       10.213        2.911      380.951       66.053        0.030      340.326       14.266      860.251
10/15/2014  16:57:00     -396.854       25.638      -23.033      176.420      114.607       70.586    31124.075    13134.783     4982.409       10.395        2.462      397.682       68.253        0.029      340.331       14.274      860.227
10/15/2014  16:58:00     -340.487      -30.506      -22.780      180.288      147.815       78.024    32503.774    21849.211     6087.814        8.890        3.022      341.851       76.811        0.050      340.379       14.355      860.215
10/15/2014  16:59:00     -499.626     -138.927      -36.379      223.971      143.052       89.426    50163.047    20463.981     7997.029       17.442        3.931      518.581      103.632        0.040      340.307       14.235      860.236
10/15/2014  17:00:00     -295.225      -76.703       -9.316      187.679      136.373       84.225    35223.494    18597.551     7093.799        7.701        3.046      305.026       88.690        0.085      340.393       14.381      860.267
10/15/2014  17:01:00     -433.391      -47.909      -24.263      197.705      135.537       83.587    39087.245    18370.342     6986.804       12.757        3.222      436.031       94.338        0.047      340.352       14.310      860.200
10/15/2014  17:02:00     -435.491      -39.674      -40.557      160.154      148.033       73.710    25649.231    21913.672     5433.149       12.293        2.650      437.295       72.107        0.027      340.367       14.334      860.159
10/15/2014  17:03:00     -342.130      -81.301       -6.813      142.447      108.278       64.996    20291.271    11724.056     4224.498        7.997        1.812      351.657       66.162        0.035      340.326       14.266      860.165
10/15/2014  17:04:00     -238.193      -38.720        8.920      133.860      120.784       73.475    17918.553    14588.773     5398.544        4.810        1.895      241.320       73.131        0.092      340.428       14.440      860.165
10/15/2014  17:05:00     -248.825      -98.330        9.978      187.185      131.685       86.193    35038.392    17341.010     7429.147        6.574        2.990      267.549      100.234        0.140      340.316       14.249      860.128
10/15/2014  17:06:00     -329.173     -100.437      -21.097      115.506      175.465       78.300    13341.532    30787.965     6130.920        8.457        2.513      344.155       77.450        0.051      340.321       14.256      860.134
10/15/2014  17:07:00     -503.531      -87.945      -49.224      203.739      205.440       87.810    41509.586    42205.770     7710.680       17.755        4.571      511.153       86.094        0.028      340.347       14.302      860.086
10/15/2014  17:08:00     -453.502      -85.617       -5.583      241.301      139.961       84.516    58225.963    19589.036     7142.893       14.898        4.248      461.513       99.977        0.047      340.302       14.226      860.089
10/15/2014  17:09:00     -474.701     -102.242       -9.161      232.981      157.855       93.645    54280.091    24918.182     8769.384       16.191        4.398      485.587       94.714        0.038      340.303       14.228      860.080
10/15/2014  17:10:00     -465.168      -78.395      -20.492      226.564      156.729       93.876    51331.386    24563.846     8812.759       15.381        4.235      471.728       96.786        0.042      340.315       14.247      860.090
10/15/2014  17:11:00     -380.800       -4.827      -15.055      203.250      133.649       84.172    41310.605    17862.022     7084.915       10.575        3.313      380.831      101.532        0.071      340.333       14.276      860.099
10/15/2014  17:12:00     -448.655      -63.184      -35.520      170.321      152.919       75.863    29009.242    23384.201     5755.196       13.234        2.907      453.082       67.810        0.022      340.356       14.317      860.066
10/15/2014  17:13:00     -539.326     -101.817      -25.836      239.745      158.653       95.406    57477.807    25170.752     9102.325       19.681        4.588      548.852      109.251        0.040      340.300       14.222      860.078
10/15/2014  17:14:00     -446.086     -123.924      -16.647      227.591      163.477       92.282    51797.488    26724.804     8515.929       15.082        4.352      462.979      110.214        0.057      340.287       14.199      860.083
10/15/2014  17:15:00     -282.185      -83.102      -11.558      153.215      150.228       69.488    23474.833    22568.480     4828.561        6.876        2.544      294.168       68.726        0.055      340.372       14.344      860.101
10/15/2014  17:16:00     -145.329      -50.559       -0.355      145.357      103.920       57.360    21128.559    10799.321     3290.206        2.944        1.761      153.872       59.555        0.150      340.314       14.247      860.083
10/15/2014  17:17:00     -348.682      -64.856      -10.539      195.260      137.571       71.209    38126.652    18925.834     5070.680        9.400        3.106      354.662       84.182        0.056      340.360       14.324      860.074
10/15/2014  17:18:00     -399.131      -98.389      -10.802      196.842      157.789       79.288    38746.592    24897.386     6286.638       11.950        3.497      411.079       85.840        0.044      340.306       14.232      860.078
10/15/2014  17:19:00     -289.237      -34.324      -13.241      171.150      107.291       67.746    29292.333    11511.404     4589.500        6.519        2.270      291.266       71.323        0.060      340.384       14.363      860.083
10/15/2014  17:20:00     -238.441      -88.338       -5.685      144.218      115.736       64.618    20798.748    13394.783     4175.479        5.152        1.918      254.278       66.963        0.069      340.342       14.294      860.083
10/15/2014  17:21:00     -417.339      -92.762        0.979      324.843      163.208       84.945   105522.706    26637.007     7215.629       16.105        6.969      427.524      117.767        0.076      340.263       14.160      860.059
10/15/2014  17:22:00     -508.756      -85.157      -33.195      170.530      155.120       86.384    29080.613    24062.209     7462.216       16.389        3.030      515.834       81.421        0.025      340.252       14.141      860.039
10/15/2014  17:23:00     -283.685     -106.019      -13.019      180.420      144.468       85.263    32551.312    20871.114     7269.825        7.628        3.035      302.849       99.431        0.108      340.292       14.209      860.047
10/15/2014  17:24:00     -299.585     -132.379      -16.327      192.846      164.044       74.878    37189.595    26910.485     5606.724        8.861        3.485      327.529       85.532        0.068      340.266       14.163      860.046
10/15/2014  17:25:00     -146.877      -99.851       19.876      203.660      179.191       91.869    41477.589    32109.502     8439.920        5.697        4.101      177.604      103.490        0.340      340.254       14.145      860.053
10/15/2014  17:26:00     -159.475     -118.191        1.379      167.553      184.328       78.259    28074.048    33976.953     6124.489        5.378        3.409      198.498       78.824        0.158      340.298       14.218      859.986
10/15/2014  17:27:00     -378.164      -94.867      -14.504      212.096      171.994       99.673    44984.810    29581.790     9934.682       11.835        4.225      389.882      109.052        0.078      340.270       14.171      859.931
10/15/2014  17:28:00     -374.774     -100.460       -9.093      212.574      147.923       77.786    45187.706    21881.305     6050.689       11.186        3.656      388.005       81.104        0.044      340.307       14.234      859.903
10/15/2014  17:29:00     -379.647      -68.413       -3.165      212.414      134.763       88.300    45119.856    18161.139     7796.959       10.994        3.554      385.761      102.280        0.070      340.304       14.229      859.919
10/15/2014  17:30:00     -421.077      -97.537      -16.076      218.112      171.000       94.999    47573.055    29240.865     9024.798       13.644        4.292      432.226      113.887        0.069      340.328       14.270      859.916
10/15/2014  17:31:00     -299.749      -62.117      -20.266      170.483      142.985       78.845    29064.354    20444.594     6216.560        7.491        2.786      306.118       74.164        0.059      340.347       14.300      859.928
10/15/2014  17:32:00      -90.129       11.512       30.786      133.061      108.610       64.539    17705.158    11796.209     4165.227        2.143        1.683       90.861       72.773        0.641      340.317       14.253      859.953
10/15/2014  17:33:00     -370.012     -153.362      -26.382      239.366      225.830       86.467    57296.205    50999.045     7476.517       13.843        5.789      400.535      100.879        0.063      340.283       14.193      859.951
10/15/2014  17:34:00     -297.265     -122.049       -3.814      188.293      124.674       71.882    35454.232    15543.524     5167.064        7.971        2.808      321.345       72.804        0.051      340.283       14.193      859.978
10/15/2014  17:35:00     -228.035     -125.503       24.773      220.384      188.155       90.363    48569.195    35402.176     8165.453        8.024        4.607      260.290      110.910        0.182      340.255       14.146      859.965
10/15/2014  17:36:00     -403.628     -143.402      -18.981      230.308      167.390       87.435    53041.691    28019.414     7644.908       13.626        4.435      428.345       97.677        0.052      340.246       14.131      859.962
10/15/2014  17:37:00     -138.074      -81.157       15.876      129.632      116.243       67.614    16804.504    13512.445     4571.596        3.039        1.744      160.159       76.934        0.231      340.277       14.185      859.946
10/15/2014  17:38:00     -242.097      -43.998        1.950      166.244      112.887       76.649    27637.003    12743.517     5875.070        5.340        2.313      246.062       77.874        0.100      340.264       14.161      859.917
10/15/2014  17:39:00     -291.482      -13.958       -3.624      199.424      146.082       84.512    39769.788    21339.908     7142.329        7.670        3.413      291.816       93.107        0.102      340.255       14.145      859.892
10/15/2014  17:40:00     -355.305     -225.168       -3.725      167.870      202.962       89.133    28180.275    41193.439     7944.710       12.712        3.866      420.644       87.615        0.043      340.243       14.126      859.881
10/15/2014  17:41:00     -268.913      -63.542       -7.334      124.648      137.018       72.653    15537.238    18773.944     5278.424        5.799        1.979      276.319       73.421        0.071      340.260       14.155      859.860
10/15/2014  17:42:00     -494.843      -95.561      -26.112      277.590      208.520       90.962    77056.462    43480.600     8274.010       19.173        6.441      503.985      123.683        0.060      340.207       14.064      859.886
10/15/2014  17:43:00     -496.328      -69.536      -26.795      208.476      211.544       91.210    43462.153    44750.933     8319.204       17.420        4.827      501.175       86.689        0.030      340.187       14.030      859.846
10/15/2014  17:44:00     -427.496      -88.288      -20.162      253.847      161.139      109.058    64438.486    25965.657    11893.559       14.661        5.115      436.517      137.350        0.099      340.216       14.079      859.856
10/15/2014  17:45:00     -257.084     -120.956       10.838      210.205      167.936       85.301    44185.962    28202.592     7276.261        8.024        3.983      284.117      103.939        0.134      340.213       14.073      859.866
10/15/2014  17:46:00     -519.220     -159.501      -25.436      206.961      164.460      100.144    42832.857    27047.176    10028.907       18.778        3.995      543.167      101.771        0.035      340.203       14.057      859.842
10/15/2014  17:47:00     -400.354     -128.321       -5.376      200.436      152.187       85.699    40174.639    23160.881     7344.257       12.372        3.534      420.416       98.374        0.055      340.220       14.085      859.847
10/15/2014  17:48:00     -329.829      -84.343       -7.113      216.298      173.396       91.671    46784.689    30066.248     8403.646       10.059        4.263      340.443      101.183        0.088      340.232       14.106      859.935
10/15/2014  17:49:00     -310.530      -43.172      -28.431      165.863      106.953       69.836    27510.535    11438.966     4877.094        7.146        2.191      313.517       76.658        0.060      340.228       14.101      859.895
10/15/2014  17:50:00     -288.691      -28.946       -8.479      223.844      168.599       85.425    50105.965    28425.578     7297.439        8.503        4.291      290.139       99.932        0.119      340.230       14.102      859.915
10/15/2014  17:51:00     -453.087     -212.853      -14.368      273.284      164.403      107.957    74684.398    27028.450    11654.688       18.207        5.668      500.594      125.044        0.062      340.197       14.046      859.951
10/15/2014  17:52:00     -488.032     -212.682      -10.586      206.667      187.092      109.857    42711.366    35003.396    12068.636       18.664        4.489      532.362      114.376        0.046      340.193       14.039      859.955
10/15/2014  17:53:00     -348.759     -120.682       -2.291      234.883      213.481      106.653    55169.865    45573.926    11374.812       12.414        5.606      369.049      114.179        0.096      340.196       14.046      859.989
10/15/2014  17:54:00     -439.228      -53.157       -8.076      191.692      133.260       96.838    36745.847    17758.187     9377.536       12.984        3.194      442.433      107.917        0.059      340.177       14.013      860.007
10/15/2014  17:55:00     -329.857      -51.601      -27.842      188.851      119.832       74.917    35664.597    14359.680     5612.500        8.393        2.782      333.868       87.108        0.068      340.204       14.059      860.028
10/15/2014  17:56:00     -355.086     -154.573       -5.447      182.606      130.712       78.760    33344.926    17085.527     6203.064       10.331        2.832      387.271       81.102        0.044      340.219       14.085      860.006
10/15/2014  17:57:00     -393.770      -65.458       10.839      276.057      173.417       92.958    76207.279    30073.448     8641.270       13.717        5.746      399.174      117.129        0.086      340.216       14.079      860.020
10/15/2014  17:58:00     -532.124      -43.032      -52.838      188.166      166.120       97.387    35406.565    27595.871     9484.273       18.013        3.624      533.861       90.475        0.029      340.259       14.153      859.991
10/15/2014  17:59:00     -539.920      -86.771      -28.770      310.629      251.565       94.986    96490.627    63284.708     9022.316       23.431        8.440      546.848      124.988        0.052      340.207       14.064      860.019
10/15/2014  18:00:00     -514.143      -44.966      -32.224      242.482      220.566       97.013    58797.427    48649.370     9411.426       19.211        5.843      516.105      102.670        0.040      340.240       14.120      860.002
10/15/2014  18:01:00     -279.982        0.088        8.062      271.012      155.450       86.287    73447.520    24164.775     7445.371        9.174        5.253      279.982      107.391        0.147      340.223       14.092      860.010
10/15/2014  18:02:00     -313.402     -109.477       -6.639      191.266      152.065       79.903    36582.511    23123.856     6384.437        8.816        3.305      331.973       81.331        0.060      340.272       14.174      860.012
10/15/2014  18:03:00     -508.724      -65.487      -29.787      206.879      181.421       87.311    42799.091    32913.725     7623.211       17.364        4.167      512.921       97.854        0.036      340.272       14.176      860.002
10/15/2014  18:04:00     -467.250      -93.468      -21.719      197.178      174.963       86.297    38879.186    30612.018     7447.134       15.222        3.847      476.507       91.286        0.037      340.262       14.156      860.039
10/15/2014  18:05:00     -368.012     -145.127      -13.198      199.416      134.094       84.712    39766.626    17981.285     7176.202       11.079        3.246      395.594       96.127        0.059      340.255       14.147      860.084
10/15/2014  18:06:00     -314.344     -188.333       -2.835      226.847      141.366       84.415    51459.678    19984.248     7125.918       10.642        3.928      366.445       97.299        0.071      340.207       14.065      860.168
10/15/2014  18:07:00     -346.702     -119.850        4.937      199.726      202.424      102.128    39890.368    40975.304    10430.043       11.293        4.565      366.832      101.796        0.077      340.203       14.059      860.136
10/15/2014  18:08:00     -405.915     -143.285      -14.702      181.802      160.932       73.992    33051.818    25898.978     5474.803       12.496        3.221      430.462       66.086        0.024      340.133       13.941      860.076
10/15/2014  18:09:00     -270.526     -133.393       -8.609      194.893      122.517       80.665    37983.233    15010.439     6506.803        7.527        2.975      301.626       94.642        0.098      340.133       13.941      860.114
10/15/2014  18:10:00     -529.969     -147.245      -14.025      374.015      204.827      111.111   139887.516    41954.179    12345.757       24.843        9.709      550.043      155.673        0.080      340.160       13.986      860.096
10/15/2014  18:11:00     -466.655      -90.310      -28.174      275.191      158.709      105.558    75730.081    25188.638    11142.585       16.937        5.603      475.313      131.646        0.077      340.161       13.986      860.098
10/15/2014  18:12:00     -418.806     -135.365      -18.804      154.970      135.834       78.606    24015.710    18450.751     6178.926       12.135        2.432      440.138       73.338        0.028      340.139       13.951      860.108
10/15/2014  18:13:00     -366.059      -66.524        1.284      170.128      150.925       80.506    28943.378    22778.289     6481.180        9.830        2.910      372.054       74.817        0.040      340.153       13.973      860.132
10/15/2014  18:14:00     -268.092     -149.565       -1.180      146.396      144.370       70.017    21431.738    20842.746     4902.424        7.070        2.359      306.990       74.967        0.060      340.119       13.915      860.090
10/15/2014  18:15:00     -227.911     -107.073       -9.700      125.526      135.138       65.507    15756.765    18262.344     4291.118        5.090        1.916      251.809       73.355        0.085      340.142       13.955      860.069
10/15/2014  18:16:00     -269.692      -66.868        3.301      206.923      154.312       92.849    42817.230    23812.339     8620.993        7.622        3.763      277.858      103.882        0.140      340.179       14.019      860.076
10/15/2014  18:17:00     -324.545     -159.413      -16.505      168.411      170.682       85.736    28362.099    29132.211     7350.608        9.792        3.242      361.583       77.476        0.046      340.134       13.941      860.137
10/15/2014  18:18:00     -153.567      -26.442       28.255      151.975      127.342       81.678    23096.312    16215.955     6671.256        3.552        2.299      155.827       96.509        0.384      340.122       13.922      860.188
10/15/2014  18:19:00     -160.526      -44.810        9.306       96.651       67.949       40.241     9341.429     4617.104     1619.330        2.172        0.779      166.663       46.363        0.077      340.076       13.845      860.162
10/15/2014  18:20:00     -216.176      -71.036       -2.040       91.439       72.580       40.972     8361.077     5267.911     1678.683        3.354        0.765      227.548       41.877        0.034      340.094       13.874      860.199
10/15/2014  18:21:00     -293.086      -68.141        5.071      222.093      148.841       87.294    49325.453    22153.627     7620.314        8.482        3.955      300.903       83.415        0.077      340.179       14.018      860.236
10/15/2014  18:22:00     -429.624      -66.914      -24.656      252.817      189.670       83.350    63916.578    35974.859     6947.215       14.823        5.342      434.804      103.285        0.056      340.171       14.005      860.273
10/15/2014  18:23:00     -303.518      -57.127      -14.721      274.484      153.404       80.630    75341.649    23532.702     6501.161       10.047        5.269      308.848      106.144        0.118      340.055       13.808      860.313
10/15/2014  18:24:00     -285.505      -23.646       -6.353      189.471      141.547       72.816    35899.207    20035.660     5302.183        7.166        3.062      286.483       84.033        0.086      340.178       14.017      860.329
10/15/2014  18:25:00     -405.657     -127.401      -34.618      193.682      149.303       92.076    37512.683    22291.513     8478.023       12.512        3.414      425.193       99.787        0.055      340.082       13.854      860.331
10/15/2014  18:26:00     -184.908     -111.332        5.594      163.235      127.552       74.211    26645.544    16269.594     5507.226        4.751        2.421      215.837       80.672        0.140      340.098       13.882      860.358
10/15/2014  18:27:00     -426.474      -49.879      -22.124      251.919      134.016       89.847    63463.042    17960.167     8072.540       13.716        4.475      429.381      112.320        0.068      340.150       13.970      860.378
10/15/2014  18:28:00     -418.807     -134.131      -42.906      198.277      156.568       78.220    39313.929    24513.460     6118.351       13.258        3.497      439.761       95.350        0.047      340.144       13.958      860.433
10/15/2014  18:29:00     -472.402       -8.567      -39.801      209.641      186.202       89.973    43949.412    34671.154     8095.192       15.575        4.336      472.480       95.303        0.041      340.171       14.005      860.442
10/15/2014  18:30:00     -368.720       11.977      -28.219      224.773      119.006       74.054    50523.111    14162.340     5483.962       10.352        3.508      368.915      102.958        0.078      340.171       14.004      860.463
10/15/2014  18:31:00     -210.637     -122.395        7.986      159.597       78.327       59.294    25471.067     6135.154     3515.791        4.726        1.756      243.615       72.622        0.089      340.096       13.877      860.484
10/15/2014  18:32:00     -359.955      -20.172      -21.263      204.114       85.535       74.858    41662.513     7316.234     5603.794        9.250        2.729      360.519       97.856        0.074      340.152       13.971      860.464
10/15/2014  18:33:00     -219.924      -37.398        6.834      172.224      104.321       74.687    29661.195    10882.903     5578.182        4.796        2.306      223.081       79.537        0.127      340.151       13.972      860.492
10/15/2014  18:34:00     -156.644      -62.906       19.190      139.047      132.701       73.579    19334.115    17609.511     5413.840        3.560        2.118      168.803       65.309        0.150      340.189       14.036      860.525
10/15/2014  18:35:00     -151.130      -93.654       14.172      170.087      125.010       69.880    28929.543    15627.618     4883.275        4.062        2.472      177.796       87.206        0.241      340.123       13.925      860.513
10/15/2014  18:36:00     -407.073      -67.098      -16.618      164.764      129.867       70.212    27147.224    16865.465     4929.669       10.971        2.447      412.566       76.523        0.034      340.135       13.943      860.506
10/15/2014  18:37:00     -307.497       10.794      -17.908      150.283      134.183       70.973    22585.073    18005.211     5037.134        7.030        2.281      307.687       69.496        0.051      340.257       14.150      860.516
10/15/2014  18:38:00     -302.303      -30.044      -15.394      163.208      110.426       63.448    26636.714    12193.865     4025.620        6.768        2.143      303.792       67.402        0.049      340.158       13.982      860.536
10/15/2014  18:39:00     -255.216      -55.156       -6.981      129.952       97.319       58.320    16887.620     9471.071     3401.215        4.899        1.488      261.108       60.404        0.054      340.208       14.065      860.547
10/15/2014  18:40:00     -166.776      -42.923      -13.508      105.019       95.305       57.133    11028.940     9083.135     3264.171        2.660        1.169      172.211       45.671        0.070      340.220       14.089      860.524
10/15/2014  18:41:00     -328.829       18.914      -26.569      128.139       98.144       54.765    16419.726     9632.261     2999.238        6.912        1.453      329.373       59.553        0.033      340.188       14.033      860.536
10/15/2014  18:42:00     -306.994      -48.754      -17.563      132.201      103.254       58.460    17477.005    10661.288     3417.593        6.424        1.578      310.841       63.366        0.042      340.113       13.906      860.544
10/15/2014  18:43:00     -305.324      -29.060      -10.386      144.224      117.321       75.056    20800.557    13764.319     5633.384        6.718        2.010      306.704       77.271        0.063      340.180       14.019      860.554
10/15/2014  18:44:00     -303.268      -74.413      -23.134      146.154      112.520       57.057    21360.854    12660.731     3255.470        6.765        1.864      312.264       65.927        0.045      340.144       13.958      860.566
10/15/2014  18:45:00     -287.756       37.964      -14.486      126.773      110.010       55.897    16071.294    12102.147     3124.444        5.787        1.565      290.250       56.262        0.038      340.216       14.079      860.569
10/15/2014  18:46:00     -262.577     -115.983      -17.959      104.394      112.468       50.643    10898.135    12649.009     2564.752        5.441        1.306      287.052       37.805        0.017      340.104       13.890      860.554
10/15/2014  18:47:00     -351.804      -91.367      -20.394      190.354      143.941       59.484    36234.500    20718.940     3538.317        9.650        3.025      363.475       69.052        0.036      340.088       13.865      860.530
10/15/2014  18:48:00     -464.401     -130.459      -22.306      151.729       98.409       73.107    23021.600     9684.240     5344.677       13.561        1.903      482.377       80.885        0.028      340.061       13.818      860.496
10/15/2014  18:49:00     -370.284      -78.710      -14.918      136.858      104.117       62.427    18730.005    10840.261     3897.081        8.849        1.673      378.557       75.271        0.040      340.041       13.781      860.485
10/15/2014  18:50:00     -409.311        7.493      -23.643      164.974      118.026       62.557    27216.345    13930.172     3913.367       10.660        2.253      409.380       72.152        0.031      340.134       13.941      860.458
10/15/2014  18:51:00     -415.955      -34.690      -33.914      178.596      110.190       69.727    31896.556    12141.791     4861.879       11.213        2.445      417.399       84.589        0.041      340.078       13.848      860.430
10/15/2014  18:52:00     -366.044      -88.989       -2.495      263.187      162.584       96.827    69267.197    26433.673     9375.499       12.348        5.254      376.706      131.803        0.122      340.068       13.830      860.418
10/15/2014  18:53:00     -280.691      -32.484      -12.855      147.117       87.300       69.423    21643.396     7621.269     4819.550        5.704        1.704      282.564       74.512        0.070      340.084       13.855      860.415
10/15/2014  18:54:00     -302.543      -14.167      -13.181      120.052      117.232       66.913    14412.436    13743.357     4477.344        6.226        1.632      302.874       56.808        0.035      340.126       13.927      860.434
10/15/2014  18:55:00     -282.196      -21.226       -6.781      169.391      130.208       77.339    28693.352    16954.007     5981.354        6.587        2.581      282.993       85.207        0.091      340.109       13.899      860.452
10/15/2014  18:56:00     -240.725      -47.045        3.566      149.189      150.234       78.982    22257.262    22570.260     6238.157        5.561        2.553      245.279       81.943        0.112      340.147       13.963      860.449
10/15/2014  18:57:00     -332.101      -92.712      -15.660      178.282      144.849       75.746    31784.451    20981.185     5737.437        8.881        2.925      344.799       87.834        0.065      340.109       13.901      860.473
10/15/2014  18:58:00     -287.824      -97.728        6.132      191.477      175.484       90.746    36663.348    30794.499     8234.771        8.405        3.785      303.963       97.272        0.102      340.135       13.943      860.490
10/15/2014  18:59:00     -362.531     -161.702      -15.359      231.785      146.564       86.262    53724.430    21480.994     7441.131       12.022        4.132      396.959      111.680        0.079      340.118       13.915      860.495
10/15/2014  19:00:00     -258.262      -94.084      -16.872       92.195       78.842       53.358     8499.963     6216.017     2847.083        4.670        0.878      274.866       42.195        0.024      340.122       13.921      860.521
10/15/2014  19:01:00     -208.437      -83.584        2.029      191.111      126.450       76.039    36523.410    15989.517     5781.979        5.436        2.915      224.572       93.388        0.173      340.136       13.947      860.544
10/15/2014  19:02:00     -262.265      -96.605       -8.737      153.260      121.456       61.132    23488.610    14751.547     3737.076        6.008        2.099      279.491       65.672        0.055      340.155       13.978      860.577
10/15/2014  19:03:00     -349.900     -171.715      -21.611      138.635      164.524       73.401    19219.571    27067.993     5387.688       10.202        2.584      389.764       80.683        0.043      340.100       13.885      860.603
10/15/2014  19:04:00     -326.537      -62.412      -14.849      152.405      111.112       63.442    23227.199    12345.841     4024.918        7.516        1.980      332.448       72.722        0.048      340.074       13.841      860.636
10/15/2014  19:05:00     -352.487      -35.406       -8.262      165.566      106.015       69.460    27412.119    11239.114     4824.709        8.452        2.174      354.261       72.710        0.042      340.088       13.865      860.667
10/15/2014  19:06:00     -263.843      -25.812       -0.564      166.379       93.664       62.017    27682.051     8772.874     3846.084        5.528        2.015      265.103       68.914        0.068      340.068       13.831      860.688
10/15/2014  19:07:00     -251.568       21.070       -7.941      154.404       97.824       67.380    23840.543     9569.506     4540.110        5.087        1.898      252.449       59.649        0.056      340.085       13.859      860.699
10/15/2014  19:08:00     -319.151      -32.504       -5.135      187.048      119.300       72.518    34986.848    14232.534     5258.823        7.870        2.724      320.802       80.970        0.064      340.079       13.849      860.693
10/15/2014  19:09:00     -200.182      -80.583        8.129      148.557      144.741       75.149    22069.147    20949.973     5647.401        4.764        2.433      215.793       66.756        0.096      340.094       13.874      860.707
10/15/2014  19:10:00     -198.725     -123.078       22.681      186.660      169.704       86.259    34842.069    28799.597     7440.547        6.311        3.554      233.752       98.999        0.179      340.108       13.899      860.735
10/15/2014  19:11:00     -340.985      -76.815      -20.013      179.989      162.253       70.515    32395.987    26325.986     4972.333        9.312        3.185      349.530       76.453        0.048      340.136       13.943      860.752
10/15/2014  19:12:00     -273.009      -15.860      -17.524      148.738      111.194       61.916    22122.888    12364.117     3833.645        5.670        1.916      273.469       61.673        0.051      340.134       13.941      860.797
10/15/2014  19:13:00     -290.919      -65.063       -8.869      160.039      120.028       72.096    25612.634    14406.761     5197.867        6.707        2.261      298.106       75.619        0.064      340.139       13.950      860.819
10/15/2014  19:14:00     -146.554       -7.707       -0.345       99.235       94.409       57.963     9847.621     8912.976     3359.722        2.183        1.106      146.757       38.177        0.068      340.116       13.912      860.841
10/15/2014  19:15:00     -289.788      -95.570      -14.897      171.314      109.588       59.998    29348.648    12009.472     3599.779        6.914        2.248      305.141       74.212        0.059      340.103       13.890      860.834
10/15/2014  19:16:00     -321.908      -38.056       -0.715      165.603      122.035       68.907    27424.356    14892.654     4748.142        7.606        2.353      324.150       69.225        0.046      340.080       13.849      860.848
10/15/2014  19:17:00     -337.756      -28.692        0.192      212.567      137.357       86.902    45184.720    18867.029     7551.975        9.324        3.580      338.973       97.703        0.083      340.055       13.808      860.858
10/15/2014  19:18:00     -427.551      -37.432      -37.443      153.819      136.152       63.356    23660.301    18537.408     4014.000       11.590        2.311      429.187       70.222        0.027      340.083       13.856      860.874
10/15/2014  19:19:00     -365.981      -71.656      -24.115      154.573      121.639       54.959    23892.801    14796.141     3020.475        9.068        2.085      372.930       55.925        0.022      340.078       13.847      860.870
10/15/2014  19:20:00     -314.029      -49.661      -12.845      125.258      115.703       49.517    15689.487    13387.295     2451.923        6.638        1.576      317.932       52.695        0.027      340.080       13.849      860.862
10/15/2014  19:21:00     -257.643     -116.127        5.463      178.484      154.083       79.778    31856.692    23741.565     6364.527        7.092        3.098      282.605       76.464        0.073      340.054       13.807      860.843
10/15/2014  19:22:00     -434.309      -14.410      -16.504      180.077      128.927       93.282    32427.684    16622.200     8701.614       12.342        2.888      434.548       92.734        0.046      340.052       13.803      860.863
10/15/2014  19:23:00     -387.455      -74.476      -20.319      177.847      122.741       65.833    31629.508    15065.395     4333.967       10.355        2.551      394.548       77.572        0.039      340.073       13.839      860.863
10/15/2014  19:24:00     -409.925      -96.118      -13.414      172.600      132.195       82.446    29790.812    17475.465     6797.394       11.575        2.703      421.043       81.209        0.037      340.072       13.836      860.852
10/15/2014  19:25:00     -435.361     -132.564      -19.325      117.727      122.865       71.162    13859.558    15095.907     5063.991       12.075        1.701      455.096       65.418        0.021      340.103       13.889      860.847
10/15/2014  19:26:00     -416.958     -114.581      -17.804      233.362      142.871       82.370    54457.766    20412.208     6784.823       13.446        4.083      432.415      100.471        0.054      340.105       13.893      860.850
10/15/2014  19:27:00     -416.805     -100.167      -24.537      151.660      108.620       71.504    23000.864    11798.270     5112.787       11.213        1.996      428.672       77.672        0.033      340.098       13.882      860.836
10/15/2014  19:28:00     -447.410     -149.302      -12.043      196.739      160.328       77.221    38706.185    25705.136     5963.052       14.648        3.519      471.664       81.769        0.030      340.092       13.872      860.811
10/15/2014  19:29:00     -291.758      -90.383       -7.097      164.575      166.709       72.134    27085.038    27791.792     5203.344        7.670        3.004      305.437       61.987        0.041      340.098       13.882      860.818
10/15/2014  19:30:00     -304.630      -12.819      -32.014      138.674      128.730       67.555    19230.398    16571.296     4563.633        6.717        2.018      304.900       50.425        0.027      340.093       13.872      860.832
10/15/2014  19:31:00     -407.471       -5.943      -29.472      154.727      137.608       62.923    23940.580    18935.970     3959.246       10.688        2.342      407.514       59.882        0.022      340.083       13.855      860.838
10/15/2014  19:32:00     -365.999      -51.685        8.269      234.301      131.246       87.450    54897.042    17225.501     7647.425       10.822        3.988      369.630      113.653        0.095      340.082       13.856      860.858
10/15/2014  19:33:00     -297.476      -29.113      -30.054      139.088       94.844       48.632    19345.475     8995.386     2365.044        6.047        1.535      298.897       52.690        0.031      340.109       13.899      860.852
10/15/2014  19:34:00     -275.994      -63.188      -12.646      190.520      130.813       77.411    36297.680    17111.993     5992.528        6.985        2.970      283.135       90.087        0.101      340.105       13.894      860.861
10/15/2014  19:35:00     -327.582      -83.681      -12.506      149.520      109.518       69.025    22356.123    11994.125     4764.450        7.679        1.956      338.101       66.747        0.039      340.094       13.874      860.890
10/15/2014  19:36:00     -306.300      -57.858      -10.009      169.773      123.514       73.429    28822.935    15255.790     5391.890        7.336        2.474      311.717       83.264        0.071      340.098       13.881      860.919
10/15/2014  19:37:00     -307.145      -50.829      -17.125      206.642      136.978       79.939    42700.910    18762.975     6390.317        8.252        3.393      311.322       95.867        0.095      340.084       13.858      860.965
10/15/2014  19:38:00     -344.588      -26.483      -13.433      124.164      131.494       66.229    15416.755    17290.655     4386.337        7.835        1.855      345.604       60.021        0.030      340.093       13.872      860.978
10/15/2014  19:39:00     -281.059      -81.787      -20.582      132.751      112.754       58.074    17622.941    12713.482     3372.567        5.990        1.685      292.717       66.180        0.051      340.094       13.874      860.983
10/15/2014  19:40:00     -333.486       30.001      -12.885       74.767       84.376       48.783     5590.052     7119.247     2379.797        6.368        0.754      334.833       33.831        0.010      340.086       13.860      860.995
10/15/2014  19:41:00     -301.242      -81.501      -10.018      113.464      102.309       54.255    12874.097    10467.134     2943.633        6.188        1.314      312.072       57.657        0.034      340.096       13.878      860.977
10/15/2014  19:42:00     -214.004        8.344       -7.718      115.498       84.413       47.749    13339.702     7125.560     2279.979        3.433        1.137      214.167       53.079        0.061      340.080       13.851      860.963
10/15/2014  19:43:00     -218.057      -17.762       -9.304       92.014       72.449       47.635     8466.552     5248.825     2269.088        3.197        0.799      218.779       47.789        0.048      340.084       13.857      860.973
10/15/2014  19:44:00     -354.866      -90.294       -9.877      143.766      113.049       67.092    20668.772    12780.106     4501.352        8.606        1.898      366.173       79.353        0.047      340.116       13.911      860.973
10/15/2014  19:45:00     -427.497       -3.953      -34.075       94.255      108.745       52.929     8883.974    11825.547     2801.433       10.372        1.176      427.515       42.377        0.010      340.117       13.914      860.985
10/15/2014  19:46:00     -258.768       47.741      -21.548      142.758       97.074       56.045    20379.976     9423.307     3141.026        5.132        1.647      263.135       62.229        0.056      340.087       13.862      861.006
10/15/2014  19:47:00     -318.794       77.652      -30.233      130.078      108.764       49.480    16920.317    11829.712     2448.231        6.988        1.560      328.115       46.085        0.020      340.088       13.864      861.007
10/15/2014  19:48:00     -221.380      -21.331       -8.927       87.678      104.097       40.010     7687.387    10836.136     1600.813        3.483        1.006      222.406       39.498        0.032      340.102       13.888      861.027
10/15/2014  19:49:00     -218.829      -36.220       -5.105      105.439       82.657       46.035    11117.396     6832.180     2119.231        3.464        1.003      221.807       55.951        0.064      340.118       13.915      861.062
10/15/2014  19:50:00      -94.294        6.365       -5.662       56.108       66.544       39.957     3148.095     4428.097     1596.572        0.907        0.459       94.509       32.417        0.118      340.138       13.952      861.068
10/15/2014  19:51:00     -181.577        5.908      -21.622      108.002      110.045       47.069    11664.376    12109.809     2215.451        2.973        1.299      181.673       51.428        0.080      340.280       14.187      861.100
10/15/2014  19:52:00     -189.029       22.174      -22.247      132.172      101.438       45.612    17469.555    10289.764     2080.495        3.327        1.492      190.325       51.492        0.073      340.146       13.963      861.133
10/15/2014  19:53:00      -98.884      170.932      -11.127       79.704       78.518       48.582     6352.704     6165.054     2360.204        2.700        0.744      197.474       53.906        0.075      340.101       13.887      861.179
10/15/2014  19:54:00      -45.580      102.687      -16.917       69.133       71.572       35.385     4779.316     5122.600     1252.097        1.203        0.558      112.349       40.226        0.128      340.141       13.955      861.199
10/15/2014  19:55:00      -67.200      180.184      -17.399       50.923       71.089       42.735     2593.173     5053.654     1826.299        2.338        0.474      192.307       32.456        0.028      340.048       13.798      861.198
10/15/2014  19:56:00      -41.761      241.006      -28.100       53.245      102.328       39.604     2835.030    10470.963     1568.502        3.774        0.744      244.597       46.284        0.036      339.721       13.244      861.210
10/15/2014  19:57:00     -240.370      172.653      -53.717       86.198       98.712       46.129     7430.092     9744.151     2127.907        5.488        0.965      295.951       47.589        0.026      339.693       13.199      861.237
10/15/2014  19:58:00      -62.252       43.501       13.314       93.411       29.017       31.334     8725.601      841.967      981.850        0.825        0.527       75.945       40.274        0.281      339.812       13.401      861.233
10/15/2014  19:59:00      -26.643       74.889      -10.798       56.171       51.448       27.467     3155.214     2646.929      754.410        0.649        0.328       79.487       25.920        0.106      339.748       13.296      861.242
10/15/2014  20:00:00        4.631       79.843        4.309       32.376       44.577       33.959     1048.202     1987.119     1153.231        0.530        0.209       79.977       31.095        0.151      339.700       13.215      861.244
10/15/2014  20:01:00       16.845       50.422        8.489       46.400       52.639       25.756     2153.005     2770.847      663.368        0.424        0.279       53.161       22.354        0.177      339.631       13.097      861.244
10/15/2014  20:02:00      -75.639      160.290      -10.796       67.705      108.405       57.154     4583.971    11751.716     3266.629        2.556        0.980      177.240       60.066        0.115      339.708       13.225      861.257
10/15/2014  20:03:00      -41.250      268.943      -51.336       90.807      118.613       40.150     8245.933    14069.096     1612.009        5.029        1.196      272.088       37.795        0.019      339.668       13.156      861.250
10/15/2014  20:04:00       16.266      284.343      -42.888       66.210      114.133       50.091     4383.830    13026.300     2509.063        5.143        0.996      284.808       57.863        0.041      339.602       13.044      861.238
10/15/2014  20:05:00        4.136      191.048      -19.064       72.669       63.199       42.285     5280.728     3994.147     1788.006        2.397        0.553      191.093       39.907        0.044      339.582       13.011      861.244
10/15/2014  20:06:00      -36.003      249.132      -32.628       75.700       99.813       52.573     5730.458     9962.724     2763.904        4.144        0.923      251.720       53.721        0.046      339.605       13.049      861.252
10/15/2014  20:07:00      -55.373      225.125      -25.473       60.738       93.914       45.922     3689.120     8819.781     2108.823        3.450        0.731      231.835       49.896        0.046      339.592       13.031      861.268
10/15/2014  20:08:00      -63.815      294.970      -56.498       51.042       59.715       27.253     2605.288     3565.914      742.729        5.059        0.346      301.794       30.202        0.010      339.590       13.026      861.296
10/15/2014  20:09:00      -43.975      153.802      -20.931       49.850       68.407       38.372     2485.017     4679.543     1472.375        1.733        0.432      159.965       37.796        0.056      339.686       13.189      861.302
10/15/2014  20:10:00       32.669      167.116      -30.218       35.817       48.205       25.031     1282.837     2323.750      626.566        1.707        0.212      170.279       21.386        0.016      339.560       12.977      861.308
10/15/2014  20:11:00       25.921       44.615       -0.381       32.446       45.462       29.067     1052.722     2066.781      844.872        0.331        0.198       51.598       25.091        0.236      339.545       12.952      861.320
10/15/2014  20:12:00       79.578       56.783        6.897       40.148       33.276       30.605     1611.838     1107.266      936.670        0.663        0.183       97.760       18.591        0.036      339.500       12.874      861.327
10/15/2014  20:13:00       17.399       66.352      -18.360       19.441       66.549       19.587      377.934     4428.735      383.662        0.512        0.260       68.596       28.400        0.171      339.527       12.917      861.331
10/15/2014  20:14:00       -2.167       71.559       -5.152       51.889       55.133       37.453     2692.418     3039.632     1402.755        0.614        0.357       71.592        6.587        0.008      339.552       12.962      861.342
10/15/2014  20:15:00       24.200       59.020        3.709       39.029       35.366       23.471     1523.276     1250.754      550.909        0.370        0.166       63.789       22.610        0.126      339.549       12.956      861.361
10/15/2014  20:16:00      -59.092       79.980      -17.528       63.130       50.318       20.890     3985.377     2531.950      436.402        0.857        0.348       99.442       24.463        0.061      339.689       13.195      861.370
10/15/2014  20:17:00     -175.573      175.164      -49.731       59.835       76.348       30.750     3580.183     5829.028      945.585        3.717        0.518      248.009       36.805        0.022      339.734       13.268      861.387
10/15/2014  20:18:00      -95.154      104.518      -10.254       85.511       74.974       37.867     7312.149     5621.039     1433.901        1.722        0.718      141.345       44.756        0.100      339.696       13.207      861.380
10/15/2014  20:19:00      -92.451      121.813      -24.642      105.435      111.784       37.812    11116.628    12495.562     1429.720        2.451        1.252      152.924       47.139        0.095      339.629       13.091      861.366
10/15/2014  20:20:00     -147.873       94.598      -31.475       75.891       83.917       38.796     5759.416     7041.983     1505.123        2.305        0.715      175.543       36.455        0.043      339.540       12.942      861.357
10/15/2014  20:21:00     -130.525      164.716      -32.665       72.872       60.252       37.792     5310.361     3630.259     1428.227        2.780        0.518      210.162       34.103        0.026      339.447       12.784      861.360
10/15/2014  20:22:00     -109.092       71.031      -30.780       49.621       73.109       31.416     2462.255     5344.885      986.977        1.334        0.440      130.179       29.272        0.051      339.623       13.081      861.368
10/15/2014  20:23:00     -166.289      -56.704       -7.183       50.937       46.639       29.050     2594.623     2175.208      843.902        1.827        0.281      175.691       18.057        0.011      339.489       12.855      861.384
10/15/2014  20:24:00     -129.006       24.363      -20.528       65.333       95.397       39.262     4268.443     9100.648     1541.536        1.628        0.746      131.287       33.139        0.064      339.464       12.814      861.404
10/15/2014  20:25:00     -112.266      -31.934       -0.445       44.904       49.994       31.877     2016.348     2499.388     1016.113        0.958        0.277      116.719       25.515        0.048      339.481       12.844      861.413
10/15/2014  20:26:00     -114.984       23.569      -20.069       67.563       47.029       35.534     4564.810     2211.763     1262.638        1.111        0.402      117.374       39.016        0.110      339.468       12.823      861.427
10/15/2014  20:27:00     -122.845       36.838       -8.566       49.324       60.211       36.559     2432.896     3625.393     1336.595        1.196        0.370      128.250       24.994        0.038      339.598       13.040      861.430
10/15/2014  20:28:00      -49.551      103.889       -3.843       40.608       53.293       34.966     1649.036     2840.102     1222.655        0.949        0.286      115.101       34.882        0.092      339.449       12.789      861.426
10/15/2014  20:29:00      -22.913      127.725      -18.955       25.382       36.445       22.478      644.225     1328.211      505.240        0.984        0.124      129.764       20.155        0.024      339.467       12.821      861.433
10/15/2014  20:30:00      -44.624       82.417      -10.145       37.004       44.202       28.322     1369.263     1953.807      802.157        0.651        0.206       93.722       23.761        0.064      339.492       12.862      861.445
10/15/2014  20:31:00       11.100      103.241       -7.693       39.836       36.504       25.238     1586.878     1332.543      636.971        0.720        0.178      103.836       28.212        0.074      339.445       12.785      861.470
10/15/2014  20:32:00       19.052       80.321      -11.528       19.049       18.770       15.051      362.864      352.296      226.543        0.394        0.047       82.550        8.659        0.011      339.421       12.744      861.497
10/15/2014  20:33:00       29.091       63.955       -2.264       21.433       31.059       23.714      459.353      964.637      562.356        0.346        0.099       70.260       18.805        0.072      339.342       12.609      861.524
10/15/2014  20:34:00        1.855       73.666      -11.888       22.721       24.976       15.956      516.240      623.779      254.607        0.348        0.070       73.690       16.314        0.049      339.357       12.634      861.548
10/15/2014  20:35:00       20.713       86.259        6.234       47.955       38.738       34.981     2299.670     1500.629     1223.699        0.647        0.251       88.710       29.974        0.114      339.331       12.591      861.567
10/15/2014  20:36:00       -3.655      189.359      -17.470       19.958       72.375       27.326      398.319     5238.180      746.700        2.128        0.319      189.394       35.022        0.034      339.354       12.627      861.560
10/15/2014  20:37:00      -22.401       97.818       -8.292       52.255       44.926       24.328     2730.537     2018.323      591.860        0.774        0.267      100.350       20.018        0.040      339.382       12.677      861.542
10/15/2014  20:38:00       -4.972       77.757      -10.029       29.516       39.657       20.936      871.223     1572.696      438.321        0.453        0.144       77.916       14.498        0.035      339.356       12.632      861.506
10/15/2014  20:39:00        8.708       38.476        6.237       41.461       39.069       25.703     1719.038     1526.366      660.644        0.275        0.195       39.450       26.729        0.459      339.353       12.629      861.468
10/15/2014  20:40:00       37.759       31.566        4.044       28.595       22.323       19.278      817.698      498.303      371.626        0.206        0.084       49.216       12.715        0.067      339.284       12.511      861.440
10/15/2014  20:41:00        6.247       68.893        6.183       46.325       61.488       24.673     2145.996     3780.788      608.777        0.568        0.327       69.176       30.169        0.190      339.265       12.480      861.430
10/15/2014  20:42:00      -45.896       80.630      -19.530       43.905       24.589       15.522     1927.619      604.605      240.933        0.588        0.139       92.778       16.876        0.033      339.381       12.673      861.422
10/15/2014  20:43:00       31.908       49.221        8.452       44.085       27.913       30.421     1943.495      779.156      925.447        0.358        0.182       58.659       26.520        0.204      339.276       12.498      861.408
10/15/2014  20:44:00      -15.953       59.300      -10.353       27.343       31.533       18.825      747.614      994.357      354.373        0.299        0.105       61.409       18.919        0.095      339.330       12.588      861.416
10/15/2014  20:45:00      -10.068      129.341       -8.272       36.988       57.234       38.428     1368.093     3275.722     1476.723        1.151        0.306      129.732       39.432        0.092      339.308       12.551      861.429
10/15/2014  20:46:00      -29.195      153.954      -18.728       34.616       43.231       26.701     1198.241     1868.912      712.948        1.434        0.189      156.697       17.633        0.013      339.308       12.553      861.445
10/15/2014  20:47:00      -49.818      140.163      -34.522       49.624       92.718       30.719     2462.552     8596.630      943.654        1.766        0.600      148.754       16.905        0.013      339.320       12.569      861.473
10/15/2014  20:48:00      -33.782      159.289      -27.117       27.312       46.896       25.846      745.973     2199.254      668.007        1.543        0.181      162.832       19.009        0.014      339.340       12.606      861.504
10/15/2014  20:49:00      -22.836      225.110      -31.915       59.680       97.588       32.428     3561.709     9523.341     1051.607        3.317        0.707      226.265       40.460        0.032      339.306       12.547      861.509
10/15/2014  20:50:00       24.187      124.858       -7.415       56.676       66.097       45.507     3212.177     4368.823     2070.930        1.294        0.483      127.179       40.915        0.103      339.269       12.486      861.507
10/15/2014  20:51:00       26.418      244.996      -44.635       42.349       81.503       37.468     1793.467     6642.767     1403.829        3.628        0.492      246.416       27.580        0.013      339.260       12.469      861.483
10/15/2014  20:52:00       39.152       99.233       12.970       61.131       62.173       54.544     3737.009     3865.500     2975.034        1.106        0.529      106.677       42.222        0.157      339.219       12.403      861.463
10/15/2014  20:53:00       27.051       54.984       -0.757       44.114       38.071       35.882     1946.017     1449.389     1287.485        0.422        0.234       61.278       27.262        0.198      339.190       12.353      861.459
10/15/2014  20:54:00       47.713      109.270       -0.295       40.605       79.428       42.875     1648.725     6308.749     1838.291        1.200        0.490      119.233       42.624        0.128      339.222       12.407      861.454
10/15/2014  20:55:00       70.382       67.306       -6.576       51.494       46.833       29.442     2651.672     2193.337      866.814        0.762        0.286       97.384       20.220        0.043      339.192       12.355      861.467
10/15/2014  20:56:00       51.136      106.346        7.309       69.933       87.462       52.966     4890.603     7649.519     2805.349        1.466        0.767      118.002       52.740        0.200      339.204       12.376      861.476
10/15/2014  20:57:00       48.588      104.470        2.259       60.357       48.821       47.007     3642.920     2383.463     2209.637        1.076        0.412      115.216       37.016        0.103      339.203       12.377      861.470
10/15/2014  20:58:00       12.531      152.222       -7.975       44.117       93.374       35.720     1946.333     8718.710     1275.915        1.766        0.597      152.737       30.800        0.041      339.197       12.363      861.450
10/15/2014  20:59:00       63.134       92.766        6.762       69.176       66.828       41.641     4785.336     4465.985     1733.982        1.181        0.549      112.211       44.167        0.155      339.198       12.367      861.431
10/15/2014  21:00:00       64.508      132.131       -0.480       57.582       99.028       46.812     3315.660     9806.475     2191.405        1.846        0.766      147.037       55.797        0.144      339.213       12.391      861.405
10/15/2014  21:01:00       24.401      176.885      -10.099       47.083       87.328       51.073     2216.777     7626.193     2608.420        2.222        0.623      178.560       55.597        0.097      339.227       12.413      861.372
10/15/2014  21:02:00      -12.237      157.406       -7.314       51.130       80.675       49.454     2614.253     6508.430     2445.712        1.827        0.578      157.881       52.729        0.112      339.249       12.453      861.338
10/15/2014  21:03:00       10.366      235.764      -22.925       54.224       57.081       40.969     2940.263     3258.184     1678.451        3.205        0.394      235.992       34.972        0.022      339.247       12.447      861.314
10/15/2014  21:04:00       13.087      203.204      -28.833       35.510       59.016       29.670     1260.963     3482.905      880.317        2.396        0.281      203.625       28.668        0.020      339.234       12.426      861.289
10/15/2014  21:05:00       36.804      144.238       -5.399       63.272       64.410       43.625     4003.357     4148.632     1903.153        1.612        0.503      148.860       41.856        0.079      339.212       12.389      861.273
10/15/2014  21:06:00        3.423      126.925       -5.414       71.485       78.264       51.608     5110.037     6125.248     2663.410        1.502        0.695      126.971       50.359        0.157      339.210       12.387      861.267
10/15/2014  21:07:00      -20.904      230.380      -26.516       49.179       79.556       37.888     2418.618     6329.100     1435.520        3.220        0.509      231.327       32.857        0.020      339.213       12.388      861.276
10/15/2014  21:08:00       -0.651      160.622      -13.350       40.075       70.805       31.268     1606.016     5013.346      977.717        1.679        0.380      160.623       30.156        0.035      339.194       12.359      861.298
10/15/2014  21:09:00      -21.202      163.612      -13.857       55.050       60.043       33.693     3030.495     3605.221     1135.231        1.759        0.389      164.980       33.284        0.041      339.222       12.406      861.321
10/15/2014  21:10:00      -40.240      142.268      -17.062       59.664       63.005       36.215     3559.792     3969.632     1311.550        1.549        0.442      147.849       40.323        0.074      339.227       12.414      861.332
10/15/2014  21:11:00      -21.791      277.395      -30.533       46.690       87.289       36.999     2179.953     7619.409     1368.944        4.476        0.558      278.249       36.955        0.018      339.263       12.473      861.340
10/15/2014  21:12:00      -38.075      233.376      -19.998       43.834       71.762       35.019     1921.443     5149.724     1226.297        3.230        0.415      236.462       37.419        0.025      339.239       12.435      861.346
10/15/2014  21:13:00      -37.075      279.310      -29.554       50.949       58.369       33.683     2595.801     3406.931     1134.566        4.370        0.357      281.760       31.734        0.013      339.272       12.486      861.359
10/15/2014  21:14:00      -66.868      230.609      -29.939       76.636       81.244       45.628     5873.061     6600.662     2081.927        3.655        0.728      240.108       41.962        0.031      339.272       12.488      861.372
10/15/2014  21:15:00      -54.162      268.374      -27.371       49.591       62.575       34.730     2459.279     3915.617     1206.151        4.164        0.379      273.785       32.609        0.014      339.245       12.441      861.390
10/15/2014  21:16:00      -81.786      156.885      -22.199       65.843       68.877       36.104     4335.253     4744.077     1303.529        2.109        0.519      176.923       29.185        0.027      339.242       12.440      861.420
10/15/2014  21:17:00      -87.387      185.101      -30.454       50.537       83.932       35.909     2554.015     7044.541     1289.484        2.686        0.544      204.693       42.174        0.042      339.297       12.531      861.460
10/15/2014  21:18:00      -92.833      167.603      -27.184       59.816       67.883       36.670     3577.894     4608.124     1344.671        2.349        0.477      191.595       39.851        0.043      339.277       12.497      861.505
10/15/2014  21:19:00      -75.287      154.151      -22.015       46.194       53.631       31.111     2133.902     2876.290      967.872        1.795        0.299      171.554       29.412        0.029      339.296       12.529      861.529
10/15/2014  21:20:00     -121.838       80.506      -16.148       53.153       51.730       34.005     2825.224     2675.961     1156.373        1.412        0.333      146.033       29.699        0.041      339.228       12.416      861.548
10/15/2014  21:21:00     -160.535      147.461      -35.096       55.446       63.454       37.835     3074.306     4026.452     1431.460        2.864        0.427      217.982       20.748        0.009      339.186       12.345      861.555
10/15/2014  21:22:00      -79.993       80.654      -16.464       47.747       56.777       32.160     2279.741     3223.586     1034.277        0.986        0.327      113.595       25.755        0.051      339.143       12.275      861.545
10/15/2014  21:23:00      -98.260      123.755      -15.927       54.434       65.215       36.322     2963.091     4253.022     1319.266        1.688        0.427      158.020       27.032        0.029      339.083       12.173      861.531
10/15/2014  21:24:00     -134.292      158.261      -35.072       56.010       64.537       33.018     3137.079     4165.037     1090.219        2.635        0.420      207.560       24.803        0.014      339.027       12.077      861.548
10/15/2014  21:25:00     -216.431      172.808      -48.984       67.996       67.039       38.614     4623.482     4494.287     1491.009        4.485        0.530      276.957       39.229        0.020      339.010       12.048      861.564
10/15/2014  21:26:00     -115.040      127.290      -30.691       57.428       70.505       40.336     3298.024     4970.924     1626.989        2.014        0.495      171.572       35.042        0.042      338.986       12.008      861.585
10/15/2014  21:27:00     -128.752       93.733      -25.863       78.067       82.881       35.418     6094.488     6869.324     1254.466        2.012        0.711      159.258       37.962        0.057      338.984       12.006      861.585
10/15/2014  21:28:00     -126.350      125.355       -9.248       88.413       50.865       47.545     7816.859     2587.278     2260.536        2.221        0.633      177.984       47.012        0.070      338.931       11.916      861.590
10/15/2014  21:29:00     -125.102       70.826      -24.156       54.100       93.158       33.257     2926.792     8678.351     1106.033        1.698        0.636      143.759       20.276        0.020      338.967       11.978      861.577
10/15/2014  21:30:00      -96.622       93.567      -22.425       75.774       80.732       44.045     5741.632     6517.656     1939.971        1.639        0.710      134.501       56.745        0.178      338.899       11.863      861.563
10/15/2014  21:31:00      -94.168      172.033      -19.168       48.709       56.475       39.037     2372.573     3189.401     1523.854        2.296        0.354      196.120       34.684        0.031      338.895       11.854      861.522
10/15/2014  21:32:00      -78.754       79.821       -6.839       40.048       47.169       27.014     1603.871     2224.908      729.763        0.859        0.228      112.132       26.542        0.056      338.896       11.859      861.490
10/15/2014  21:33:00      -96.534       77.634      -18.996       38.524       45.348       27.308     1484.125     2056.430      745.712        1.000        0.214      123.878       21.755        0.031      338.894       11.856      861.448
10/15/2014  21:34:00     -116.491      126.869      -28.094       41.270       40.919       28.223     1703.241     1674.359      796.514        1.731        0.209      172.238       25.435        0.022      338.849       11.779      861.418
10/15/2014  21:35:00     -101.728      115.541      -25.693       46.444       46.053       31.617     2157.031     2120.847      999.638        1.482        0.264      153.943       23.139        0.023      338.842       11.768      861.405
10/15/2014  21:36:00      -89.219       99.995      -21.117       49.718       55.822       35.230     2471.928     3116.100     1241.119        1.262        0.341      134.011       31.206        0.054      338.828       11.746      861.383
10/15/2014  21:37:00      -94.999      106.574      -14.845       40.632       51.039       30.138     1650.978     2604.932      908.292        1.288        0.258      142.769       17.898        0.016      338.803       11.705      861.377
10/15/2014  21:38:00     -100.491      159.294      -28.678       53.603       56.300       33.343     2873.255     3169.684     1111.774        2.172        0.358      188.343       35.169        0.035      338.797       11.691      861.384
10/15/2014  21:39:00      -37.257       86.230      -10.768       31.804       30.591       19.131     1011.517      935.797      366.001        0.563        0.116       93.935       12.215        0.017      338.820       11.732      861.406
10/15/2014  21:40:00      -53.512       80.094      -11.553       37.688       31.639       27.680     1420.403     1001.044      766.164        0.630        0.159       96.325       18.198        0.036      338.833       11.754      861.436
10/15/2014  21:41:00     -133.759      163.879      -31.406       83.368       91.891       44.982     6950.188     8443.988     2023.380        3.157        0.871      211.537       54.388        0.066      338.809       11.710      861.445
10/15/2014  21:42:00     -130.049      181.309      -38.801       47.735       88.948       32.546     2278.632     7911.695     1059.259        3.127        0.562      223.127       20.923        0.009      338.736       11.587      861.454
10/15/2014  21:43:00     -100.157       35.998      -13.427       36.446       41.321       22.201     1328.326     1707.463      492.882        0.752        0.176      106.430       19.632        0.034      338.761       11.632      861.464
10/15/2014  21:44:00     -116.179       -5.044      -18.300       61.684       57.808       25.577     3804.920     3341.821      654.205        1.083        0.390      116.289       13.038        0.013      338.714       11.554      861.474
10/15/2014  21:45:00     -103.485       -8.284      -27.987       68.332       64.971       36.266     4669.288     4221.234     1315.228        1.088        0.510      103.816       32.427        0.098      338.697       11.524      861.473
10/15/2014  21:46:00      -78.504       14.349       -7.627       38.203       48.453       20.677     1459.467     2347.741      427.533        0.533        0.212       79.805       22.140        0.077      338.683       11.500      861.478
10/15/2014  21:47:00      -73.686        5.134       -6.242       64.414       40.002       22.165     4149.200     1600.194      491.302        0.587        0.312       73.864       25.272        0.117      338.634       11.420      861.482
10/15/2014  21:48:00      -60.537      160.621       -7.105       53.556      103.575       42.077     2868.217    10727.830     1770.503        2.244        0.768      171.651       38.355        0.050      338.577       11.322      861.487
10/15/2014  21:49:00     -103.927      178.414      -29.386       81.445       71.806       46.787     6633.282     5156.050     2188.979        2.873        0.699      206.477       51.796        0.063      338.594       11.350      861.510
10/15/2014  21:50:00      -88.792      122.837      -15.622       51.172       52.488       40.107     2618.585     2755.018     1608.559        1.510        0.349      151.568       37.097        0.060      338.594       11.350      861.537
10/15/2014  21:51:00      -98.147      113.968      -22.558       48.932       54.492       29.398     2394.372     2969.406      864.218        1.468        0.311      150.405       27.559        0.034      338.548       11.273      861.543
10/15/2014  21:52:00      -90.218      114.148      -12.297       62.400       57.558       36.961     3893.710     3312.943     1366.149        1.495        0.429      145.495       26.366        0.033      338.566       11.304      861.556
10/15/2014  21:53:00      -86.920      108.771      -19.690       63.986       58.240       32.824     4094.232     3391.926     1077.424        1.417        0.428      139.234       38.715        0.077      338.542       11.263      861.566
10/15/2014  21:54:00      -89.314      100.224      -23.752       47.726       36.933       26.495     2277.756     1364.062      701.959        1.146        0.217      134.245        9.258        0.005      338.547       11.274      861.568
10/15/2014  21:55:00      -87.727       98.698       -5.575       69.752       40.769       35.519     4865.320     1662.127     1261.609        1.263        0.389      132.050       31.905        0.058      338.623       11.399      861.577
10/15/2014  21:56:00      -63.370       96.988       -7.681       52.202       85.498       34.239     2725.037     7309.925     1172.276        1.234        0.560      115.855       36.114        0.097      338.557       11.288      861.586
10/15/2014  21:57:00     -135.456      102.409      -16.009       68.803       45.578       40.349     4733.818     2077.397     1628.022        1.876        0.422      169.811       39.802        0.055      338.585       11.335      861.594
10/15/2014  21:58:00     -115.790       84.004      -12.710       70.617       54.497       39.230     4986.733     2969.939     1538.969        1.506        0.475      143.053       43.288        0.092      338.568       11.306      861.611
10/15/2014  21:59:00     -156.165      145.995      -22.450       89.301       83.433       53.284     7974.609     6961.136     2839.142        3.199        0.889      213.780       60.945        0.081      338.585       11.335      861.629
10/15/2014  22:00:00     -122.521      193.493      -27.202       39.589       77.312       40.366     1567.269     5977.104     1629.405        3.118        0.459      229.021       35.757        0.024      338.562       11.295      861.639
10/15/2014  22:01:00     -133.869      136.843      -26.982       59.750       69.425       33.904     3570.080     4819.769     1149.475        2.346        0.477      191.434       34.915        0.033      338.532       11.246      861.656
10/15/2014  22:02:00     -155.605      178.692      -34.445       50.156       77.699       37.702     2515.635     6037.113     1421.472        3.365        0.499      236.947       30.873        0.017      338.537       11.253      861.664
10/15/2014  22:03:00     -160.350      191.377      -42.187       53.484       68.879       40.817     2860.556     4744.372     1666.052        3.669        0.464      249.674       37.596        0.023      338.505       11.198      861.660
10/15/2014  22:04:00     -191.827      144.934      -43.334       74.230       62.623       42.709     5510.069     3921.654     1824.051        3.547        0.563      240.423       43.157        0.032      338.523       11.229      861.661
10/15/2014  22:05:00     -161.071      201.387      -34.227       73.913       76.613       48.151     5463.104     5869.616     2318.516        4.066        0.683      257.878       54.314        0.044      338.472       11.142      861.656
10/15/2014  22:06:00     -199.290      180.144      -42.954       73.251       91.982       46.216     5365.657     8460.733     2135.949        4.499        0.798      268.642       45.016        0.028      338.497       11.185      861.661
10/15/2014  22:07:00     -192.354      190.004      -37.718       87.373       81.001       53.780     7634.058     6561.156     2892.282        4.580        0.854      270.373       49.979        0.034      338.511       11.208      861.655
10/15/2014  22:08:00     -120.671       88.891      -24.469       59.430       70.678       34.646     3531.911     4995.419     1200.319        1.639        0.486      149.877       13.698        0.008      338.506       11.202      861.659
10/15/2014  22:09:00     -116.025      111.975      -21.497       72.985       54.432       42.621     5326.763     2962.835     1816.555        1.828        0.505      161.246       36.558        0.051      338.513       11.214      861.661
10/15/2014  22:10:00     -129.096      206.292      -28.208       53.147       81.958       39.603     2824.631     6717.094     1568.366        3.556        0.556      243.357       40.687        0.028      338.530       11.243      861.675
10/15/2014  22:11:00     -113.268      122.257      -24.788       46.600       60.102       33.160     2171.518     3612.201     1099.615        1.764        0.344      166.663       30.824        0.034      338.558       11.290      861.689
10/15/2014  22:12:00     -144.731      154.214      -27.645       72.262       87.328       42.477     5221.771     7626.200     1804.258        3.007        0.733      211.493       46.776        0.049      338.511       11.210      861.693
10/15/2014  22:13:00     -118.287       99.201      -18.904       62.096       72.691       31.982     3855.862     5284.039     1022.872        1.717        0.508      154.378       29.583        0.037      338.472       11.146      861.686
10/15/2014  22:14:00     -165.071      174.124      -50.381       51.089       67.833       33.734     2610.074     4601.381     1138.016        3.423        0.417      239.932       32.984        0.019      338.485       11.166      861.684
10/15/2014  22:15:00     -151.448      161.615      -35.489       62.188       78.600       39.532     3867.368     6178.034     1562.763        3.096        0.580      221.486       32.626        0.022      338.485       11.165      861.676
10/15/2014  22:16:00     -129.196      129.291      -32.071       71.512       62.855       32.690     5114.036     3950.799     1068.659        2.228        0.507      182.778       33.594        0.034      338.466       11.134      861.685
10/15/2014  22:17:00      -99.338      148.131      -22.721       51.573       76.671       42.258     2659.756     5878.483     1785.734        2.132        0.516      178.356       34.462        0.037      338.429       11.073      861.684
10/15/2014  22:18:00     -108.119      115.546      -29.703       51.455       71.327       42.448     2647.614     5087.477     1801.848        1.773        0.477      158.242       46.726        0.087      338.480       11.160      861.693
10/15/2014  22:19:00      -87.798      140.102      -24.377       40.496       73.193       28.345     1639.935     5357.219      803.432        1.786        0.390      165.340       27.390        0.027      338.475       11.149      861.686
10/15/2014  22:20:00     -122.269      133.401      -16.327       82.791       69.526       39.361     6854.414     4833.798     1549.299        2.312        0.662      180.958       33.461        0.034      338.456       11.118      861.692
10/15/2014  22:21:00     -107.408      105.844      -26.155       56.395       52.881       28.324     3180.399     2796.426      802.247        1.510        0.339      150.796       28.792        0.036      338.451       11.110      861.699
10/15/2014  22:22:00     -108.410      126.635      -28.480       66.460       71.615       40.703     4416.945     5128.685     1656.721        1.990        0.560      166.700       44.980        0.073      338.492       11.178      861.708
10/15/2014  22:23:00     -109.180       97.421      -16.132       39.399       48.101       30.070     1552.301     2313.664      904.221        1.322        0.239      146.326       13.753        0.009      338.493       11.181      861.745
10/15/2014  22:24:00     -170.446      155.380      -39.512       65.895       63.910       40.468     4342.128     4084.497     1637.653        3.241        0.503      230.640       42.149        0.033      338.499       11.189      861.777
10/15/2014  22:25:00      -97.564       90.448      -11.781       48.282       41.749       31.755     2331.123     1742.990     1008.405        1.146        0.254      133.040       26.403        0.039      338.485       11.168      861.798
10/15/2014  22:26:00      -89.066       88.258      -12.706       76.446       49.291       33.125     5844.003     2429.569     1097.258        1.263        0.469      125.389       32.927        0.069      338.473       11.149      861.813
10/15/2014  22:27:00     -115.007      117.130      -16.005       80.593       67.815       46.146     6495.159     4598.818     2129.418        2.021        0.661      164.153       45.234        0.076      338.523       11.231      861.817
10/15/2014  22:28:00      -78.552      119.991      -14.943       43.237       73.597       26.125     1869.450     5416.585      682.501        1.438        0.398      143.417       30.879        0.046      338.507       11.203      861.808
10/15/2014  22:29:00     -110.044       48.306      -17.809       58.853       43.372       28.855     3463.717     1881.156      832.637        1.047        0.309      120.180       35.716        0.088      338.538       11.258      861.784
10/15/2014  22:30:00      -83.825       66.909       -1.423       55.513       52.698       31.512     3081.741     2777.083      992.999        0.918        0.343      107.254       31.944        0.089      338.498       11.190      861.748
10/15/2014  22:31:00      -69.396      111.389      -20.888       49.489       53.230       31.888     2449.190     2833.423     1016.870        1.198        0.315      131.237       31.151        0.056      338.488       11.173      861.715
10/15/2014  22:32:00      -72.510       59.835       -8.533       57.132       37.458       30.869     3264.024     1403.132      952.908        0.726        0.281       94.010       27.533        0.086      338.496       11.186      861.699
10/15/2014  22:33:00      -59.660       95.328      -11.367       35.031       33.961       21.829     1227.170     1153.327      476.521        0.782        0.143      112.458       19.091        0.029      338.474       11.151      861.695
10/15/2014  22:34:00      -74.763      111.953      -12.935       49.649       79.247       34.336     2465.008     6280.089     1178.927        1.411        0.496      134.622       41.284        0.094      338.502       11.196      861.693
10/15/2014  22:35:00     -101.788      125.545      -21.951       46.541       50.142       28.893     2166.077     2514.245      834.812        1.606        0.276      161.624       24.241        0.022      338.507       11.204      861.717
10/15/2014  22:36:00      -72.428       64.095      -10.128       47.543       35.607       21.635     2260.374     1267.867      468.057        0.673        0.200       96.716       18.557        0.037      338.507       11.206      861.726
10/15/2014  22:37:00     -100.997      127.753      -27.395       33.805       35.455       26.683     1142.772     1257.091      711.991        1.519        0.156      162.853       22.108        0.018      338.460       11.126      861.731
10/15/2014  22:38:00      -53.126       75.320      -13.163       43.316       63.469       24.591     1876.258     4028.294      604.694        0.759        0.325       92.171       30.029        0.106      338.462       11.130      861.736
10/15/2014  22:39:00      -40.341       75.868       -9.902       46.385       73.155       27.268     2151.537     5351.669      743.535        0.786        0.412       85.926       34.001        0.157      338.410       11.041      861.755
10/15/2014  22:40:00      -87.905      157.913      -17.420       37.285       65.607       30.354     1390.203     4304.249      921.353        1.979        0.331      180.731       23.390        0.017      338.395       11.016      861.766
10/15/2014  22:41:00     -114.115      138.656      -38.540       42.262       61.252       24.526     1786.077     3751.750      601.539        1.994        0.307      179.576       18.174        0.010      338.453       11.114      861.776
10/15/2014  22:42:00      -80.418       92.926      -12.905       37.925       40.540       33.233     1438.343     1643.495     1104.413        0.973        0.209      122.891       23.960        0.038      338.429       11.075      861.775
10/15/2014  22:43:00      -86.820       82.710      -18.172       39.295       50.607       29.573     1544.095     2561.106      874.547        0.984        0.249      119.911       25.464        0.045      338.422       11.063      861.782
10/15/2014  22:44:00      -88.332       97.470      -14.843       49.094       56.118       27.821     2410.173     3149.244      774.014        1.193        0.317      131.541       29.937        0.052      338.391       11.012      861.792
10/15/2014  22:45:00     -155.610      130.494      -23.721       75.227       76.691       43.687     5659.041     5881.523     1908.576        2.763        0.672      203.084       49.032        0.058      338.419       11.054      861.803
10/15/2014  22:46:00     -147.653      118.816      -26.566       70.072       64.256       40.786     4910.027     4128.867     1663.519        2.366        0.535      189.522       35.274        0.035      338.430       11.073      861.811
10/15/2014  22:47:00     -118.025      135.204      -21.273       56.361       83.373       42.749     3176.556     6951.071     1827.435        2.231        0.598      179.472       35.463        0.039      338.428       11.071      861.821
10/15/2014  22:48:00     -119.524      144.269      -28.853       50.008       88.690       34.820     2500.845     7865.902     1212.433        2.375        0.579      187.349       37.153        0.039      338.436       11.084      861.833
10/15/2014  22:49:00     -134.222       93.766      -19.359       69.550       63.545       34.253     4837.267     4037.949     1173.243        1.861        0.502      163.731       33.460        0.042      338.432       11.078      861.848
10/15/2014  22:50:00     -122.396      127.444      -26.749       57.932       80.582       30.790     3356.146     6493.409      948.028        2.137        0.540      176.700       40.174        0.052      338.442       11.094      861.848
10/15/2014  22:51:00      -77.544      159.231      -28.097       46.863       55.395       32.375     2196.187     3068.659     1048.136        1.923        0.316      177.109       25.620        0.021      338.432       11.078      861.854
10/15/2014  22:52:00     -114.086      134.689      -25.981       56.483       47.546       30.966     3190.357     2260.668      958.877        1.912        0.320      176.513       30.512        0.030      338.428       11.070      861.853
10/15/2014  22:53:00      -91.795      166.647      -30.930       34.078       49.270       29.794     1161.323     2427.558      887.697        2.081        0.224      190.256       25.393        0.018      338.399       11.023      861.851
10/15/2014  22:54:00      -55.680       86.108        4.115       56.550       59.315       33.528     3197.933     3518.261     1124.146        0.918        0.392      102.542       38.748        0.143      338.414       11.048      861.850
10/15/2014  22:55:00     -101.753       90.948      -26.397       43.402       50.102       28.870     1883.707     2510.189      833.484        1.227        0.261      136.475       24.214        0.031      338.377       10.986      861.857
10/15/2014  22:56:00      -95.671       81.347      -16.962       63.721       79.693       31.620     4060.396     6350.925      999.826        1.373        0.571      125.580       21.144        0.028      338.443       11.097      861.852
10/15/2014  22:57:00     -104.600      120.736      -18.248       39.331       51.485       29.034     1546.908     2650.681      842.982        1.545        0.252      159.744       25.147        0.025      338.430       11.076      861.839
10/15/2014  22:58:00      -87.095       86.816      -15.910       30.958       58.496       27.364      958.408     3421.818      748.804        1.025        0.256      122.974       25.751        0.044      338.400       11.026      861.839
10/15/2014  22:59:00      -85.346      100.290      -20.465       41.640       59.441       43.230     1733.870     3533.260     1868.836        1.245        0.357      131.689       32.946        0.063      338.457       11.122      861.835
10/15/2014  23:00:00      -97.212       51.245      -11.059       40.727       31.847       23.962     1658.683     1014.251      574.190        0.772        0.162      109.892       10.800        0.010      338.468       11.141      861.844
10/15/2014  23:01:00      -79.668       37.523      -13.434       37.383       49.890       19.911     1397.503     2489.027      396.465        0.611        0.214       88.063       17.858        0.041      338.457       11.121      861.856
10/15/2014  23:02:00      -86.135       59.100      -20.288       64.721       32.054       22.734     4188.821     1027.427      516.817        0.853        0.287      104.461       26.768        0.066      338.510       11.211      861.870
10/15/2014  23:03:00     -120.654       65.248      -18.407       67.571       61.684       37.548     4565.776     3804.959     1409.860        1.447        0.489      137.167       31.233        0.052      338.472       11.147      861.888
10/15/2014  23:04:00     -122.881       56.782      -20.330       63.350       47.652       27.800     4013.177     2270.744      772.855        1.290        0.353      135.366       21.000        0.024      338.474       11.151      861.891
10/15/2014  23:05:00     -105.026      128.541      -34.817       49.985       48.001       28.697     2498.549     2304.085      823.504        1.719        0.281      165.992       15.464        0.009      338.495       11.186      861.883
10/15/2014  23:06:00      -89.652      104.245      -14.699       46.783       54.572       31.392     2188.657     2978.083      985.483        1.264        0.308      137.494       24.333        0.031      338.523       11.233      861.899
10/15/2014  23:07:00      -97.909       60.463       -8.689       57.344       47.865       32.120     3288.313     2291.017     1031.665        0.996        0.331      115.073       40.472        0.124      338.437       11.088      861.906
10/15/2014  23:08:00      -81.398       25.464      -12.797       28.366       40.700       26.272      804.648     1656.459      690.197        0.529        0.158       85.288       17.623        0.043      338.442       11.097      861.918
10/15/2014  23:09:00     -133.324       75.394      -19.248       63.904       71.791       45.398     4083.740     5153.937     2060.965        1.756        0.565      153.165       37.718        0.061      338.338       10.922      861.936
10/15/2014  23:10:00     -107.281       76.721      -16.686       51.504       52.965       36.197     2652.611     2805.269     1310.241        1.222        0.338      131.891       26.360        0.040      338.346       10.934      861.947
10/15/2014  23:11:00     -127.472       82.687      -21.242       52.007       73.723       34.423     2704.726     5435.128     1184.911        1.643        0.466      151.941       32.857        0.047      338.318       10.887      861.951
10/15/2014  23:12:00      -89.466       66.894      -16.327       45.082       52.773       32.023     2032.402     2785.016     1025.469        0.929        0.292      111.709       24.840        0.049      338.354       10.949      861.949
10/15/2014  23:13:00      -43.694       65.325       -2.490       26.050       35.453       22.502      678.621     1256.939      506.340        0.431        0.122       78.591       18.054        0.053      338.348       10.937      861.933
10/15/2014  23:14:00      -52.871       41.472       -7.344       35.620       21.309       23.193     1268.796      454.060      537.893        0.341        0.113       67.196       25.242        0.141      338.389       11.007      861.926
10/15/2014  23:15:00      -72.077      102.325      -28.524       43.126       42.649       23.194     1859.888     1818.923      537.950        1.035        0.211      125.162       21.550        0.030      338.380       10.991      861.929
10/15/2014  23:16:00      -21.044       47.609       -1.094       21.546       21.271       14.121      464.221      452.469      199.409        0.191        0.056       52.053       10.570        0.041      338.411       11.044      861.939
10/15/2014  23:17:00      -38.433       48.149      -13.262       37.628       31.256       19.858     1415.851      976.926      394.336        0.338        0.139       61.607       23.029        0.140      338.396       11.020      861.953
10/15/2014  23:18:00      -44.058       48.584       -4.357       34.962       32.616       20.077     1222.326     1063.823      403.100        0.350        0.134       65.586       25.969        0.157      338.382       10.995      861.957
10/15/2014  23:19:00      -68.982       87.200      -25.394       23.073       32.993       18.730      532.351     1088.564      350.804        0.749        0.099      111.186       11.214        0.010      338.367       10.969      861.964
10/15/2014  23:20:00      -39.238       15.290       -6.096       23.933       40.059       14.933      572.786     1604.754      222.983        0.211        0.120       42.112       18.577        0.195      338.392       11.011      861.961
10/15/2014  23:21:00      -24.547       13.363      -15.246       24.434       14.666        8.434      597.004      215.098       71.124        0.095        0.044       27.949        7.601        0.074      338.403       11.031      861.945
10/15/2014  23:22:00      -92.295       39.519      -16.335       61.483       60.037       27.195     3780.117     3604.487      739.569        0.923        0.406      100.400       36.451        0.132      338.423       11.065      861.917
10/15/2014  23:23:00      -63.669      102.947      -21.571       36.286       40.031       24.456     1316.670     1602.482      598.088        0.932        0.176      121.044       21.404        0.031      338.387       11.005      861.876
10/15/2014  23:24:00      -61.252       86.670      -27.981       52.111       73.744       31.973     2715.518     5438.161     1022.278        1.061        0.459      106.130       35.390        0.111      338.378       10.989      861.852
10/15/2014  23:25:00      -87.148       62.694      -25.410       32.144       60.368       22.849     1033.244     3644.303      522.067        0.868        0.260      107.356       10.458        0.009      338.461       11.129      861.833
10/15/2014  23:26:00      -84.987       35.996       -8.106       26.104       40.376       21.446      681.432     1630.229      459.915        0.568        0.139       92.296       16.285        0.031      338.446       11.102      861.829
10/15/2014  23:27:00      -33.847       19.528       10.664       59.013       32.752       25.363     3482.514     1072.695      643.280        0.342        0.260       39.077       24.828        0.404      338.389       11.006      861.824
10/15/2014  23:28:00      -55.898        8.394      -12.372       36.002       29.037       18.636     1296.118      843.166      347.284        0.292        0.124       56.524       17.720        0.098      338.362       10.961      861.832
10/15/2014  23:29:00     -114.525       53.470      -25.254       41.157       29.124       19.892     1693.910      848.226      395.705        0.977        0.147      126.393       19.145        0.023      338.425       11.066      861.829
10/15/2014  23:30:00      -48.217       27.192       -0.824       37.906       27.185       18.777     1436.892      739.043      352.571        0.280        0.126       55.356       17.015        0.094      338.434       11.083      861.836
10/15/2014  23:31:00      -83.212       -8.089       -7.873       28.593       34.781       20.223      817.534     1209.695      408.984        0.474        0.122       83.604       16.775        0.040      338.441       11.096      861.847
10/15/2014  23:32:00     -141.575       19.230      -16.600       74.059       57.444       35.249     5484.701     3299.847     1242.501        1.536        0.501      142.875       20.377        0.020      338.424       11.065      861.854
10/15/2014  23:33:00     -158.063       28.550      -18.497       82.573       89.061       37.664     6818.333     7931.899     1418.560        2.115        0.808      160.621       17.128        0.011      338.350       10.941      861.861
10/15/2014  23:34:00      -89.509       60.341      -25.456       26.044       38.181       22.108      678.310     1457.752      488.766        0.746        0.131      107.949       16.521        0.023      338.389       11.005      861.882
10/15/2014  23:35:00     -128.374       -8.859      -20.894       41.371       40.300       27.380     1711.550     1624.084      749.650        1.054        0.204      128.679       21.967        0.029      338.398       11.022      861.901
10/15/2014  23:36:00     -130.638       -8.317      -18.908       39.882       36.782       27.291     1590.566     1352.913      744.777        1.059        0.184      130.903       11.041        0.007      338.420       11.059      861.914
10/15/2014  23:37:00      -47.718      -27.032        6.856       50.021       47.209       38.684     2502.093     2228.668     1496.417        0.464        0.311       54.843       35.345        0.415      338.421       11.060      861.921
10/15/2014  23:38:00     -125.130      -30.098        4.402       51.488       57.689       31.230     2651.053     3328.004      975.297        1.177        0.348      128.699       28.633        0.049      338.369       10.974      861.932
10/15/2014  23:39:00      -95.969      -30.252       -4.223       47.772       51.461       30.764     2282.179     2648.223      946.453        0.801        0.294      100.624       27.828        0.076      338.393       11.013      861.938
10/15/2014  23:40:00      -48.792       -4.180       -7.801       30.444       17.735       19.353      926.833      314.518      374.531        0.204        0.081       48.970       11.276        0.053      338.391       11.011      861.926
10/15/2014  23:41:00      -42.471      -36.303        0.913       27.145       19.340       18.791      736.850      374.047      353.099        0.229        0.073       55.872       16.019        0.082      338.408       11.038      861.913
10/15/2014  23:42:00      -77.724      -11.551        0.702       29.593       34.663       24.464      875.726     1201.553      598.477        0.442        0.134       78.578       17.459        0.049      338.461       11.129      861.888
10/15/2014  23:43:00      -60.432      -41.620       -5.764       27.962       21.417       18.371      781.849      458.677      337.496        0.350        0.079       73.377       15.418        0.044      338.470       11.143      861.872
10/15/2014  23:44:00      -78.818      -29.375       -3.984       27.824       24.022       16.400      774.158      577.063      268.946        0.436        0.081       84.114       14.294        0.029      338.459       11.125      861.853
10/15/2014  23:45:00      -16.688      -35.656        7.374       35.077       30.715       22.392     1230.379      943.387      501.383        0.214        0.134       39.368       14.491        0.135      338.526       11.238      861.829
10/15/2014  23:46:00      -35.871      -13.817        2.221       24.454       18.796        8.752      598.014      353.276       76.606        0.126        0.051       38.440        9.424        0.060      338.434       11.082      861.823
10/15/2014  23:47:00       -9.481      -22.131        3.263       17.284       19.022        9.930      298.749      361.824       98.605        0.067        0.038       24.077        9.786        0.165      338.455       11.118      861.816
10/15/2014  23:48:00      -36.473      -16.947        3.159       30.605       23.952       13.917      936.687      573.681      193.694        0.167        0.085       40.217       15.338        0.145      338.429       11.072      861.829
10/15/2014  23:49:00      -66.019      -30.398       -5.316       19.506       17.203       12.010      380.481      295.938      144.250        0.307        0.041       72.681        7.681        0.011      338.444       11.098      861.840
10/15/2014  23:50:00      -22.387      -77.457        3.541       29.571       34.036       19.819      874.419     1158.421      392.778        0.447        0.121       80.628       18.002        0.050      338.446       11.102      861.853
10/15/2014  23:51:00      -18.014      -25.567       18.272       34.034       25.824       19.932     1158.289      666.864      397.291        0.177        0.111       31.275       10.204        0.106      338.449       11.107      861.853
10/15/2014  23:52:00      -48.004      -76.370        8.040       55.576       46.491       26.710     3088.684     2161.447      713.403        0.708        0.298       90.204       35.401        0.154      338.449       11.106      861.852
10/15/2014  23:53:00      -86.527      -56.107        4.619       54.645       36.649       24.270     2986.067     1343.125      589.043        0.779        0.246      103.126       23.818        0.053      338.481       11.162      861.846
10/15/2014  23:54:00      -80.819      -52.166        2.915       43.904       39.259       22.467     1927.580     1541.300      504.762        0.662        0.199       96.192       14.100        0.021      338.459       11.123      861.851
10/15/2014  23:55:00      -93.531     -105.113       -2.220       51.525       32.995       20.466     2654.873     1088.703      418.859        1.198        0.208      140.701       22.111        0.025      338.454       11.117      861.854
10/15/2014  23:56:00      -71.013      -54.247       -0.262       40.168       24.835       21.582     1613.508      616.755      465.789        0.534        0.135       89.362        9.950        0.012      338.491       11.179      861.851
10/15/2014  23:57:00      -67.789      -70.130       -4.212       49.472       40.747       26.096     2447.506     1660.296      680.989        0.716        0.239       97.537       17.317        0.032      338.499       11.193      861.853
10/15/2014  23:58:00      -48.823      -42.270        4.227       41.918       35.220       26.026     1757.160     1240.428      677.353        0.393        0.184       64.579       27.816        0.186      338.520       11.226      861.852
10/15/2014  23:59:00     -125.790      -94.822       -5.092       50.666       50.947       21.482     2567.000     2595.642      461.485        1.523        0.281      157.526       15.769        0.010      338.536       11.253      861.848
